[[{"header":{"parameterUnit":"m.s-1","parameterCategory":1,"la1":30.6,"la2":29.2853,"lo1":-89.7004,"lo2":-87.6739,"dy":0.0162,"dx":0.0183,"nx":112,"ny":82,"refTime":"2024-04-25T06:00:00:Z","depth":0,"parameterNumber":2,"parameterNumberName":"U-component_of_WINDS"},"data":[0.0,0.0,0.0,0.0,0.0,0.0,0.0,0.0,0.0,0.0,0.0,0.0,0.0,0.0,0.0,0.0,0.0,0.0,0.0,0.0,0.0,0.0,0.0,0.0,0.0,0.0,0.0,0.0,0.0,0.0,0.0,0.0,0.0,0.0,0.0,0.0,0.0,0.0,0.0,0.0,0.0,0.0,0.0,0.0,0.0,0.0,0.0,0.0,0.0,0.0,0.0,0.0,0.0,0.0,0.0,0.0,0.0,0.0,0.0,0.0,0.0,0.0,0.0,0.0,0.0,0.0,0.0,0.0,0.0,0.0,0.0,0.0,0.0,0.0,0.0,0.0,0.0,0.0,0.0,0.0,0.0,0.0,0.0,0.0,0.0,0.0,0.0,0.0,0.0,0.0,0.0,-3.926,-4.3596,-4.6326,-4.6609,-4.2655,-3.8388,-3.422,0.0,0.0,0.0,0.0,0.0,0.0,0.0,0.0,0.0,0.0,0.0,0.0,0.0,0.0,0.0,0.0,0.0,0.0,0.0,0.0,0.0,0.0,0.0,0.0,0.0,0.0,0.0,0.0,0.0,0.0,0.0,0.0,0.0,0.0,0.0,0.0,0.0,0.0,0.0,0.0,0.0,0.0,0.0,0.0,0.0,0.0,0.0,0.0,0.0,0.0,0.0,0.0,0.0,0.0,0.0,0.0,0.0,0.0,0.0,0.0,0.0,0.0,0.0,0.0,0.0,0.0,0.0,0.0,0.0,0.0,0.0,0.0,0.0,0.0,0.0,0.0,0.0,0.0,0.0,0.0,0.0,0.0,0.0,0.0,0.0,0.0,0.0,0.0,0.0,0.0,0.0,0.0,0.0,0.0,0.0,0.0,0.0,0.0,0.0,0.0,0.0,0.0,0.0,0.0,-3.8482,-4.4466,-4.6442,-4.717,-4.6624,-4.2532,-3.8189,-3.4076,0.0,0.0,0.0,0.0,0.0,0.0,0.0,0.0,0.0,0.0,0.0,0.0,0.0,0.0,0.0,0.0,0.0,0.0,0.0,0.0,0.0,0.0,0.0,0.0,0.0,0.0,0.0,0.0,0.0,0.0,0.0,0.0,0.0,0.0,0.0,0.0,0.0,0.0,0.0,0.0,0.0,0.0,0.0,0.0,0.0,0.0,0.0,0.0,0.0,0.0,0.0,0.0,0.0,0.0,0.0,0.0,0.0,0.0,0.0,0.0,0.0,0.0,0.0,0.0,0.0,0.0,0.0,0.0,0.0,0.0,0.0,0.0,0.0,0.0,0.0,0.0,0.0,0.0,0.0,0.0,0.0,0.0,0.0,0.0,0.0,0.0,0.0,0.0,0.0,0.0,0.0,0.0,0.0,0.0,0.0,0.0,0.0,0.0,0.0,0.0,0.0,0.0,0.0,-3.8302,-4.1816,-4.6139,-4.7214,-4.7242,-4.6298,-4.2158,-3.7843,-3.3733,-2.9374,0.0,0.0,0.0,0.0,0.0,0.0,0.0,0.0,0.0,0.0,0.0,0.0,0.0,0.0,0.0,0.0,0.0,0.0,0.0,0.0,0.0,0.0,0.0,0.0,0.0,0.0,0.0,0.0,0.0,0.0,0.0,0.0,0.0,0.0,0.0,0.0,0.0,0.0,0.0,0.0,0.0,0.0,0.0,0.0,0.0,0.0,0.0,0.0,0.0,0.0,0.0,0.0,0.0,0.0,0.0,0.0,0.0,0.0,0.0,0.0,0.0,0.0,0.0,0.0,0.0,0.0,0.0,0.0,0.0,0.0,0.0,0.0,0.0,0.0,0.0,0.0,0.0,0.0,0.0,0.0,0.0,0.0,0.0,0.0,0.0,0.0,0.0,0.0,0.0,0.0,0.0,0.0,0.0,0.0,0.0,0.0,0.0,0.0,0.0,0.0,0.0,0.0,-4.0876,-4.4165,-4.6456,-4.7067,-4.6769,-4.5549,-4.1321,-3.706,-3.3094,-2.8675,0.0,0.0,0.0,0.0,0.0,0.0,0.0,0.0,0.0,0.0,0.0,0.0,0.0,0.0,0.0,0.0,0.0,0.0,0.0,0.0,0.0,0.0,0.0,0.0,0.0,0.0,0.0,0.0,0.0,0.0,0.0,0.0,0.0,0.0,0.0,0.0,0.0,0.0,0.0,0.0,0.0,0.0,0.0,0.0,0.0,0.0,0.0,0.0,0.0,0.0,0.0,0.0,0.0,0.0,0.0,0.0,0.0,0.0,0.0,0.0,0.0,0.0,0.0,0.0,0.0,0.0,0.0,0.0,0.0,0.0,0.0,0.0,0.0,0.0,0.0,0.0,0.0,0.0,0.0,0.0,0.0,0.0,0.0,0.0,0.0,0.0,0.0,0.0,0.0,0.0,0.0,0.0,0.0,0.0,0.0,0.0,0.0,0.0,0.0,0.0,0.0,0.0,-4.0905,-4.4086,-4.5862,-4.6285,-4.5786,-4.4269,-3.9788,-3.5581,-3.2138,-2.7796,0.0,0.0,0.0,0.0,0.0,0.0,0.0,0.0,0.0,0.0,0.0,0.0,0.0,0.0,0.0,0.0,0.0,0.0,0.0,0.0,0.0,0.0,0.0,0.0,0.0,0.0,0.0,0.0,0.0,0.0,0.0,0.0,0.0,0.0,0.0,0.0,0.0,0.0,0.0,0.0,0.0,0.0,0.0,0.0,0.0,0.0,0.0,0.0,0.0,0.0,0.0,0.0,0.0,0.0,0.0,0.0,0.0,0.0,0.0,0.0,0.0,0.0,0.0,0.0,0.0,0.0,0.0,0.0,0.0,0.0,0.0,0.0,0.0,0.0,0.0,0.0,0.0,0.0,0.0,0.0,0.0,0.0,0.0,0.0,0.0,0.0,0.0,0.0,0.0,0.0,0.0,0.0,0.0,0.0,0.0,0.0,0.0,0.0,0.0,0.0,0.0,0.0,-4.1151,-4.4299,0.0,-4.5933,-4.5169,-4.2969,-3.893,-3.4848,-3.0915,0.0,0.0,0.0,0.0,0.0,0.0,0.0,0.0,0.0,0.0,0.0,0.0,0.0,0.0,0.0,0.0,0.0,0.0,0.0,0.0,0.0,0.0,0.0,0.0,0.0,0.0,0.0,0.0,0.0,0.0,0.0,0.0,0.0,0.0,0.0,0.0,0.0,0.0,0.0,0.0,0.0,0.0,0.0,0.0,0.0,0.0,0.0,0.0,0.0,0.0,0.0,0.0,0.0,0.0,0.0,0.0,0.0,0.0,0.0,0.0,0.0,0.0,0.0,0.0,0.0,0.0,0.0,0.0,0.0,0.0,0.0,0.0,0.0,0.0,0.0,0.0,0.0,0.0,0.0,0.0,0.0,0.0,0.0,0.0,0.0,0.0,0.0,0.0,0.0,0.0,0.0,0.0,0.0,0.0,0.0,0.0,0.0,0.0,0.0,0.0,0.0,0.0,-3.6901,-4.0426,-4.3223,0.0,-4.4589,-4.3531,-4.1185,-3.7396,-3.3522,-2.9808,0.0,0.0,0.0,0.0,0.0,0.0,0.0,0.0,0.0,0.0,0.0,0.0,0.0,0.0,0.0,0.0,0.0,0.0,0.0,0.0,0.0,0.0,0.0,0.0,0.0,0.0,0.0,0.0,0.0,0.0,0.0,0.0,0.0,0.0,0.0,0.0,0.0,0.0,0.0,0.0,0.0,0.0,0.0,0.0,0.0,0.0,0.0,0.0,0.0,0.0,0.0,0.0,0.0,0.0,0.0,0.0,0.0,0.0,0.0,0.0,0.0,0.0,0.0,0.0,0.0,0.0,0.0,0.0,0.0,0.0,0.0,0.0,0.0,0.0,0.0,0.0,0.0,0.0,0.0,0.0,0.0,0.0,0.0,0.0,0.0,0.0,0.0,0.0,0.0,0.0,0.0,0.0,0.0,0.0,0.0,0.0,0.0,0.0,0.0,0.0,0.0,0.0,-3.6497,-3.862,-4.0646,-4.2744,-4.2034,-4.0616,-3.8725,-3.4889,-3.1446,0.0,0.0,0.0,0.0,0.0,0.0,0.0,0.0,0.0,0.0,0.0,0.0,0.0,0.0,0.0,0.0,0.0,0.0,0.0,0.0,0.0,0.0,0.0,0.0,0.0,0.0,0.0,0.0,0.0,0.0,0.0,0.0,0.0,0.0,0.0,0.0,0.0,0.0,0.0,0.0,0.0,0.0,0.0,0.0,0.0,0.0,0.0,0.0,0.0,0.0,0.0,0.0,0.0,0.0,0.0,0.0,0.0,0.0,0.0,0.0,0.0,0.0,0.0,0.0,0.0,0.0,0.0,0.0,0.0,0.0,0.0,0.0,0.0,0.0,0.0,0.0,0.0,0.0,0.0,0.0,0.0,0.0,0.0,0.0,0.0,0.0,0.0,0.0,0.0,0.0,0.0,0.0,0.0,0.0,0.0,0.0,0.0,0.0,0.0,0.0,0.0,0.0,0.0,-3.5967,-3.8532,-4.0568,-4.1552,-4.1266,-3.9858,-3.7149,-3.4012,-3.0856,-2.7764,0.0,0.0,0.0,0.0,0.0,0.0,0.0,0.0,0.0,0.0,0.0,0.0,0.0,0.0,0.0,0.0,0.0,0.0,0.0,0.0,0.0,0.0,0.0,0.0,0.0,0.0,0.0,0.0,0.0,0.0,0.0,0.0,0.0,0.0,0.0,0.0,0.0,0.0,0.0,0.0,0.0,0.0,0.0,0.0,0.0,0.0,0.0,0.0,0.0,0.0,0.0,0.0,0.0,0.0,0.0,0.0,0.0,0.0,0.0,0.0,0.0,0.0,0.0,0.0,0.0,0.0,0.0,0.0,0.0,0.0,0.0,0.0,0.0,0.0,0.0,0.0,0.0,0.0,0.0,0.0,0.0,0.0,0.0,0.0,0.0,0.0,0.0,0.0,0.0,0.0,0.0,0.0,0.0,0.0,0.0,0.0,0.0,0.0,0.0,0.0,0.0,0.0,-3.5497,-3.766,-3.9383,-4.0222,-3.9798,-3.8325,-3.568,-3.3049,-3.0236,-2.7191,0.0,0.0,0.0,0.0,0.0,0.0,0.0,0.0,0.0,0.0,0.0,0.0,0.0,0.0,0.0,0.0,0.0,0.0,0.0,0.0,0.0,0.0,0.0,0.0,0.0,0.0,0.0,0.0,0.0,0.0,0.0,0.0,0.0,0.0,0.0,0.0,0.0,0.0,0.0,0.0,0.0,0.0,0.0,0.0,0.0,0.0,0.0,0.0,0.0,0.0,0.0,0.0,0.0,0.0,0.0,0.0,0.0,0.0,0.0,0.0,0.0,0.0,0.0,0.0,0.0,0.0,0.0,0.0,0.0,0.0,0.0,0.0,0.0,0.0,0.0,0.0,0.0,0.0,0.0,0.0,0.0,0.0,0.0,0.0,0.0,0.0,0.0,0.0,0.0,0.0,0.0,0.0,0.0,0.0,0.0,0.0,0.0,0.0,0.0,0.0,0.0,0.0,-3.516,-3.6346,-3.7519,-3.8887,-3.7972,-3.6414,-3.4339,-3.2056,-2.963,-2.7002,0.0,0.0,0.0,0.0,0.0,0.0,0.0,0.0,0.0,0.0,0.0,0.0,0.0,0.0,0.0,0.0,0.0,0.0,0.0,0.0,0.0,0.0,0.0,0.0,0.0,0.0,0.0,0.0,0.0,0.0,0.0,0.0,0.0,0.0,0.0,0.0,0.0,0.0,0.0,0.0,0.0,0.0,0.0,0.0,0.0,0.0,0.0,0.0,0.0,0.0,0.0,0.0,0.0,0.0,0.0,0.0,0.0,0.0,0.0,0.0,-4.7244,0.0,0.0,0.0,0.0,0.0,0.0,0.0,0.0,0.0,0.0,0.0,0.0,0.0,0.0,0.0,0.0,0.0,0.0,0.0,0.0,0.0,0.0,0.0,0.0,0.0,0.0,0.0,0.0,0.0,0.0,0.0,0.0,0.0,0.0,0.0,0.0,0.0,0.0,0.0,0.0,0.0,-3.516,-3.6346,-3.7175,-3.7639,-3.7133,-3.5818,-3.3542,-3.1435,-2.9376,-2.7324,0.0,0.0,0.0,0.0,0.0,0.0,0.0,0.0,0.0,0.0,0.0,0.0,0.0,0.0,0.0,0.0,0.0,0.0,0.0,0.0,0.0,0.0,0.0,0.0,0.0,0.0,0.0,0.0,0.0,0.0,0.0,0.0,0.0,0.0,0.0,0.0,0.0,0.0,0.0,0.0,0.0,0.0,0.0,0.0,0.0,0.0,0.0,0.0,0.0,0.0,0.0,0.0,0.0,0.0,0.0,0.0,0.0,0.0,0.0,0.0,0.0,-4.8394,0.0,0.0,0.0,0.0,0.0,0.0,0.0,0.0,0.0,0.0,0.0,0.0,0.0,0.0,0.0,0.0,0.0,0.0,0.0,0.0,0.0,0.0,0.0,0.0,0.0,0.0,0.0,0.0,0.0,0.0,0.0,0.0,0.0,0.0,0.0,0.0,0.0,0.0,0.0,0.0,-3.5045,-3.5762,-3.6269,-3.6788,-3.6237,-3.5021,-3.2935,-3.1126,-2.9277,-2.7429,-2.5963,0.0,0.0,0.0,0.0,0.0,0.0,0.0,0.0,0.0,0.0,0.0,0.0,0.0,0.0,0.0,0.0,0.0,0.0,0.0,0.0,0.0,0.0,0.0,0.0,0.0,0.0,0.0,0.0,0.0,0.0,0.0,0.0,0.0,0.0,0.0,0.0,0.0,0.0,0.0,0.0,0.0,0.0,0.0,0.0,0.0,0.0,0.0,0.0,0.0,0.0,0.0,0.0,0.0,-6.2381,-6.3208,-6.3554,-6.3493,-6.3313,-6.272,-5.6899,-5.3261,-5.1375,0.0,0.0,0.0,0.0,0.0,0.0,0.0,0.0,0.0,0.0,0.0,0.0,0.0,0.0,0.0,0.0,0.0,0.0,0.0,0.0,0.0,0.0,0.0,0.0,0.0,-4.0321,-3.9567,0.0,0.0,0.0,0.0,0.0,0.0,0.0,0.0,0.0,0.0,0.0,0.0,-3.5078,-3.5135,-3.5376,-3.6223,-3.544,-3.419,-3.2552,-3.0931,-2.929,-2.7555,-2.6364,-2.531,0.0,0.0,0.0,0.0,0.0,0.0,0.0,0.0,0.0,0.0,0.0,0.0,0.0,0.0,0.0,0.0,0.0,0.0,0.0,0.0,0.0,0.0,0.0,0.0,0.0,0.0,0.0,0.0,0.0,0.0,0.0,0.0,-4.9777,-5.0481,0.0,0.0,0.0,0.0,0.0,0.0,0.0,0.0,0.0,0.0,0.0,0.0,0.0,-6.0172,-6.2645,-6.4649,-6.6269,-6.75,-6.8532,-6.9366,-6.998,-6.9642,-6.9215,-6.8634,-6.7152,0.0,-5.6223,-5.3879,0.0,0.0,0.0,0.0,0.0,0.0,0.0,0.0,0.0,0.0,0.0,0.0,0.0,0.0,0.0,0.0,0.0,0.0,0.0,0.0,0.0,0.0,-4.2498,-4.2586,-4.2992,-4.3137,0.0,-3.9509,-3.7157,-3.707,0.0,0.0,0.0,0.0,0.0,0.0,0.0,0.0,-3.5654,-3.528,-3.5224,-3.6223,-3.4821,-3.3418,-3.2486,-3.0839,-2.9315,-2.8072,-2.7002,-2.6097,-2.541,-2.4958,0.0,0.0,0.0,0.0,0.0,0.0,0.0,0.0,0.0,0.0,0.0,0.0,0.0,0.0,0.0,0.0,0.0,0.0,0.0,0.0,0.0,0.0,0.0,0.0,0.0,0.0,0.0,0.0,0.0,-5.069,-5.2426,-5.3832,-5.3084,-5.2001,0.0,0.0,0.0,0.0,0.0,0.0,0.0,0.0,0.0,-6.2112,-6.4317,-6.6432,-6.8562,-7.0661,-7.2276,-7.3357,-7.4193,-7.4766,-7.5232,-7.4707,-7.4314,-7.4024,-7.3008,-7.0047,-6.5489,-6.0179,-5.6278,-5.3396,0.0,0.0,0.0,0.0,-4.9766,-4.9815,-5.0805,-5.0871,0.0,0.0,0.0,0.0,0.0,0.0,0.0,0.0,0.0,0.0,0.0,0.0,0.0,-4.5227,-4.5663,-4.5837,-4.485,-4.2731,-4.0525,0.0,-3.7593,-3.6548,-3.5183,0.0,0.0,0.0,0.0,0.0,-3.556,-3.5246,-3.5189,-3.5722,-3.4338,-3.3057,-3.2286,-3.0417,-2.8976,-2.8147,-2.7102,-2.6223,-2.5611,-2.5385,-2.5134,0.0,0.0,0.0,0.0,0.0,0.0,0.0,0.0,0.0,0.0,0.0,0.0,0.0,0.0,0.0,0.0,0.0,0.0,0.0,0.0,0.0,0.0,0.0,0.0,0.0,0.0,0.0,0.0,-5.3414,-5.5239,-5.7318,-5.6571,-5.5432,0.0,0.0,0.0,0.0,0.0,0.0,-6.0501,-6.299,-6.5621,-6.8173,-7.0624,-7.273,-7.4474,-7.6549,-7.788,-7.8587,-7.9054,-7.9366,-7.9598,-7.893,-7.8465,-7.8088,-7.7159,-7.5446,-7.2834,-6.5983,-6.1251,-5.8116,-5.5707,-5.3907,-5.2717,-5.3355,-5.3471,-5.35,-5.4604,-5.4575,-5.3907,-5.3094,0.0,-4.8856,-4.694,0.0,0.0,0.0,0.0,-4.5314,-4.575,-4.7172,-4.8362,-4.7724,-4.8043,-4.813,-4.6679,-4.5488,-4.3776,0.0,-3.9131,-3.7941,-3.6409,0.0,0.0,0.0,0.0,-3.5174,-3.5515,-3.5062,-3.4775,-3.4969,-3.3549,-3.2386,-3.1815,-3.0163,-2.885,-2.8147,-2.7344,-2.66,-2.5837,-2.5812,-2.5636,-2.5234,0.0,0.0,0.0,0.0,0.0,0.0,0.0,0.0,0.0,0.0,0.0,0.0,0.0,0.0,0.0,0.0,0.0,0.0,0.0,0.0,0.0,0.0,0.0,0.0,0.0,0.0,0.0,0.0,0.0,-6.0981,-6.0684,0.0,0.0,0.0,0.0,-5.904,-6.1523,-6.426,-6.7239,-6.9825,-7.2673,-7.5869,-7.7293,-7.8814,-8.0701,-8.2146,-8.2872,-8.2849,-8.2878,-8.2907,-8.2936,-8.2268,-8.1281,-8.0149,-8.0091,-7.8262,-7.5011,-7.0366,-6.6535,-6.3395,-6.1513,-5.9597,-5.8,-5.8668,-5.8523,-5.8058,-5.8784,-5.8581,-5.7826,-5.6578,-5.3617,-5.022,-4.8275,-4.7579,0.0,0.0,-4.7474,-4.8508,-4.8489,-4.9524,-5.0365,-4.9727,-5.0075,-5.0017,-4.8101,-4.7172,-4.575,0.0,-4.0437,-3.8928,-3.8173,0.0,-3.6257,-3.6228,-3.5906,-3.5736,-3.592,-3.4618,-3.3763,-3.3953,-3.2197,-3.0976,-3.095,-3.0198,-2.9277,-2.8172,-2.8047,-2.7544,-2.6499,-2.6449,-2.6449,-2.6424,-2.6399,0.0,0.0,0.0,0.0,0.0,0.0,0.0,0.0,0.0,0.0,0.0,0.0,0.0,0.0,0.0,0.0,0.0,0.0,0.0,0.0,0.0,0.0,0.0,0.0,0.0,0.0,0.0,0.0,-6.6681,-6.6236,0.0,-6.563,-6.4484,-6.4326,-6.6061,-6.8527,-7.0958,-7.3269,-7.5824,-7.8117,-8.0091,-8.1397,-8.2588,-8.3691,-8.4591,-8.5026,-8.5026,-8.462,-8.4416,-8.4358,-8.2878,-8.1949,-8.1484,-8.0643,-7.9191,-7.7217,-7.5185,-7.1731,-6.7551,-6.5606,-6.3922,-6.2645,-6.2877,-6.2558,-6.2035,-6.2267,-6.1919,-6.0961,-5.8435,-5.5852,-5.3442,-5.1933,-5.1178,-5.0743,-5.0104,-5.0249,-5.0598,-5.0598,-5.1236,-5.1693,-5.0598,-5.083,-5.0656,-4.8275,-4.7608,-4.6737,-4.4356,-4.2353,-4.0728,-3.9596,-3.8263,-3.7197,-3.683,-3.6265,-3.5836,-3.5642,-3.4636,-3.39,-3.3711,-3.2,-3.0899,-3.0899,-2.987,-2.8925,-2.8147,-2.777,-2.7278,-2.6524,-2.6499,-2.6499,-2.6499,-2.6499,-2.6399,0.0,0.0,0.0,0.0,0.0,0.0,0.0,0.0,0.0,0.0,0.0,0.0,0.0,0.0,0.0,0.0,0.0,0.0,0.0,0.0,0.0,0.0,0.0,0.0,0.0,0.0,-6.7135,-7.142,-7.1664,-7.1609,-7.2035,-7.1225,-7.1272,-7.2573,-7.4866,-7.6927,-7.864,-8.0759,-8.25,-8.3778,-8.462,-8.5374,-8.6042,-8.6448,-8.6565,-8.6332,-8.5694,-8.5171,-8.4707,-8.3197,-8.2268,-8.1804,-8.0759,-7.9569,-7.832,-7.7217,-7.4634,-7.1208,-6.9495,-6.7783,-6.6273,-6.6273,-6.5751,-6.4938,-6.4502,-6.3661,-6.2325,-5.9771,-5.7768,-5.6142,-5.4865,-5.4197,-5.3675,-5.2833,-5.2601,-5.2543,-5.231,-5.2426,-5.2362,-5.1236,-5.1149,-5.0656,-4.818,-4.7688,-4.712,-4.5322,-4.3517,-4.1939,-4.081,-3.9398,-3.8208,-3.7501,-3.6929,-3.6264,-3.5495,-3.4566,-3.3818,-3.3331,-3.176,-3.0806,-3.0806,-2.9831,-2.8976,-2.8423,-2.8047,-2.7494,-2.6801,-2.6776,-2.6675,-2.6499,-2.6499,-2.6499,-2.6499,0.0,0.0,0.0,0.0,0.0,0.0,0.0,0.0,0.0,0.0,0.0,0.0,0.0,0.0,0.0,0.0,0.0,0.0,0.0,0.0,0.0,0.0,0.0,-6.2027,-6.7027,-7.1791,-7.4954,-7.677,-7.7768,-7.7642,-7.7624,-7.7914,-7.8582,-8.0381,-8.2007,-8.3313,-8.4562,-8.5781,-8.7,-8.7029,-8.7319,-8.7929,-8.7929,-8.761,-8.6971,-8.6332,-8.5345,-8.4068,-8.3458,-8.2442,-8.1136,-8.0527,-7.954,-7.8233,-7.6317,-7.5127,-7.4372,-7.3124,-7.1092,-6.8886,-6.8886,-6.8044,-6.6709,-6.5431,-6.3719,-6.1919,-6.0671,-5.9422,-5.8145,-5.6897,-5.649,-5.6229,-5.4923,-5.4546,-5.4371,-5.3704,-5.3036,-5.2397,-5.1759,-5.112,-5.0055,-4.7874,-4.7376,-4.6926,-4.5413,-4.3801,-4.2509,-4.1875,-4.0519,-3.9218,-3.8326,-3.7826,0.0,-3.5548,-3.4309,-3.3331,-3.2698,-3.1382,-3.0608,-3.0608,-3.0105,-2.9553,-2.8938,-2.8888,-2.8448,-2.7344,-2.7293,-2.7102,-2.6549,-2.6549,-2.6549,-2.6549,0.0,0.0,0.0,0.0,0.0,0.0,0.0,0.0,0.0,0.0,0.0,0.0,0.0,0.0,0.0,0.0,0.0,0.0,0.0,0.0,0.0,0.0,-6.5611,-6.754,-7.177,-7.6272,-8.0595,-8.1584,-8.2203,-8.2901,-8.253,-8.2733,-8.3836,-8.5258,-8.6448,-8.7261,-8.8074,-8.848,-8.8364,-8.8364,-8.8219,-8.7929,-8.7929,-8.761,-8.6971,-8.6332,-8.5345,-8.4039,-8.2965,-8.1775,-8.0497,-7.9859,-7.8843,-7.7595,-7.6608,-7.5534,-7.4372,-7.3124,-7.1615,-7.0192,-7.0192,-6.8799,-6.6709,-6.5431,-6.4038,-6.2674,-6.1832,-6.1048,-6.0148,-5.89,-5.8493,-5.8029,-5.5794,-5.5155,-5.4923,-5.3791,-5.3036,-5.2397,-5.1759,-5.0772,-4.9484,-4.774,-4.703,-4.639,-4.5327,-4.3771,-4.2616,-4.2593,-4.0817,-3.9158,-3.8337,-3.7167,0.0,-3.5015,-3.386,-3.2962,-3.2657,-3.1382,-3.0608,-3.0608,-3.0105,-2.9553,-2.8938,-2.8888,-2.8587,-2.7921,-2.7871,-2.7821,-2.7645,-2.7645,-2.7645,0.0,0.0,0.0,0.0,0.0,0.0,0.0,0.0,0.0,0.0,0.0,0.0,0.0,0.0,0.0,0.0,0.0,0.0,0.0,0.0,0.0,0.0,-6.6767,-7.1214,-7.4508,-7.7122,-8.0112,-8.4016,-8.5176,-8.6008,-8.6998,-8.671,-8.6797,-8.7552,-8.8306,-8.8887,-8.9264,-8.9613,-8.9642,-8.9293,-8.9003,-8.8684,-8.8335,-8.8045,-8.7464,-8.6565,-8.5926,-8.4823,-8.3255,-8.1978,-8.0846,0.0,-7.8901,-7.7943,-7.6927,-7.6027,-7.5069,0.0,0.0,0.0,0.0,0.0,-6.8392,-6.6709,-6.5431,-6.4154,-6.2993,-6.2325,-6.1687,-6.0961,-5.9684,-5.9306,-5.8755,-5.6142,-5.5416,-5.5068,-5.353,-5.2659,-5.202,-5.1381,-5.0249,-4.8934,-4.7559,-4.6774,-4.6003,-4.5022,0.0,0.0,-4.2362,-4.0669,-3.8968,-3.7794,-3.6668,-3.5568,-3.446,-3.3611,-3.3029,-3.2845,-3.1669,-3.0934,-3.0934,-3.0231,0.0,0.0,0.0,-2.9026,-2.8473,-2.8222,0.0,0.0,0.0,-2.8097,-2.8097,0.0,0.0,0.0,-2.67,-2.6499,0.0,0.0,0.0,0.0,0.0,0.0,0.0,0.0,0.0,0.0,0.0,0.0,0.0,0.0,0.0,0.0,-7.1905,-7.6845,-8.1604,-8.2335,-8.3481,-8.6068,-8.7776,-8.9058,-8.9816,-8.9932,-8.9932,-8.9932,-8.999,-9.0048,-9.0048,0.0,0.0,0.0,0.0,-8.8945,-8.8887,-8.8248,-8.729,-8.6013,-8.5403,-8.4068,-8.2152,-8.0875,-7.9888,-7.9133,-7.7914,-7.7014,-7.6259,-7.5069,-7.4082,-7.3385,-7.3327,-7.2195,-7.0395,-6.8479,-6.7289,-6.6476,-6.5199,0.0,0.0,-6.2209,-6.1571,-6.0874,-5.9655,-5.9248,-5.8668,-5.6113,-5.5416,-5.4981,-5.3117,-5.2107,-5.1439,-5.0743,-4.9582,-4.8259,-4.7196,-4.6452,-4.5637,-4.4556,-4.3156,-4.1973,-4.1471,-4.0214,-3.8664,-3.6994,-3.6314,-3.5444,-3.3854,-3.3471,-3.3258,-3.3036,0.0,0.0,-3.1311,-3.0382,-2.9804,-2.9804,-2.9804,-2.9553,-2.9013,-2.8549,-2.8298,-2.8298,-2.8298,-2.8298,-2.8298,-2.8222,-2.8197,-2.8172,-2.7153,-2.6675,0.0,0.0,0.0,0.0,0.0,0.0,0.0,0.0,0.0,0.0,0.0,0.0,0.0,0.0,0.0,-7.2195,-7.6491,-8.0381,-8.4029,-8.5396,-8.6732,-8.865,-8.9174,-8.9759,-9.0513,-9.0629,-9.0629,-9.0629,-9.1093,-9.1383,-9.1383,-9.1383,0.0,-9.0629,-8.999,-8.938,-8.8887,-8.8248,-8.729,-8.6013,0.0,0.0,-8.2152,-8.0875,-7.9656,-7.8524,-7.774,-7.6753,-7.5621,-7.4837,-7.3531,-7.1992,-7.1469,-7.0744,-6.9728,-6.7783,-6.6331,-6.517,-6.3893,-6.2935,-6.218,-6.1571,-6.0932,-6.0264,-5.951,-5.8929,0.0,-5.5997,-5.5416,-5.4981,-5.3117,-5.2107,-5.1323,-5.0162,-4.8741,-4.7405,-4.6518,-4.5655,-4.4846,-4.419,-4.274,-4.1471,-4.1036,-3.9742,-3.8202,-3.6569,-3.5753,-3.4856,-3.3623,-3.3283,-3.2935,-3.2441,-3.1788,-3.121,-3.0809,-3.0156,-2.9804,-2.9804,-2.9804,-2.9754,-2.9628,-2.9528,-2.9453,-2.9453,-2.9453,-2.9453,-2.9453,-2.9001,-2.8737,-2.8712,-2.8097,-2.7795,0.0,0.0,0.0,0.0,0.0,0.0,0.0,0.0,0.0,0.0,0.0,-6.0907,-6.411,0.0,-7.2899,-7.7099,-8.0667,-8.3786,-8.6059,-8.7025,-8.7899,-8.9032,-8.9527,-9.0022,-9.0716,-9.1093,-9.1296,-9.1296,-9.1587,-9.1761,-9.1761,-9.1761,-9.147,-9.0832,-9.0164,-8.9526,-8.8887,-8.7929,-8.6971,-8.6013,-8.4736,-8.3284,-8.163,-8.0062,-7.8814,-7.7856,-7.6869,-7.5911,-7.4924,-7.3966,-7.2805,-7.1586,-7.0628,-6.9873,-6.906,-6.7115,-6.5809,-6.4764,-6.3138,-6.2383,-6.2006,-6.1396,-6.0758,-6.009,-5.948,-5.861,-5.7477,-5.5852,-5.5184,-5.4517,-5.2601,-5.1846,-5.1207,-4.9582,-4.8259,-4.7184,-4.6271,-4.5316,-4.4472,-4.4068,-4.2755,-4.1529,-4.0904,-3.9495,-3.7841,-3.6093,-3.5309,-3.4502,-3.3391,-3.3154,-3.2842,-3.2265,-3.1712,-3.1185,-3.0658,-3.0105,-2.9804,-2.9804,-2.9804,-2.9804,-2.9804,-2.9804,-2.9804,-2.9804,-2.9804,-2.9804,-2.9804,-2.9503,-2.9352,-2.9352,-2.9076,-2.8649,0.0,0.0,0.0,0.0,0.0,0.0,0.0,0.0,-5.9538,-6.1405,-6.3786,-6.6506,-6.9767,-7.4196,-7.8381,-8.1489,-8.4309,-8.6481,-8.768,-8.7867,-8.8074,-8.8451,-8.9177,-8.9903,-9.0571,-9.1209,-9.1587,-9.1587,-9.1703,-9.1761,-9.1761,-9.1851,-9.165,-9.0921,-9.0341,-8.9731,-8.8887,-8.7723,-8.662,-8.5636,-8.3981,-8.2442,-8.0962,-7.9191,-7.803,-7.7333,-7.594,-7.4953,-7.4256,-7.3095,-7.2166,-7.1382,-7.0221,-6.9234,-6.8218,-6.6418,-6.5257,-6.4386,-6.2674,-6.2006,-6.1832,-6.1367,-6.0671,-5.9916,-5.9451,-5.829,-5.6897,-5.5736,-5.4981,-5.4052,-5.2107,-5.1614,-5.1091,-4.903,-4.7922,-4.7108,-4.6128,-4.5091,-4.4209,-4.3974,-4.2814,-4.1646,-4.0817,-3.9312,-3.7624,-3.5917,-3.5091,-3.4349,-3.337,-3.3144,-3.2817,-3.2114,-3.1662,-3.1135,-3.0507,-3.0055,-2.9804,-2.9804,-2.9804,-2.9804,-2.9804,-2.9804,-2.9804,-2.9804,-2.9804,-2.9804,-2.9804,-2.9804,-2.9804,-2.9804,-2.9804,-2.9302,-5.4633,-5.3762,-5.3524,-5.4983,-5.6815,-5.8688,0.0,0.0,-6.4118,-6.588,-6.8692,-7.193,-7.5525,-7.8933,-8.2251,-8.5295,-8.6784,-8.768,-8.8412,-8.8129,-8.7755,-8.7261,-8.8248,-8.9235,-8.9874,-9.0542,-9.0919,-9.0919,-9.1441,-9.1761,-9.1761,-9.221,-9.2097,-9.1454,-9.1219,-9.0279,-8.8648,-8.7917,-8.6492,-8.43,-8.3546,-8.221,-8.0352,-7.9017,-7.803,-7.7304,-7.5417,-7.4285,-7.3647,-7.2921,-7.1905,-7.0744,-7.0047,-6.8683,-6.6941,-6.5606,-6.4328,-6.3196,-6.2383,-6.1745,-6.128,-6.1222,-6.038,-5.9393,-5.9335,-5.8,-5.6345,-5.562,-5.4981,-5.4052,-5.2107,-5.1614,-5.0975,-4.8478,-4.751,-4.6804,-4.5481,-4.4593,-4.3974,-4.3709,-4.2549,-4.1313,-4.0251,-3.896,-3.7617,-3.6411,-3.5345,-3.45,-3.3897,-3.337,-3.2667,-3.1587,-3.1436,-3.0984,-2.998,-2.9829,-2.9804,-2.9804,-2.9804,-2.9804,-2.9804,-2.9804,-2.9804,-2.9804,-2.9804,-2.9804,-2.9804,-2.9804,-2.9804,-2.9804,-2.9804,-2.9729,-5.4952,-5.4865,-5.5732,-5.8105,-6.0735,-6.3342,-6.5592,-6.8225,-7.0497,-7.2006,-7.4897,-7.7834,-8.04,-8.3372,-8.6062,0.0,-8.8349,-8.8719,-8.8984,-8.7718,-8.6739,-8.6448,-8.6216,-8.6768,-8.8539,-8.9293,-8.999,-9.0774,-9.1064,-9.1383,-9.1761,-9.186,-9.163,-9.0957,-9.0718,-8.9778,-8.8061,-8.7417,-8.6138,-8.4068,-8.3081,-8.1601,-7.9685,-7.8814,-7.742,-7.565,-7.4488,-7.3618,-7.2979,-7.234,-7.1528,-7.057,-6.9205,-6.7725,-6.6186,-6.4909,-6.3864,-6.2935,-6.1919,-6.1396,-6.1135,-6.0729,-6.0032,-5.9161,-5.8377,-5.7042,-5.5707,-5.5068,-5.4168,-5.3123,-5.1933,-5.1352,-5.0511,-4.8304,-4.7452,-4.6728,-4.5395,-4.4537,-4.3926,-4.3662,-4.2801,-4.1668,-4.0235,-3.9151,-3.8009,-3.6743,-3.5739,-3.4831,-3.4022,-3.3696,-3.2993,-3.1537,-3.111,-3.0633,-2.9854,-2.9804,-2.9804,-2.9804,-2.9804,-2.9804,-2.9804,-2.9804,-2.9804,-2.9804,-2.9804,-2.9804,-2.9804,-2.9804,-2.9804,-2.9804,-2.9804,-2.9804,-5.5991,-5.6974,-5.8925,-6.1821,-6.5081,-6.8282,-7.0896,-7.3645,-7.608,-7.7445,-7.966,-8.2017,-8.3884,-8.6038,-8.7914,-8.9008,-8.9127,-8.9091,-8.9268,-8.742,-8.5897,-8.5549,-8.4184,-8.401,-8.5897,-8.7464,-8.8829,-8.9932,-9.0338,-9.0745,-9.1209,-9.1336,-9.1045,-9.0284,-9.0158,-8.9271,-8.7388,-8.6569,-8.5267,-8.3546,-8.2268,-8.0759,-7.9017,-7.8059,-7.6491,-7.4488,-7.3879,-7.3124,-7.2311,-7.1847,-7.1092,-7.0047,-6.8479,-6.697,-6.5519,-6.4241,-6.337,-6.2674,-6.1571,-6.1193,-6.1077,-6.0409,-5.98,-5.9045,-5.771,-5.6403,-5.5271,-5.4691,-5.3704,-5.2659,-5.1817,-5.1294,-5.0452,-4.8508,-4.7615,-4.688,-4.5624,-4.4696,-4.3974,-4.3566,-4.297,-4.1994,-4.0329,-3.934,-3.8344,-3.7042,-3.62,-3.5378,-3.4274,-3.3721,-3.2968,-3.1738,-3.1009,-3.0457,-3.0055,-2.988,-2.9804,-2.9804,-2.9804,-2.9804,-2.9804,-2.9804,-2.9804,-2.9804,-2.9804,-2.9804,-2.9804,-2.9804,-2.9804,-2.9804,-2.9804,-2.9804,-5.8539,0.0,-6.3591,-6.628,-6.9854,-7.3398,-7.5998,-7.808,-7.991,-8.1208,-8.1957,-8.3234,-8.5584,-8.608,-8.6925,-8.927,-8.8938,-8.856,-8.9209,-8.742,-8.5578,-8.43,-8.2442,-8.131,0.0,-8.4823,-8.7319,-8.7958,-8.9148,-8.9845,-8.9874,-9.0722,-9.0689,-8.967,-8.985,-8.896,-8.6744,-8.5486,-8.3955,-8.2239,-8.0962,-7.9685,-7.8378,-7.6462,-7.5214,-7.4518,-7.3879,-7.2892,-7.1702,-7.1673,-7.057,-6.8828,-6.8131,-6.6709,-6.4851,-6.3603,-6.2703,-6.2035,-6.1425,-6.1193,-6.1077,-6.0409,-5.98,-5.9045,-5.771,-5.6403,-5.5271,-5.4691,-5.4023,-5.3181,-5.1933,-5.1614,-5.1091,-4.9175,-4.8027,-4.7156,-4.6271,-4.5176,-4.4162,-4.3451,-4.29,-4.2003,-4.0366,-3.9404,-3.8449,-3.7333,-3.6732,-3.5931,-3.4826,-3.3269,-3.224,-3.219,-3.1235,-3.0608,-3.0583,-3.0105,-2.9804,-2.9804,-2.9804,-2.9804,-2.9804,-2.9804,-2.9804,-2.9804,-2.9804,-2.9804,-2.9804,-2.9804,-2.9804,-2.9804,-2.9804,-2.9804,-6.1173,0.0,-6.7348,-7.1007,-7.4545,-7.772,-7.9842,-8.1532,-8.2629,-8.2629,-8.2729,-8.3121,-8.3824,-8.4212,-8.4947,-8.621,-8.6386,-8.6644,-8.7293,-8.552,-8.3836,-8.2936,-8.1107,0.0,0.0,0.0,0.0,-8.5926,-8.761,-8.8742,-8.9177,-9.0048,-9.0219,-8.9611,-8.9407,-8.828,-8.6042,-8.5194,-8.3663,-8.1514,-7.983,-7.8349,-7.7072,-7.5534,-7.4518,-7.3908,-7.324,-7.2456,-7.1644,-7.1208,-7.0163,-6.8712,-6.7638,-6.6041,-6.4241,-6.3399,-6.2412,-6.1454,-6.128,-6.1193,-6.1019,-5.9945,-5.948,-5.89,-5.6723,-5.5736,-5.5184,-5.4139,-5.3384,-5.2688,-5.1846,-5.1294,-5.0598,-4.9088,-4.7913,-4.6995,-4.6252,-4.5035,-4.3974,-4.3403,-4.2728,-4.1807,-4.0343,-3.9208,-3.8104,-3.688,-3.6157,-3.5554,-3.4826,-3.3922,-3.3043,-3.229,-3.1562,-3.0984,-3.0633,-3.0105,-2.9804,-2.9804,-2.9804,-2.9804,-2.9804,-2.9804,-2.9804,-2.9804,-2.9804,-2.9804,-2.9804,-2.9804,-2.9804,-2.9804,-2.9804,-2.9804,0.0,-6.8393,-7.209,-7.5746,-7.8976,-8.157,-8.2776,-8.355,-8.3669,-8.2537,-8.1554,-8.0765,-8.0434,-8.0644,-8.1452,-8.3068,-8.4052,-8.5119,-8.6556,-8.5082,-8.3633,-8.2965,-8.0759,-7.9307,0.0,0.0,0.0,-8.4242,-8.6187,-8.7523,-8.8161,-8.9085,-8.9286,-8.8651,-8.8363,-8.7186,-8.5121,-8.4275,-8.2678,-8.0178,-7.8524,-7.7159,-7.6085,-7.4779,-7.3995,-7.356,-7.266,-7.1905,-7.1266,-7.0395,-6.9292,-6.8015,-6.697,-6.5373,-6.3661,-6.3225,-6.2296,-6.1193,-6.1193,-6.1193,-6.099,-5.9713,-5.9306,-5.8871,-5.649,-5.5591,-5.5184,-5.4168,-5.3413,-5.2746,-5.2136,-5.1447,-5.0593,-4.9522,-4.8307,-4.7195,-4.6329,-4.5203,-4.4034,-4.3046,-4.2387,-4.1565,-4.0304,-3.9065,-3.7909,-3.6832,-3.6182,-3.5554,-3.4826,-3.4248,-3.3545,-3.2616,-3.2014,-3.1562,-3.121,-3.0683,-3.0281,-3.0105,-3.008,-3.0005,-2.9804,-2.9804,-2.9804,-2.9804,-2.9804,-2.9804,-2.9804,-2.9804,-2.9804,-2.9804,-2.9804,-2.9804,-6.9293,-7.3673,-7.7771,-8.0405,-8.2888,-8.4684,-8.4624,-8.3995,-8.2858,-8.0823,-7.825,-7.6185,0.0,0.0,-7.6574,-7.9896,-8.2006,-8.4147,-8.6768,-8.5988,-8.4852,0.0,0.0,0.0,0.0,0.0,0.0,-8.2965,0.0,-8.6274,-8.6884,-8.7951,-8.8124,-8.7,-8.6726,-8.5734,-8.4068,-8.2704,-8.0817,-7.8378,-7.7072,-7.6114,-7.5417,-7.4169,-7.3589,-7.3443,-7.2195,-7.1295,-7.057,-6.935,-6.8044,-6.6825,-6.6186,-6.4764,-6.308,-6.308,-6.2296,-6.1193,-6.1193,-6.1193,-6.099,-5.9713,-5.9306,-5.8929,-5.6984,-5.5939,-5.5271,-5.4691,-5.4023,-5.3355,-5.2746,-5.1873,-5.1033,-5.045,-4.905,-4.7543,-4.651,-4.5476,-4.4284,-4.2445,-4.1845,-4.1272,-4.0236,-3.8944,-3.7839,-3.7287,-3.6782,-3.6053,-3.4901,-3.4274,-3.3721,-3.3212,-3.2566,-3.2215,-3.2215,-3.1712,-3.1185,-3.0683,-3.0658,-3.0407,-2.9854,-2.9829,-2.9829,-2.9804,-2.9804,-2.9804,-2.9804,-2.9804,-2.9804,-2.9804,-2.9804,-2.9804,-7.4149,-7.8218,-8.1751,-8.3906,-8.4594,-8.4444,-8.3487,-8.1212,-7.8489,-7.5527,-7.2415,-6.9871,0.0,0.0,0.0,-7.5048,-7.8389,0.0,-8.4728,-8.514,0.0,-8.4155,0.0,-8.1804,-8.0817,-8.1165,0.0,0.0,-8.4242,-8.5607,-8.6245,-8.7309,-8.7657,-8.7,-8.5851,-8.4737,-8.3429,-8.1165,-7.9481,-7.8378,-7.7072,-7.5853,-7.475,-7.3966,-7.3095,-7.2137,-7.1818,-7.1034,-6.996,-6.9147,-6.8044,-6.6825,-6.6186,-6.4764,-6.308,-6.308,-6.2296,-6.1193,-6.1193,-6.1193,-6.099,-5.9713,-5.9306,-5.8929,-5.6984,-5.5939,-5.5271,-5.4691,-5.4023,-5.3355,-5.2746,-5.1873,-5.1033,-5.045,-4.8831,-4.713,-4.6168,-4.482,-4.3382,-4.205,-4.1097,-4.0236,-3.9348,-3.8894,-3.8316,-3.7337,-3.7061,-3.6584,-3.5433,-3.4806,-3.4299,-3.3746,-3.2817,-3.2215,-3.2215,-3.1712,-3.1336,-3.121,-3.1185,-3.0959,-3.0432,-3.0407,-3.0206,-2.9804,-2.9804,-2.9804,-2.9804,-2.9804,-2.9804,-2.9804,-2.9804,-2.9804,-7.8493,-8.2031,-8.4743,-8.5851,-8.5192,-8.3726,-8.1512,-7.8011,-7.421,-7.062,-6.7029,0.0,-6.3169,-6.4306,0.0,0.0,0.0,0.0,-8.4235,-8.5491,-8.5781,0.0,-8.4562,0.0,-8.2965,-8.2965,-8.3139,0.0,-8.4474,-8.5374,-8.6013,-8.6877,-8.711,-8.6565,-8.5218,-8.3646,-8.1949,-7.9917,-7.8582,-7.7943,-7.6346,-7.5214,-7.4488,-7.3589,-7.2631,-7.1644,0.0,-7.0686,-6.967,-6.8479,-6.7551,-6.6796,-6.5867,-6.4532,-6.308,-6.308,-6.2296,-6.1193,-6.1193,-6.1193,-6.099,-5.9713,-5.9306,-5.8987,-5.7303,-5.6142,-5.5329,-5.501,-5.412,-5.3232,-5.2937,-5.1741,-5.0606,-5.0389,-4.8675,-4.6851,-4.609,-4.4633,-4.2953,-4.1304,-4.044,-3.9777,-3.9346,-3.907,-3.8567,-3.7688,-3.7337,-3.6885,-3.6006,-3.5203,-3.45,-3.3947,-3.3119,-3.2591,-3.2591,-3.2315,-3.2014,-3.1763,-3.1763,-3.1512,-3.0984,-3.0959,-3.0809,-3.0507,-3.0256,-3.0156,-3.0156,-2.9905,-2.9804,-2.9804,-2.9804,-2.9804,-8.2319,-8.503,-8.6898,-8.6718,-8.4983,-8.2409,-7.8819,-7.43,-6.9662,-6.5562,0.0,-5.874,-5.8171,-5.9757,-6.3139,-6.9153,0.0,-7.93,-8.4117,-8.5876,-8.6797,-8.6971,-8.61,-8.5432,-8.5345,-8.4823,-8.4678,-8.5171,-8.52,-8.5461,-8.6013,-8.6565,-8.6448,-8.5549,-8.4416,-8.2646,-8.0178,-7.8988,-7.8059,-7.7391,-7.5446,-7.4518,-7.4459,-7.3182,-7.2282,-7.1644,0.0,0.0,-6.9612,-6.7696,-6.6883,-6.6767,-6.5489,-6.4212,-6.308,-6.308,-6.2296,-6.1193,-6.1193,-6.1193,-6.099,-5.98,-5.9364,-5.9074,-5.7826,-5.649,-5.5416,-5.5416,-5.4302,-5.3107,-5.3107,-5.1526,-5.0065,-5.0275,-4.8538,-4.6657,-4.6004,-4.4506,-4.2579,-4.0517,-3.9877,-3.9697,-3.9697,-3.9295,-3.8793,-3.8216,-3.7638,-3.7086,-3.6581,-3.5504,-3.4625,-3.4073,-3.352,-3.3169,-3.3136,-3.3111,-3.2867,-3.2365,-3.2315,-3.2064,-3.1512,-3.1486,-3.1461,-3.1386,-3.0959,-3.0708,-3.0708,-3.0181,-2.9905,-2.9905,-2.9829,-2.9804,-8.5475,-8.7324,-8.8065,-8.6988,-8.3995,-8.0016,-7.5048,-6.9482,0.0,0.0,-5.5149,-5.2725,-5.2606,-5.467,-5.8501,-6.4994,-7.0318,-7.5622,-8.1242,-8.4007,-8.581,0.0,-8.7261,0.0,0.0,0.0,0.0,0.0,0.0,-8.5926,-8.6013,-8.6129,-8.5171,-8.2936,-8.2646,-8.1543,-7.9481,-7.8756,-7.8059,-7.7391,-7.5446,-7.4518,-7.4459,-7.3182,-7.2282,-7.1644,0.0,0.0,-6.9612,-6.7696,-6.6883,-6.6767,-6.5489,-6.4212,-6.308,-6.308,-6.2296,-6.1193,-6.1193,-6.1193,-6.1077,-6.0293,-5.9713,-5.9161,-5.8377,-5.6868,-5.5416,-5.5416,-5.4302,-5.3107,-5.3107,-5.1526,-5.0013,-5.0065,-4.8196,-4.6265,-4.5513,-4.3465,-4.1517,-4.061,-4.005,-3.9697,-3.9697,-3.9622,-3.9371,-3.8818,-3.8241,-3.7663,-3.7111,-3.6081,-3.5157,-3.465,-3.4098,-3.3571,-3.3162,-3.3111,-3.3086,-3.2943,-3.2918,-3.2667,-3.2089,-3.2064,-3.1863,-3.1411,-3.1311,-3.126,-3.126,-3.0733,-3.0482,-3.0457,-3.0005,-2.9804,-8.7446,-8.8606,-8.8723,-8.6689,-8.2679,-7.77,-7.1947,0.0,0.0,-5.4857,-5.1309,-4.9268,-5.0062,-5.2366,-5.6077,-6.2032,-6.7563,-7.2944,-7.8152,-8.1905,0.0,-8.5839,-8.7145,0.0,0.0,0.0,0.0,0.0,0.0,-8.639,-8.6042,-8.5374,-8.4155,-8.2239,-8.1543,-8.0439,-7.8843,-7.8204,-7.7566,-7.6898,-7.5272,-7.4518,-7.4488,-7.3211,-7.2282,-7.1644,-7.1005,0.0,-6.9612,-6.7696,-6.6883,-6.6767,-6.5489,-6.4212,-6.308,-6.308,-6.2296,-6.1193,-6.1193,-6.1193,-6.1077,-6.0409,-5.9653,-5.8841,-5.7858,-5.6358,-5.4924,-5.4924,-5.3732,-5.2411,-5.2411,-5.078,-4.9164,-4.9324,-4.7456,-4.5369,-4.4096,-4.268,-4.1381,-4.0629,-4.0074,-3.9697,-3.9697,-3.9697,-3.9496,-3.8994,-3.8391,-3.7814,-3.7262,-3.6483,-3.5755,-3.5157,-3.465,-3.4098,-3.3545,-3.3495,-3.3395,-3.3136,-3.3111,-3.2943,-3.2667,-3.2667,-3.2541,-3.2265,-3.1964,-3.1813,-3.1813,-3.1286,-3.0884,-3.0608,-3.0357,-3.0055,-8.8413,-8.9195,-8.8783,-8.597,-8.1183,-7.5518,-6.9193,-6.2136,0.0,-5.1754,-4.846,-4.678,-4.8118,-5.0451,-5.3773,-5.883,-6.4188,-6.9361,-7.4103,-7.8663,-8.2233,0.0,0.0,0.0,0.0,0.0,0.0,0.0,0.0,0.0,-8.5868,-8.4591,-8.3371,-8.2239,-8.0962,-7.9685,-7.8407,-7.774,-7.7101,-7.6433,-7.5127,-7.4518,-7.4518,-7.3211,-7.234,-7.1847,-7.1063,0.0,0.0,-6.7754,-6.6883,-6.6767,-6.5489,-6.4212,-6.308,-6.308,-6.2296,-6.1193,-6.1193,-6.1193,-6.1077,-6.0205,-5.942,-5.8609,-5.7427,-5.5821,-5.4426,-5.4482,-5.3074,-5.1623,-5.1677,-4.9968,-4.8191,-4.7975,-4.6409,-4.4537,-4.3092,-4.2341,-4.1676,-4.0855,-4.0249,-3.9823,-3.9722,-3.9697,-3.9546,-3.912,-3.8567,-3.799,-3.7437,-3.6885,-3.6332,-3.578,-3.5182,-3.4675,-3.4123,-3.3972,-3.3721,-3.3294,-3.3144,-3.3111,-3.3111,-3.3111,-3.3111,-3.3111,-3.2616,-3.239,-3.239,-3.1838,-3.1361,-3.0959,-3.0834,-3.0557,-8.8083,-8.8783,-8.8005,-8.4743,-7.9507,-7.3365,-6.6542,0.0,-5.307,-4.887,-4.603,-4.4496,-4.525,-4.7209,-5.0092,-5.4192,-5.8481,-6.3031,-6.7948,-7.324,-7.7636,-8.0381,0.0,0.0,0.0,0.0,0.0,0.0,0.0,0.0,-8.5171,-8.3952,-8.2936,-8.221,-8.0962,-7.9685,-7.8407,-7.774,-7.7101,-7.6433,-7.5127,-7.4518,-7.4459,-7.3182,-7.2573,-7.2456,0.0,0.0,0.0,-6.7928,-6.6883,-6.6767,-6.5489,-6.4212,-6.308,-6.308,-6.2296,-6.1193,-6.1193,-6.1193,-6.093,-5.9419,-5.8868,-5.8695,-5.7945,-5.6051,-5.4203,-5.4426,-5.2798,-5.1072,-5.1293,-4.9773,-4.7761,-4.5869,-4.4863,-4.4177,-4.3496,-4.2899,-4.2258,-4.1379,-4.0774,-4.0275,-3.9772,-3.9697,-3.9672,-3.9622,-3.9145,-3.8592,-3.799,-3.7437,-3.6933,-3.6405,-3.5805,-3.5207,-3.4655,-3.4198,-3.3872,-3.3822,-3.3345,-3.3111,-3.3111,-3.3111,-3.3111,-3.3111,-3.3061,-3.2993,-3.2993,-3.2416,-3.2114,-3.2064,-3.1562,-3.1286,-8.6629,-8.7766,-8.7407,-8.4474,-7.8823,-7.2082,-6.4871,0.0,-5.1042,-4.7019,-4.4507,-4.3307,-4.4246,-4.6096,-4.8492,-5.1332,-5.5381,-5.9599,-6.3736,-6.8994,-7.3745,-7.6985,0.0,0.0,0.0,0.0,0.0,0.0,0.0,0.0,-8.3952,-8.3081,-8.2123,-8.1078,-7.983,-7.8727,-7.7827,-7.7159,-7.6521,-7.5882,-7.4953,-7.4314,-7.3937,-7.3037,-7.2602,-7.2544,0.0,0.0,0.0,-6.7957,-6.6883,-6.6767,-6.5489,-6.4212,-6.308,-6.308,-6.2296,-6.1193,-6.0952,-6.0892,-6.0658,-5.9465,-5.8534,-5.7752,-5.6759,-5.5074,-5.346,-5.3241,-5.1809,-5.0273,-5.0064,-4.8676,-4.6986,-4.5468,-4.4684,-4.4163,-4.3745,-4.2952,-4.2272,-4.1936,-4.1128,-4.045,-4.0224,-3.9923,-3.9697,-3.9697,-3.922,-3.8844,-3.8567,-3.804,-3.7462,-3.6958,-3.6358,-3.5805,-3.5232,-3.4981,-3.4751,-3.4424,-3.3872,-3.3571,-3.3571,-3.3244,-3.3111,-3.3111,-3.3111,-3.3111,-3.3111,-3.2842,-3.2541,-3.2215,-3.1989,-3.1712,-8.3337,-8.5132,-8.5312,-8.2649,-7.6931,-7.0165,0.0,0.0,-4.9501,-4.5828,-4.3696,-4.262,-4.3389,-4.5094,-4.7048,-4.894,-5.2643,-5.6479,-5.9903,-6.5169,-6.9971,0.0,0.0,0.0,0.0,0.0,0.0,0.0,0.0,0.0,0.0,-8.2094,-8.1223,-8.0323,-7.9075,-7.8088,-7.742,-7.6579,-7.594,-7.5504,-7.4663,-7.4024,-7.3589,-7.2921,-7.2515,-7.2282,0.0,0.0,0.0,-6.787,-6.6883,-6.6738,-6.5286,-6.4038,-6.308,-6.2877,-6.2122,-6.1133,-6.0802,-6.0681,-6.0474,-5.9208,-5.801,-5.6824,-5.5344,-5.3924,-5.2766,-5.2357,-5.0949,-4.9493,-4.8863,-4.7626,-4.6283,-4.5436,-4.4814,-4.4301,-4.3897,-4.3187,-4.259,-4.2263,-4.153,-4.0953,-4.0802,-4.03,-3.9948,-3.9948,-3.9471,-3.9095,-3.8944,-3.8517,-3.804,-3.7487,-3.6935,-3.6383,-3.583,-3.5583,-3.5332,-3.4956,-3.4449,-3.4148,-3.4148,-3.3771,-3.3571,-3.3571,-3.3395,-3.3319,-3.3319,-3.3169,-3.2867,-3.2466,-3.2466,-3.2164,-7.7981,-8.0315,-8.1212,-7.8519,-7.32,-6.7014,-6.0842,-5.4112,-4.8419,-4.552,-4.3539,-4.2392,-4.2392,-4.382,-4.5446,-4.6783,-4.9984,-5.3316,-5.6235,-6.1437,0.0,0.0,0.0,0.0,0.0,0.0,0.0,0.0,0.0,0.0,0.0,-8.0991,-8.0323,-8.0294,-7.9075,-7.8088,-7.742,-7.6143,-7.5534,-7.5504,-7.4227,-7.3618,-7.3589,-7.2921,-7.2282,0.0,0.0,0.0,0.0,-6.7696,-6.6883,-6.668,-6.4793,-6.3661,-6.3022,-6.2354,-6.1716,-6.1133,-6.0802,-6.0681,-6.0384,-5.8385,-5.7154,-5.6053,-5.4038,-5.2861,-5.2191,-5.2137,-5.0618,-4.8797,-4.787,-4.6755,-4.5826,-4.5531,-4.5045,-4.4468,-4.3915,-4.379,-4.3463,-4.2414,-4.2213,-4.1957,-4.1376,-4.0877,-4.0501,-4.0501,-4.0049,-3.9496,-3.8994,-3.8919,-3.8642,-3.8065,-3.7513,-3.696,-3.6455,-3.5855,-3.5508,-3.5483,-3.4981,-3.468,-3.468,-3.47,-3.4655,-3.4655,-3.4173,-3.3897,-3.3897,-3.3345,-3.3111,-3.3111,-3.3111,-3.2767,-7.2265,-7.454,-7.5219,-7.3282,-6.8793,-6.3446,-5.7727,-5.2134,-4.7486,-4.4836,-4.3193,-4.2257,-4.2351,-4.3696,-4.5276,-4.6753,-4.9566,-5.2748,0.0,0.0,0.0,0.0,0.0,0.0,0.0,0.0,0.0,0.0,0.0,0.0,0.0,-8.0091,-7.9423,-7.9017,-7.8175,-7.742,-7.6753,-7.594,-7.5272,-7.4808,-7.3995,-7.3385,-7.2921,-7.2718,0.0,0.0,0.0,0.0,0.0,-6.7696,-6.6883,-6.668,-6.4793,-6.3506,-6.2683,-6.1986,-6.1228,-6.0438,-5.9887,-5.9516,-5.9114,-5.7732,-5.6505,-5.531,-5.3768,-5.2602,-5.154,-5.0468,-4.9132,-4.7956,-4.7349,-4.6698,-4.6169,-4.605,-4.5623,-4.5171,-4.4995,-4.4342,-4.3689,-4.3338,-4.2715,-4.2162,-4.1932,-4.1455,-4.0899,-4.0576,-4.0375,-4.0049,-3.9496,-3.9421,-3.922,-3.8668,-3.8442,-3.8014,-3.7059,-3.6433,-3.6107,-3.6107,-3.5579,-3.5232,-3.5232,-3.4881,-3.468,-3.468,-3.455,-3.4274,-3.3897,-3.3721,-3.3445,-3.3111,-3.3111,-3.2993,-6.5114,-6.7565,-6.8193,-6.7108,-6.3506,-5.9047,-5.4273,-4.9999,-4.6417,-4.4095,-4.2789,-4.2133,-4.2228,-4.3642,-4.5191,-4.6592,-4.9312,0.0,0.0,0.0,0.0,0.0,0.0,0.0,0.0,0.0,0.0,0.0,0.0,0.0,0.0,-7.9452,-7.8669,-7.8059,-7.7624,-7.6985,-7.6114,-7.5446,-7.4808,-7.4169,-7.3531,-7.3008,-7.2602,-7.2602,0.0,0.0,0.0,0.0,0.0,-6.7492,-6.6738,-6.6331,-6.4415,-6.3241,-6.2467,-6.1603,-6.0692,-5.992,-5.9392,-5.8829,-5.8107,-5.7082,-5.548,-5.3739,-5.2712,-5.1781,-5.079,-4.9761,-4.8749,-4.7929,-4.7543,-4.7029,-4.6577,-4.6351,-4.605,-4.5748,-4.5522,-4.492,-4.4317,-4.389,-4.3237,-4.2766,-4.2564,-4.2007,-4.153,-4.1178,-4.0777,-4.04,-4.0049,-3.9823,-3.9572,-3.922,-3.9045,-3.8642,-3.7889,-3.7159,-3.6631,-3.643,-3.6031,-3.5855,-3.5855,-3.5529,-3.5353,-3.5353,-3.5127,-3.4831,-3.4525,-3.4098,-3.3721,-3.3395,-3.3169,-3.3111,0.0,-5.9598,-6.0424,-6.0146,-5.7552,-5.4156,-5.0759,-4.7812,0.0,-4.3369,-4.2557,-4.215,-4.215,-4.3575,-4.5178,-4.6447,-4.925,0.0,0.0,0.0,0.0,0.0,0.0,0.0,0.0,0.0,0.0,0.0,0.0,0.0,0.0,-7.8988,-7.8001,-7.7304,-7.7275,-7.6695,-7.5534,-7.4808,-7.4169,-7.3618,-7.295,-7.2602,-7.2602,-7.2573,0.0,0.0,0.0,0.0,0.0,-6.7173,-6.6506,-6.5751,-6.3835,-6.2894,-6.2409,-6.1081,-6.0194,-5.955,-5.9205,-5.836,-5.7285,-5.6236,-5.3999,-5.1677,-5.1104,-5.0521,-5.0001,-4.9654,-4.9188,-4.8661,-4.8109,-4.7556,-4.6943,-4.6502,-4.6326,-4.6175,-4.5648,-4.5522,-4.5171,-4.4116,-4.3865,-4.3639,-4.3112,-4.264,-4.2263,-4.2213,-4.1279,-4.0601,-4.0526,-4.0074,-3.9747,-3.9697,-3.922,-3.8969,-3.8919,-3.7864,-3.701,-3.6505,-3.6455,-3.6455,-3.6405,-3.6405,-3.6405,-3.6405,-3.583,-3.5508,-3.5508,-3.4424,-3.3897,-3.3897,-3.3345,-3.3111,-4.871,0.0,-5.445,-5.4193,-5.2738,-5.071,0.0,-4.6318,-4.4705,-4.3282,-4.2876,-4.2789,-4.2789,-4.419,-4.5827,-4.7155,0.0,0.0,0.0,0.0,0.0,0.0,0.0,0.0,0.0,0.0,0.0,0.0,0.0,0.0,0.0,-7.8088,-7.713,-7.5998,-7.5969,-7.5824,-7.5504,-7.4401,-7.3763,-7.3618,-7.295,-7.2602,-7.2602,-7.2108,0.0,0.0,0.0,0.0,-6.7841,-6.7173,-6.6506,-6.5751,-6.3835,-6.2769,-6.2034,-6.0499,-5.9363,-5.8451,-5.788,-5.6952,-5.5881,-5.4537,-5.2919,-5.138,-5.1254,-5.0524,-4.9719,-4.959,-4.9188,-4.8736,-4.8611,-4.7857,-4.7043,-4.6979,-4.6627,-4.6276,-4.615,-4.5773,-4.5422,-4.5146,-4.4392,-4.3765,-4.3639,-4.3162,-4.269,-4.2263,-4.1986,-4.148,-4.0626,-4.04,-4.0149,-3.9747,-3.9572,-3.932,-3.8944,-3.8216,-3.7588,-3.7036,-3.6985,-3.6857,-3.643,-3.6405,-3.6405,-3.6405,-3.583,-3.5508,-3.5508,-3.4424,-3.3897,-3.3897,-3.3345,-3.3111,-4.539,-4.7473,-4.9439,-4.9791,-4.908,-4.7817,-4.594,-4.4966,-4.4124,-4.2847,-4.2789,-4.2992,-4.2992,-4.4658,-4.6624,-4.8217,-5.0798,0.0,0.0,0.0,0.0,0.0,0.0,0.0,0.0,0.0,0.0,0.0,0.0,0.0,0.0,-7.7769,-7.6811,-7.5563,-7.5214,-7.4924,-7.4634,-7.3966,-7.3472,-7.3153,-7.2776,-7.2456,-7.2166,-7.1818,0.0,0.0,0.0,0.0,-6.7376,-6.6709,-6.5896,-6.4938,-6.3603,-6.2534,-6.1508,-6.0166,-5.8864,-5.7597,-5.7109,-5.6039,-5.466,-5.3309,-5.2178,-5.1222,-5.0971,-5.0268,-4.959,-4.959,-4.9389,-4.9088,-4.8837,-4.8134,-4.7431,-4.7143,-4.6702,-4.6301,-4.6301,-4.6075,-4.5799,-4.5547,-4.4769,-4.4091,-4.384,-4.3338,-4.2886,-4.264,-4.2363,-4.1986,-4.1354,-4.1053,-4.0676,-4.0124,-4.0074,-3.9848,-3.9295,-3.8969,-3.8442,-3.7613,-3.7563,-3.7312,-3.6807,-3.6782,-3.6656,-3.6405,-3.6081,-3.5906,-3.5906,-3.5077,-3.4605,-3.465,-3.4098,-3.3696,-4.4705,-4.5274,-4.5918,-4.7014,-4.6794,-4.5915,-4.4603,-4.4211,-4.3805,-4.2615,-4.2934,-4.3456,-4.3573,-4.5537,-4.7893,0.0,0.0,0.0,0.0,0.0,0.0,0.0,0.0,0.0,0.0,0.0,0.0,0.0,0.0,0.0,0.0,-7.7537,0.0,-7.5388,-7.4721,-7.4082,-7.3472,-7.3472,-7.3182,-7.2602,-7.2515,-7.2195,-7.1673,-7.1469,-7.0744,0.0,0.0,0.0,-6.668,-6.6041,-6.5112,-6.3888,-6.3225,-6.2154,-6.096,-5.9962,-5.8522,-5.6952,-5.6367,-5.518,-5.3716,-5.2581,-5.185,-5.1297,-5.072,-5.0167,-4.9715,-4.9615,-4.959,-4.949,-4.9012,-4.846,-4.7908,-4.738,-4.6828,-4.6401,-4.6326,-4.6301,-4.6175,-4.5698,-4.5146,-4.4568,-4.4016,-4.3463,-4.3062,-4.2986,-4.264,-4.2313,-4.2213,-4.1756,-4.1254,-4.0701,-4.0576,-4.0325,-3.9848,-3.9747,-3.9295,-3.8316,-3.8191,-3.7889,-3.7337,-3.7236,-3.7008,-3.6531,-3.6455,-3.6405,-3.6405,-3.5805,-3.5508,-3.5483,-3.4931,-3.4474,-4.456,-4.5374,-4.6175,-4.741,-4.7189,-4.6521,-4.5779,-4.514,-4.456,-4.3834,-4.4618,-4.5605,-4.6127,-4.8231,-5.0725,0.0,0.0,0.0,0.0,0.0,0.0,0.0,0.0,0.0,0.0,0.0,0.0,0.0,0.0,0.0,0.0,0.0,0.0,-7.4692,-7.4082,-7.3443,-7.2776,-7.2776,-7.2718,-7.2602,-7.2079,-7.176,-7.1644,-7.0541,-6.967,0.0,0.0,-6.7289,-6.6041,-6.5402,-6.4706,-6.3859,-6.2703,-6.1751,-6.096,-5.9714,-5.8206,-5.6405,-5.4578,-5.3819,-5.3452,-5.2966,-5.2427,-5.1875,-5.1322,-5.0745,-5.0193,-4.9715,-4.959,-4.9565,-4.949,-4.9063,-4.8485,-4.7933,-4.738,-4.6878,-4.6401,-4.6301,-4.6276,-4.62,-4.5748,-4.5171,-4.4593,-4.4041,-4.3514,-4.3062,-4.2911,-4.274,-4.2263,-4.2137,-4.1831,-4.1225,-4.0802,-4.0475,-4.04,-3.9973,-3.9622,-3.9446,-3.8994,-3.8492,-3.7889,-3.7437,-3.7136,-3.7061,-3.6656,-3.6405,-3.6405,-3.5805,-3.5508,-3.5483,-3.4931,-3.4675,-4.4647,-4.5866,-4.7143,-4.8072,-4.7811,-4.7172,-4.6534,-4.6417,-4.6272,-4.5663,-4.6534,-4.7608,-4.8275,-5.0662,-5.4251,-5.9343,0.0,0.0,0.0,0.0,0.0,0.0,0.0,0.0,0.0,0.0,0.0,0.0,0.0,0.0,0.0,0.0,0.0,0.0,-7.3763,-7.3298,-7.2631,-7.2282,-7.2108,-7.2108,-7.1818,-7.1324,-7.0599,-6.9699,-6.8915,-6.8247,0.0,-6.6302,-6.5373,-6.4544,-6.3641,-6.2625,-6.1833,-6.097,-5.9883,-5.8126,-5.6861,-5.5842,-5.4064,-5.3478,-5.3359,-5.2714,-5.2302,-5.2,-5.1448,-5.1096,-5.077,-5.0193,-4.9816,-4.959,-4.959,-4.9188,-4.8711,-4.8435,-4.7732,-4.6993,-4.6803,-4.6527,-4.6301,-4.6301,-4.5874,-4.5397,-4.5121,-4.4367,-4.3714,-4.3463,-4.3162,-4.2886,-4.269,-4.2665,-4.2384,-4.1831,-4.1555,-4.1279,-4.0924,-4.045,-4.0023,-3.9722,-3.917,-3.8793,-3.8492,-3.7939,-3.7487,-3.7186,-3.6935,-3.6707,-3.6405,-3.6107,-3.5981,-3.5981,-3.573,-3.5454,-4.456,-4.5982,-4.7521,-4.8304,-4.8362,-4.8159,-4.7811,-4.8333,-4.8798,-4.8478,-4.9407,-5.054,-5.1352,-5.4439,0.0,-6.5144,0.0,0.0,0.0,0.0,0.0,0.0,0.0,0.0,0.0,0.0,0.0,0.0,0.0,0.0,0.0,0.0,0.0,0.0,-7.3472,-7.3066,-7.2398,-7.1905,-7.1673,-7.1673,-7.1382,-7.0628,-6.9525,-6.8886,-6.816,-6.7376,-6.636,-6.5489,-6.4706,-6.3688,-6.264,-6.1541,-6.1027,-5.9974,-5.8641,-5.6693,-5.5802,-5.5272,-5.3954,-5.3478,-5.3334,-5.2563,-5.2302,-5.2201,-5.1649,-5.1473,-5.1348,-5.077,-5.0318,-4.9941,-4.9665,-4.9289,-4.8937,-4.8812,-4.8134,-4.7481,-4.733,-4.6903,-4.6502,-4.6502,-4.605,-4.5648,-4.5522,-4.4769,-4.4116,-4.384,-4.3438,-4.3112,-4.2986,-4.2986,-4.2811,-4.2439,-4.2288,-4.1932,-4.1326,-4.0774,-4.0325,-3.9923,-3.9371,-3.912,-3.912,-3.8517,-3.7939,-3.7387,-3.7236,-3.6958,-3.6405,-3.6405,-3.6405,-3.6405,-3.6405,-3.6132,-4.4037,-4.5024,-4.633,-4.755,-4.8711,-4.9727,-5.0278,-5.1403,-5.2368,-5.292,-5.4052,-5.53,-5.6549,-6.0911,-6.549,-6.909,0.0,0.0,0.0,0.0,0.0,0.0,0.0,0.0,0.0,0.0,0.0,0.0,0.0,0.0,0.0,0.0,0.0,0.0,0.0,-7.2398,-7.1731,-7.1702,-7.1673,-7.1673,-7.0482,-6.9554,-6.8886,-6.8247,-6.726,-6.607,-6.5918,-6.5164,-6.4004,-6.3024,-6.2236,-6.1512,-6.0294,-5.8955,-5.7624,-5.617,-5.5379,-5.4965,-5.3887,-5.3478,-5.341,-5.3017,-5.2879,-5.2754,-5.2226,-5.2051,-5.1925,-5.1373,-5.1197,-5.0921,-4.9866,-4.9565,-4.9414,-4.8887,-4.8711,-4.851,-4.7958,-4.7431,-4.7018,-4.7018,-4.6627,-4.6075,-4.5573,-4.5422,-4.502,-4.3966,-4.3765,-4.3564,-4.3037,-4.2986,-4.2961,-4.2911,-4.2514,-4.1932,-4.1326,-4.0774,-4.0501,-4.045,-3.9948,-3.9647,-3.9647,-3.9094,-3.8542,-3.7965,-3.7437,-3.6958,-3.6405,-3.6405,-3.6405,-3.6405,-3.6405,-3.638,-4.3485,-4.4589,-4.6185,-4.7462,-4.964,-5.1672,-5.231,-5.4371,-5.6432,-5.7448,-5.8668,-5.9946,-6.1322,0.0,-6.8008,0.0,0.0,0.0,0.0,0.0,0.0,0.0,0.0,0.0,0.0,0.0,0.0,0.0,0.0,0.0,0.0,0.0,0.0,0.0,0.0,-7.1905,-7.1673,-7.0889,-7.0308,-6.9902,-6.9815,-6.9234,-6.8218,-6.7551,-6.6767,-6.5896,-6.5019,-6.427,-6.3337,-6.2174,-6.117,-6.0261,-5.8507,-5.7184,-5.6301,-5.5286,-5.4846,-5.4604,-5.3819,-5.3478,-5.341,-5.2998,-5.2929,-5.2879,-5.2678,-5.2628,-5.2503,-5.195,-5.18,-5.1523,-5.0393,-5.0117,-4.9967,-4.9414,-4.9012,-4.8711,-4.8485,-4.8008,-4.7531,-4.7143,-4.6979,-4.6652,-4.61,-4.5723,-4.5347,-4.492,-4.4543,-4.4242,-4.4041,-4.3689,-4.3489,-4.3489,-4.2986,-4.2434,-4.1882,-4.1656,-4.1229,-4.0551,-3.9998,-3.9697,-3.9697,-3.9496,-3.912,-3.8542,-3.8341,-3.7939,-3.7387,-3.7387,-3.7211,-3.6933,-3.6933,-3.6732,-4.2934,-4.4095,-4.5924,-4.7404,-5.0511,-5.3675,-5.5503,-5.8116,-6.0526,-6.2006,-6.3341,-6.4547,-6.5551,-6.7511,0.0,0.0,0.0,0.0,0.0,0.0,0.0,0.0,0.0,0.0,0.0,0.0,0.0,0.0,0.0,0.0,0.0,0.0,0.0,0.0,0.0,-7.1266,-7.1063,-7.0018,-6.9147,-6.8538,-6.8741,-6.8305,-6.726,-6.6796,-6.6128,-6.5222,-6.4352,-6.3545,-6.267,-6.1557,-6.024,-5.8711,-5.7082,-5.5973,-5.5153,-5.4578,-5.4309,-5.4241,-5.3682,-5.3478,-5.341,-5.2998,-5.2929,-5.2929,-5.2929,-5.2929,-5.2854,-5.2477,-5.2377,-5.2151,-5.1197,-5.0695,-5.0318,-4.9941,-4.9439,-4.9038,-4.9038,-4.8586,-4.8083,-4.7732,-4.738,-4.7004,-4.6627,-4.6125,-4.5698,-4.5522,-4.5146,-4.4844,-4.4644,-4.4292,-4.3991,-4.3815,-4.3463,-4.3011,-4.2514,-4.2313,-4.1886,-4.1078,-4.0526,-4.0049,-3.9697,-3.9697,-3.9421,-3.8919,-3.8919,-3.8592,-3.8015,-3.8015,-3.7814,-3.7437,-3.7262,-3.6985,-4.244,-4.3456,-4.5343,-4.7317,-5.1207,-5.5707,-6.0206,-6.2703,-6.4619,-6.6564,-6.7957,-6.8924,-6.9232,-7.0229,0.0,0.0,0.0,0.0,0.0,0.0,0.0,0.0,0.0,0.0,0.0,0.0,0.0,0.0,0.0,0.0,0.0,0.0,0.0,0.0,0.0,0.0,-6.9786,-6.9147,-6.8509,-6.7841,-6.7173,-6.6535,-6.5925,-6.5925,-6.5164,-6.3975,-6.3946,-6.3283,-6.2032,-6.1356,-5.9522,-5.7017,-5.6367,-5.5445,-5.4443,-5.4106,-5.3997,-5.3929,-5.3614,-5.3478,-5.341,-5.2998,-5.2929,-5.2929,-5.2929,-5.2929,-5.2929,-5.2929,-5.2929,-5.2804,-5.2251,-5.1272,-5.0444,-5.0419,-4.9992,-4.9615,-4.959,-4.9163,-4.8786,-4.8761,-4.7883,-4.7093,-4.7068,-4.6677,-4.6125,-4.5573,-4.5497,-4.5296,-4.4719,-4.4644,-4.4418,-4.3865,-4.379,-4.3589,-4.3037,-4.2539,-4.2213,-4.2213,-4.1656,-4.0852,-3.9747,-3.9697,-3.9446,-3.8944,-3.8919,-3.8592,-3.8015,-3.8015,-3.8015,-3.799,-3.7462,-3.7186,-4.244,-4.3456,-4.5576,-4.8449,-5.2514,-5.7129,-6.2064,-6.5025,-6.7667,-7.0947,-7.1557,-7.1278,-7.0721,-7.0926,0.0,0.0,0.0,0.0,0.0,0.0,0.0,0.0,0.0,0.0,0.0,0.0,0.0,0.0,0.0,0.0,0.0,0.0,0.0,0.0,0.0,0.0,-6.9118,-6.8479,-6.7609,-6.6506,-6.5867,-6.546,-6.5257,-6.5257,-6.4434,-6.3029,-6.2505,-6.1977,-6.1265,-5.9689,-5.799,-5.6275,-5.5353,-5.4309,-5.3384,-5.3247,-5.3247,-5.3204,-5.3136,-5.3067,-5.3067,-5.2929,-5.2929,-5.2929,-5.2929,-5.2929,-5.2929,-5.2929,-5.2929,-5.2879,-5.2729,-5.2151,-5.1398,-5.0594,-5.0293,-5.0067,-4.9665,-4.9464,-4.9238,-4.8837,-4.8184,-4.7556,-4.7205,-4.6677,-4.625,-4.61,-4.6075,-4.5874,-4.5296,-4.5221,-4.502,-4.4443,-4.4041,-4.374,-4.3564,-4.3062,-4.2615,-4.2238,-4.2062,-4.143,-4.0325,-4.0275,-4.0023,-3.9471,-3.9446,-3.9371,-3.9195,-3.9195,-3.8994,-3.8617,-3.8442,-3.814,-4.2992,-4.4414,-4.6882,-5.0365,-5.4807,-5.9916,-6.6041,-6.8857,-7.1034,-7.4111,-7.4024,-7.3138,-7.2332,-7.2064,0.0,0.0,0.0,0.0,0.0,0.0,0.0,0.0,0.0,0.0,0.0,0.0,0.0,0.0,0.0,0.0,0.0,0.0,0.0,0.0,0.0,0.0,-6.8044,-6.7434,-6.6709,-6.5925,-6.5025,-6.4473,-6.4241,-6.4241,-6.3473,-6.215,-6.1393,-6.0889,-6.0427,-5.8843,-5.7404,-5.6013,-5.4887,-5.3835,-5.2929,-5.2929,-5.2929,-5.2929,-5.2929,-5.2929,-5.2929,-5.2929,-5.2929,-5.2929,-5.2929,-5.2929,-5.2929,-5.2929,-5.2929,-5.2929,-5.2929,-5.2678,-5.2201,-5.1297,-5.0745,-5.0318,-4.9992,-4.9741,-4.949,-4.9163,-4.8636,-4.8083,-4.7531,-4.7004,-4.6577,-4.6351,-4.6301,-4.6175,-4.5849,-4.5824,-4.5598,-4.502,-4.4669,-4.4392,-4.4141,-4.3614,-4.3162,-4.2891,-4.2665,-4.2082,-4.1204,-4.0752,-4.035,-4.0023,-3.9798,-3.9697,-3.9697,-3.9697,-3.9521,-3.9195,-3.902,-3.8743,-4.3892,-4.5982,-4.8885,-5.2804,-5.7855,-6.3777,-7.0976,-7.3124,-7.4169,-7.6056,0.0,-7.4459,-7.3821,0.0,0.0,0.0,0.0,0.0,0.0,0.0,0.0,0.0,0.0,0.0,0.0,0.0,0.0,0.0,0.0,0.0,0.0,0.0,0.0,0.0,0.0,0.0,-6.6796,-6.6157,-6.5809,0.0,-6.4473,-6.3545,-6.2993,-6.2993,-6.246,-6.1455,-6.0512,-5.9948,-5.9606,-5.8515,-5.734,-5.6013,-5.4887,-5.3835,-5.2929,-5.2929,-5.2929,-5.2929,-5.2929,-5.2929,-5.2929,-5.2929,-5.2929,-5.2929,-5.2929,-5.2929,-5.2929,-5.2929,-5.2929,-5.2929,-5.2929,-5.2879,-5.2729,-5.2226,-5.1272,-5.0469,-5.0368,-4.9941,-4.959,-4.959,-4.9163,-4.8611,-4.8083,-4.7556,-4.7029,-4.6476,-4.6351,-4.6301,-4.6301,-4.6301,-4.6125,-4.5623,-4.5522,-4.5271,-4.4744,-4.4141,-4.379,-4.379,-4.3288,-4.276,-4.2313,-4.1178,-4.0576,-4.0526,-3.9973,-3.9697,-3.9697,-3.9697,-3.9697,-3.9697,-3.917,-3.8994,-4.4458,-4.694,-5.0307,-5.4691,-6.1542,-6.8131,-7.1789,-7.3124,-7.4169,-7.6056,-7.5853,-7.5098,0.0,0.0,0.0,0.0,0.0,0.0,0.0,0.0,0.0,0.0,0.0,0.0,0.0,0.0,0.0,0.0,0.0,0.0,0.0,0.0,0.0,0.0,0.0,-6.6651,-6.6128,-6.5519,-6.4938,0.0,-6.3138,-6.2441,-6.2296,-6.2296,-6.1643,-6.0455,-5.9758,-5.9392,-5.9205,-5.7852,-5.6861,-5.5947,-5.4645,-5.3589,-5.2929,-5.2929,-5.2929,-5.2929,-5.2929,-5.2929,-5.2929,-5.2929,-5.2929,-5.2929,-5.2929,-5.2929,-5.2929,-5.2929,-5.2929,-5.2929,-5.2929,-5.2603,-5.2251,-5.2126,-5.1599,-5.0845,-4.9967,-4.9665,-4.959,-4.959,-4.9163,-4.8736,-4.8611,-4.8109,-4.7556,-4.7029,-4.6602,-4.6301,-4.6301,-4.6301,-4.6276,-4.615,-4.5748,-4.5447,-4.5321,-4.4392,-4.379,-4.379,-4.3288,-4.2936,-4.2811,-4.1756,-4.0899,-4.0526,-3.9973,-3.9697,-3.9697,-3.9697,-3.9697,-3.9697,-3.9572,-3.9521,-4.4582,-4.746,-5.1722,-5.9103,-6.5373,-7.0308,-7.2573,-7.3589,-7.4314,-7.533,-7.5243,0.0,0.0,0.0,0.0,0.0,0.0,0.0,0.0,0.0,0.0,0.0,0.0,0.0,0.0,0.0,0.0,0.0,0.0,0.0,0.0,0.0,0.0,0.0,-6.5838,-6.5344,-6.4961,-6.4386,-6.3922,-6.3574,-6.2558,-6.1948,-6.1658,-6.1354,-6.0847,-6.0194,-5.9516,-5.908,-5.8829,-5.7597,-5.6601,-5.5749,-5.4511,-5.3521,-5.2929,-5.2929,-5.2929,-5.2929,-5.2929,-5.2929,-5.2929,-5.2929,-5.2929,-5.2929,-5.2929,-5.2929,-5.2929,-5.2929,-5.2929,-5.2929,-5.2929,-5.2528,-5.2051,-5.1774,-5.1272,-5.072,-5.0117,-4.9791,-4.959,-4.959,-4.9364,-4.9088,-4.8812,-4.8083,-4.7431,-4.7118,-4.6652,-4.6301,-4.6301,-4.6301,-4.6301,-4.6301,-4.605,-4.5874,-4.5874,-4.5095,-4.4493,-4.4217,-4.3689,-4.3263,-4.2986,-4.2183,-4.148,-4.0874,-4.0099,-3.9697,-3.9697,-3.9697,-3.9697,-3.9697,-3.9697,-3.9697,-4.4338,-4.8238,-5.3848,-6.325,-6.8015,-7.086,-7.2689,-7.3501,-7.385,-7.385,0.0,0.0,0.0,0.0,0.0,0.0,0.0,0.0,0.0,0.0,0.0,0.0,0.0,0.0,0.0,0.0,0.0,0.0,0.0,0.0,0.0,0.0,-6.5722,-6.5606,-6.4473,-6.3864,-6.3864,-6.3225,-6.2906,-6.2906,-6.2238,-6.1687,-6.1193,-6.0499,-6.0194,-6.0071,-5.9392,-5.8892,-5.8515,-5.7468,-5.6497,-5.5485,-5.4443,-5.3521,-5.2929,-5.2929,-5.2929,-5.2929,-5.2929,-5.2929,-5.2929,-5.2929,-5.2929,-5.2929,-5.2929,-5.2929,-5.2929,-5.2929,-5.2929,-5.2929,-5.2929,-5.2452,-5.185,-5.1398,-5.077,-5.0268,-5.0268,-4.9916,-4.959,-4.959,-4.959,-4.9439,-4.8987,-4.8083,-4.738,-4.728,-4.6803,-4.6426,-4.6326,-4.6301,-4.6301,-4.6301,-4.6301,-4.6301,-4.6301,-4.5799,-4.5271,-4.4794,-4.4166,-4.3589,-4.3137,-4.2564,-4.1957,-4.1505,-4.04,-3.9848,-3.9848,-3.9747,-3.9697,-3.9697,-3.9697,-3.9697,-4.3894,-5.0478,-5.8061,-6.3047,-6.6709,-6.9437,-7.0802,0.0,-7.1237,0.0,0.0,0.0,0.0,0.0,0.0,0.0,0.0,0.0,0.0,0.0,0.0,0.0,0.0,0.0,0.0,0.0,0.0,0.0,0.0,0.0,0.0,-6.5548,-6.4851,-6.4236,-6.3603,-6.3225,-6.3225,-6.2558,-6.2238,-6.2209,-6.16,-6.128,-6.1193,-6.0499,-6.0043,-5.9735,-5.908,-5.8578,-5.8198,-5.7082,-5.6236,-5.5485,-5.4443,-5.3521,-5.2929,-5.2929,-5.2929,-5.2929,-5.2929,-5.2929,-5.2929,-5.2929,-5.2929,-5.2929,-5.2929,-5.2929,-5.2929,-5.2929,-5.2929,-5.2929,-5.2929,-5.2176,-5.1373,-5.1297,-5.0469,-4.9715,-4.9715,-4.964,-4.959,-4.959,-4.959,-4.9565,-4.949,-4.8962,-4.8385,-4.7883,-4.7355,-4.6853,-4.6376,-4.6301,-4.6301,-4.6301,-4.6301,-4.6301,-4.6301,-4.5799,-4.5447,-4.5372,-4.4392,-4.3765,-4.3689,-4.2766,-4.2162,-4.2112,-4.0978,-4.04,-4.04,-3.9923,-3.9697,-3.9697,-3.9697,-3.9697,-4.4892,-5.0599,-5.6621,-6.1276,-6.4851,-6.7551,-6.8828,-6.9408,-6.967,0.0,0.0,0.0,0.0,0.0,0.0,0.0,0.0,0.0,0.0,0.0,0.0,0.0,0.0,0.0,0.0,0.0,0.0,0.0,0.0,0.0,-6.4845,-6.427,-6.3806,-6.3516,-6.2877,-6.2529,-6.2529,-6.189,-6.16,-6.16,-6.1338,-6.1193,-6.1193,-6.0499,-5.992,-5.9363,-5.8704,-5.8007,-5.7275,-5.6563,-5.5776,-5.4887,-5.4241,-5.3521,-5.2929,-5.2929,-5.2929,-5.2929,-5.2929,-5.2929,-5.2929,-5.2929,-5.2929,-5.2929,-5.2929,-5.2929,-5.2929,-5.2929,-5.2929,-5.2929,-5.2929,-5.2101,-5.1272,-5.1272,-5.0419,-4.959,-4.959,-4.959,-4.959,-4.959,-4.959,-4.959,-4.959,-4.9138,-4.8686,-4.8435,-4.7933,-4.7481,-4.723,-4.7205,-4.7104,-4.6803,-4.6778,-4.6652,-4.6326,-4.6075,-4.5824,-4.5497,-4.502,-4.4468,-4.384,-4.3338,-4.2992,-4.2665,-4.153,-4.0924,-4.0924,-4.0727,-4.0626,-4.0626,-4.0626,-4.045,-4.4961,-4.9302,-5.3729,-5.8234,-6.1855,-6.4787,0.0,0.0,0.0,0.0,0.0,0.0,0.0,0.0,0.0,0.0,0.0,0.0,0.0,0.0,0.0,0.0,0.0,0.0,0.0,0.0,0.0,0.0,0.0,0.0,-6.3835,-6.3196,-6.2848,-6.2848,-6.2209,-6.1861,-6.1861,-6.1425,-6.1193,-6.1193,-6.1193,-6.1193,-6.1193,-6.0499,-5.9735,-5.8899,-5.8234,-5.734,-5.6301,-5.5842,-5.518,-5.4309,-5.3997,-5.3452,-5.2929,-5.2929,-5.2929,-5.2929,-5.2929,-5.2929,-5.2929,-5.2929,-5.2929,-5.2929,-5.2929,-5.2929,-5.2929,-5.2929,-5.2929,-5.2929,-5.2929,-5.2101,-5.1272,-5.1272,-5.0419,-4.959,-4.959,-4.959,-4.959,-4.959,-4.959,-4.959,-4.959,-4.9264,-4.8937,-4.8786,-4.841,-4.8083,-4.7933,-4.7908,-4.7757,-4.738,-4.7143,-4.6979,-4.6552,-4.6401,-4.6125,-4.5723,-4.5573,-4.5121,-4.4267,-4.4091,-4.3815,-4.3413,-4.2459,-4.1831,-4.1555,-4.1351,-4.1275,-4.1275,-4.1275,-4.1075,-4.2745,-4.6443,-5.0577,-5.3712,-5.7311,-6.069,0.0,0.0,0.0,0.0,0.0,0.0,0.0,0.0,0.0,0.0,0.0,0.0,0.0,0.0,0.0,0.0,0.0,0.0,0.0,0.0,0.0,0.0,0.0,0.0,-6.3138,-6.2499,-6.2151,-6.2151,-6.1542,-6.1251,-6.1251,-6.1222,-6.1193,-6.1193,-6.1193,-6.1193,-6.1193,-6.0499,-5.9459,-5.8115,-5.7441,-5.6563,-5.5604,-5.4913,-5.4376,-5.3997,-5.3682,-5.3273,-5.2929,-5.2929,-5.2929,-5.2929,-5.2929,-5.2929,-5.2929,-5.2929,-5.2929,-5.2929,-5.2929,-5.2929,-5.2929,-5.2929,-5.2929,-5.2929,-5.2929,-5.2101,-5.1272,-5.1272,-5.0419,-4.959,-4.959,-4.959,-4.959,-4.959,-4.959,-4.959,-4.959,-4.9565,-4.9364,-4.8862,-4.8736,-4.8535,-4.7983,-4.7908,-4.7908,-4.7883,-4.7431,-4.7068,-4.7043,-4.6602,-4.6301,-4.6276,-4.5773,-4.5472,-4.5397,-4.4869,-4.4568,-4.4543,-4.3966,-4.3162,-4.2162,-4.1605,-4.1275,-4.1275,-4.1275,-4.1275,-4.091,-4.3403,-4.6361,-4.9801,-5.2848,-5.5764,-5.8523,0.0,0.0,0.0,0.0,0.0,0.0,0.0,0.0,0.0,0.0,0.0,0.0,0.0,0.0,0.0,0.0,0.0,0.0,0.0,0.0,0.0,0.0,0.0,-6.189,-6.1658,-6.1513,-6.1513,-6.1309,-6.1193,-6.1193,-6.0758,-6.0555,-6.0555,-6.0555,-6.0435,-6.0256,-5.9994,-5.9086,-5.7706,-5.6601,-5.5617,-5.4846,-5.4376,-5.3997,-5.3682,-5.3546,-5.3273,-5.2929,-5.2929,-5.2929,-5.2929,-5.2929,-5.2929,-5.2929,-5.2929,-5.2929,-5.2929,-5.2929,-5.2929,-5.2929,-5.2929,-5.2929,-5.2929,-5.2929,-5.2101,-5.1096,-5.0368,-4.9891,-4.959,-4.959,-4.959,-4.959,-4.959,-4.959,-4.959,-4.959,-4.959,-4.9515,-4.9339,-4.9289,-4.9238,-4.9012,-4.8987,-4.8862,-4.851,-4.7958,-4.7481,-4.7093,-4.6627,-4.6301,-4.6301,-4.6125,-4.5849,-4.5497,-4.5296,-4.4995,-4.4644,-4.4418,-4.3966,-4.3212,-4.266,-4.2384,-4.2384,-4.2384,-4.2208,-3.9799,-4.1446,-4.3491,-4.6163,-4.8793,-5.1331,-5.3901,0.0,0.0,0.0,0.0,0.0,0.0,0.0,0.0,0.0,0.0,0.0,0.0,0.0,0.0,0.0,0.0,0.0,0.0,0.0,0.0,0.0,0.0,0.0,-6.1222,-6.1193,-6.1106,-6.0874,-6.0671,-6.0555,-6.0555,-6.0119,-5.9887,-5.9887,-5.9887,-5.971,-5.9414,-5.9383,-5.8529,-5.705,-5.6064,-5.5087,-5.4309,-5.3861,-5.3521,-5.3273,-5.3273,-5.3136,-5.2929,-5.2929,-5.2929,-5.2929,-5.2929,-5.2929,-5.2929,-5.2929,-5.2929,-5.2929,-5.2929,-5.2929,-5.2929,-5.2929,-5.2929,-5.2929,-5.2929,-5.2101,-5.0996,-4.9866,-4.959,-4.959,-4.959,-4.959,-4.959,-4.959,-4.959,-4.959,-4.959,-4.959,-4.959,-4.959,-4.959,-4.959,-4.959,-4.959,-4.9464,-4.9088,-4.8535,-4.8058,-4.7707,-4.7004,-4.6602,-4.6602,-4.6401,-4.615,-4.5773,-4.5773,-4.5573,-4.5196,-4.4995,-4.4744,-4.4367,-4.3815,-4.3539,-4.3539,-4.3338,-4.2961,0.0,0.0,0.0,-4.2879,0.0,0.0,-4.9092,0.0,0.0,0.0,0.0,0.0,0.0,0.0,0.0,0.0,0.0,0.0,0.0,0.0,0.0,0.0,0.0,0.0,0.0,0.0,0.0,0.0,0.0,-6.1164,-6.1193,-6.1164,-6.0874,-6.0206,-5.9597,-5.9306,-5.9306,-5.9277,-5.9277,-5.9277,-5.9277,-5.9073,-5.8752,-5.8696,-5.7729,-5.6187,-5.5747,-5.498,-5.3929,-5.3204,-5.2929,-5.2929,-5.2929,-5.2929,-5.2929,-5.2929,-5.2929,-5.2929,-5.2929,-5.2929,-5.2929,-5.2929,-5.2929,-5.2929,-5.2929,-5.2929,-5.2929,-5.2929,-5.2929,-5.2929,-5.2879,-5.2076,-5.0996,-4.9866,-4.959,-4.959,-4.959,-4.959,-4.959,-4.959,-4.959,-4.959,-4.959,-4.959,-4.959,-4.959,-4.959,-4.959,-4.959,-4.959,-4.959,-4.959,-4.9113,-4.8761,-4.8761,-4.7782,-4.7093,-4.7068,-4.6627,-4.6326,-4.6301,-4.6301,-4.6301,-4.6301,-4.5773,-4.5522,-4.5522,-4.492,-4.4618,-4.4618,-4.4066,-4.3539,-3.863,0.0,0.0,0.0,0.0,0.0,-4.5208,-4.71,0.0,0.0,0.0,0.0,0.0,0.0,0.0,0.0,0.0,0.0,0.0,0.0,0.0,0.0,0.0,0.0,0.0,0.0,0.0,0.0,-6.0555,-6.07,-6.1164,-6.0729,-6.0177,-5.9568,-5.9393,-5.9306,-5.9306,-5.8813,-5.8581,-5.8581,-5.8321,-5.7915,-5.7416,-5.7589,-5.6856,-5.5419,-5.4958,-5.4376,-5.3614,-5.3136,-5.2929,-5.2929,-5.2929,-5.2929,-5.2929,-5.2929,-5.2929,-5.2929,-5.2929,-5.2929,-5.2929,-5.2929,-5.2929,-5.2929,-5.2929,-5.2929,-5.2929,-5.2929,-5.2929,-5.2754,-5.195,-5.1498,-5.0996,-4.9866,-4.959,-4.959,-4.959,-4.959,-4.959,-4.959,-4.959,-4.959,-4.959,-4.959,-4.959,-4.959,-4.959,-4.959,-4.959,-4.959,-4.959,-4.959,-4.9113,-4.8761,-4.8761,-4.8109,-4.7531,-4.7093,-4.6943,-4.6728,-4.6326,-4.6301,-4.6301,-4.6301,-4.615,-4.6075,-4.6075,-4.5095,-4.4618,-4.4618,-4.4468,-4.4317,-3.9751,-3.9123,-3.8809,-3.9661,0.0,0.0,-4.1984,-4.364,-4.5298,0.0,0.0,0.0,0.0,0.0,0.0,0.0,0.0,0.0,0.0,0.0,0.0,0.0,0.0,0.0,0.0,0.0,0.0,0.0,-5.9829,-6.0003,-6.038,-5.9771,-5.9248,-5.89,-5.861,-5.8464,-5.8464,-5.8087,-5.7884,-5.7884,-5.7599,-5.7081,-5.6556,-5.6348,-5.56,-5.4531,-5.4089,-5.357,-5.2919,-5.2646,-5.2729,-5.2929,-5.2929,-5.2929,-5.2929,-5.2929,-5.2929,-5.2929,-5.2929,-5.2929,-5.2929,-5.2929,-5.2929,-5.2929,-5.2929,-5.2929,-5.2929,-5.2929,-5.2929,-5.2678,-5.1574,-5.1272,-5.0996,-4.9866,-4.959,-4.959,-4.959,-4.959,-4.959,-4.959,-4.959,-4.959,-4.959,-4.959,-4.959,-4.959,-4.959,-4.959,-4.959,-4.959,-4.959,-4.959,-4.9314,-4.9113,-4.9113,-4.8586,-4.8134,-4.7832,-4.7581,-4.7305,-4.6979,-4.6778,-4.6652,-4.6652,-4.6426,-4.6301,-4.6301,-4.5648,-4.5196,-4.4995,-4.4995,-4.4844,-4.1709,-4.0721,-3.9746,0.0,0.0,0.0,-3.9622,-4.0875,-4.2418,0.0,0.0,0.0,0.0,0.0,0.0,0.0,0.0,0.0,0.0,0.0,0.0,0.0,0.0,0.0,0.0,0.0,-5.8929,-5.9074,-5.9219,-5.9277,-5.919,-5.861,-5.8232,-5.8087,-5.7507,-5.7158,-5.71,-5.7158,-5.7216,-5.7216,-5.6964,-5.6537,-5.5874,-5.5132,-5.4332,-5.3474,-5.3097,-5.2581,-5.2026,-5.2026,-5.2327,-5.2829,-5.2829,-5.2879,-5.2929,-5.2929,-5.2929,-5.2929,-5.2929,-5.2929,-5.2929,-5.2929,-5.2929,-5.2929,-5.2929,-5.2929,-5.2929,-5.2929,-5.2879,-5.2603,-5.1548,-5.1222,-5.0921,-4.9841,-4.959,-4.959,-4.959,-4.959,-4.959,-4.959,-4.959,-4.959,-4.959,-4.959,-4.959,-4.959,-4.959,-4.959,-4.959,-4.959,-4.959,-4.959,-4.959,-4.959,-4.959,-4.9138,-4.8837,-4.8761,-4.8284,-4.7983,-4.7908,-4.7456,-4.723,-4.723,-4.6728,-4.6476,-4.6476,-4.6376,-4.605,-4.5573,-4.5573,-4.5296,0.0,0.0,0.0,0.0,0.0,0.0,-3.9024,-3.9251,-3.9637,0.0,0.0,0.0,0.0,0.0,0.0,0.0,0.0,0.0,0.0,0.0,0.0,0.0,0.0,0.0,0.0,0.0,-5.6607,-5.7623,-5.8697,-5.9074,-5.8523,-5.8377,-5.7826,-5.681,-5.6665,-5.6316,-5.5794,-5.6316,-5.6578,-5.6578,-5.6507,-5.6049,-5.5175,-5.4406,-5.3458,-5.222,-5.2072,-5.1823,-5.1448,-5.1448,-5.1774,-5.2277,-5.2277,-5.2528,-5.2929,-5.2929,-5.2929,-5.2929,-5.2929,-5.2929,-5.2929,-5.2929,-5.2929,-5.2929,-5.2929,-5.2929,-5.2929,-5.2929,-5.2603,-5.2126,-5.1448,-5.0946,-5.0419,-4.9766,-4.959,-4.959,-4.959,-4.959,-4.959,-4.959,-4.959,-4.959,-4.959,-4.959,-4.959,-4.959,-4.959,-4.959,-4.959,-4.959,-4.959,-4.959,-4.959,-4.959,-4.959,-4.949,-4.9238,-4.8786,-4.8661,-4.8385,-4.7933,-4.7807,-4.7757,-4.7757,-4.7657,-4.7606,-4.7606,-4.6728,-4.625,-4.615,-4.615,-4.6075,0.0,0.0,0.0,-4.0853,0.0,0.0,0.0,-3.8729,-3.8597,0.0,0.0,0.0,0.0,0.0,0.0,0.0,0.0,0.0,0.0,0.0,0.0,0.0,0.0,0.0,0.0,0.0,-5.4865,-5.5852,-5.6549,-5.6897,-5.6868,-5.6868,-5.6578,-5.5939,-5.591,-5.5765,-5.5416,-5.6084,-5.6292,-5.6126,-5.6165,-5.5701,-5.4675,-5.3531,-5.2612,-5.1846,-5.1351,-5.1043,-5.0845,-5.0845,-5.1021,-5.1322,-5.1875,-5.2277,-5.2553,-5.2829,-5.2929,-5.2929,-5.2929,-5.2929,-5.2929,-5.2929,-5.2929,-5.2929,-5.2929,-5.2929,-5.2879,-5.2603,-5.2327,-5.1925,-5.1071,-5.0645,-5.0268,-4.9715,-4.959,-4.959,-4.959,-4.959,-4.959,-4.959,-4.959,-4.959,-4.959,-4.959,-4.959,-4.959,-4.959,-4.959,-4.959,-4.959,-4.959,-4.959,-4.959,-4.959,-4.959,-4.959,-4.949,-4.9213,-4.9188,-4.9063,-4.8761,-4.8485,-4.8209,-4.7908,-4.7908,-4.7908,-4.7908,-4.738,-4.6979,-4.6728,-4.6728,-4.6577,0.0,0.0,0.0,0.0,0.0,-4.0068,0.0,0.0,0.0,0.0,0.0,0.0,0.0,0.0,0.0,0.0,0.0,0.0,0.0,0.0,0.0,0.0,0.0,0.0,0.0,0.0,-5.3239,-5.3907,-5.4081,-5.4458,-5.5184,-5.5242,-5.5242,-5.5242,-5.5242,-5.513,-5.4931,-5.5597,-5.5808,-5.5533,-5.5623,-5.5122,-5.4139,-5.2685,-5.1858,-5.1473,-5.0659,-5.0268,-5.0268,-5.0268,-5.0268,-5.0368,-5.1498,-5.2026,-5.2176,-5.2729,-5.2929,-5.2929,-5.2929,-5.2929,-5.2929,-5.2929,-5.2929,-5.2929,-5.2929,-5.2929,-5.2804,-5.2251,-5.2026,-5.1724,-5.067,-5.0343,-5.0142,-4.969,-4.959,-4.959,-4.959,-4.959,-4.959,-4.959,-4.959,-4.959,-4.959,-4.959,-4.959,-4.959,-4.959,-4.959,-4.959,-4.959,-4.959,-4.959,-4.959,-4.959,-4.959,-4.959,-4.959,-4.959,-4.959,-4.959,-4.959,-4.9163,-4.8711,-4.8234,-4.8234,-4.8234,-4.8234,-4.8234,-4.7908,-4.728,-4.7179,-4.6903,0.0,0.0,0.0,0.0,-4.2627,0.0,0.0,0.0,0.0,0.0,0.0,0.0,0.0,0.0,0.0,0.0,0.0,0.0,0.0,0.0,0.0,0.0,0.0,0.0,0.0,0.0,0.0,-5.1904,-5.2484,-5.3326,-5.4546,-5.4604,-5.4604,-5.4604,-5.4604,-5.4182,-5.3391,-5.4025,-5.4328,-5.4317,-5.4315,-5.3941,-5.3146,-5.213,-5.1146,-5.0269,-4.9884,-4.969,-4.969,-4.969,-4.969,-4.9791,-5.0946,-5.1674,-5.2176,-5.2729,-5.2929,-5.2929,-5.2929,-5.2929,-5.2929,-5.2929,-5.2929,-5.2929,-5.2929,-5.2929,-5.2804,-5.2251,-5.1749,-5.1222,-5.0569,-5.0067,-4.9665,-4.9615,-4.959,-4.959,-4.959,-4.959,-4.959,-4.959,-4.959,-4.959,-4.959,-4.959,-4.959,-4.959,-4.959,-4.959,-4.959,-4.959,-4.959,-4.959,-4.959,-4.959,-4.959,-4.959,-4.959,-4.959,-4.959,-4.959,-4.959,-4.954,-4.9464,-4.9414,-4.9414,-4.9414,-4.9414,-4.9414,-4.8862,-4.7807,-4.7355,-4.7043,0.0,0.0,0.0,0.0,0.0,0.0,0.0,0.0,-3.8265,0.0,0.0,0.0,0.0,0.0,0.0,0.0,0.0,0.0,0.0,0.0,0.0,0.0,0.0,0.0,0.0,0.0,0.0,0.0,0.0,-5.0365,-5.1672,-5.2078,-5.2455,-5.2833,-5.3181,-5.3082,-5.256,-5.3378,-5.3689,-5.3528,-5.3309,-5.2968,-5.2465,-5.1471,-5.0652,-5.004,-4.9719,-4.959,-4.959,-4.959,-4.959,-4.9665,-5.0469,-5.1122,-5.1724,-5.2603,-5.2929,-5.2929,-5.2929,-5.2929,-5.2879,-5.2553,-5.2226,-5.1975,-5.1975,-5.1975,-5.185,-5.1297,-5.0971,-5.0645,-5.0092,-4.9766,-4.959,-4.959,-4.959,-4.959,-4.959,-4.959,-4.959,-4.959,-4.959,-4.959,-4.959,-4.959,-4.959,-4.959,-4.959,-4.959,-4.959,-4.959,-4.959,-4.959,-4.959,-4.959,-4.959,-4.959,-4.959,-4.959,-4.959,-4.959,-4.959,-4.959,-4.959,-4.959,-4.959,-4.959,-4.959,-4.959,-4.9339,-4.8862,-4.8335,-4.7732,-5.3116,0.0,0.0,0.0,0.0,0.0,0.0,0.0,0.0,0.0,0.0,0.0,0.0,0.0,0.0,0.0,0.0,0.0,0.0,0.0,0.0,0.0,0.0,0.0,0.0,0.0,0.0,0.0,0.0,0.0,-4.9117,-4.9785,-5.0511,-5.1323,-5.2136,-5.2416,-5.1971,-5.2794,-5.2992,-5.251,-5.2217,-5.1883,-5.1449,-5.079,-5.0295,-4.9912,-4.9719,-4.959,-4.959,-4.959,-4.959,-4.9665,-5.0368,-5.0921,-5.1398,-5.2352,-5.2804,-5.2929,-5.2929,-5.2829,-5.2628,-5.2226,-5.1724,-5.1272,-5.1272,-5.1272,-5.1147,-5.0569,-5.0419,-5.0293,-4.9741,-4.959,-4.959,-4.959,-4.959,-4.959,-4.959,-4.959,-4.959,-4.959,-4.959,-4.959,-4.959,-4.959,-4.959,-4.959,-4.959,-4.959,-4.959,-4.959,-4.959,-4.959,-4.959,-4.959,-4.959,-4.959,-4.959,-4.959,-4.959,-4.959,-4.959,-4.959,-4.959,-4.959,-4.959,-4.959,-4.959,-4.959,-4.959,-4.959,-4.9038,-4.8335,0.0,0.0,0.0,-5.0484,0.0,0.0,0.0,0.0,-3.9647,0.0,0.0,0.0,0.0,0.0,0.0,-3.6339,0.0,0.0,0.0,0.0,0.0,0.0,0.0,0.0,0.0,0.0,0.0,0.0,0.0,0.0,-4.7724,-4.8449,-4.9378,-5.0705,-5.1984,-5.2313,-5.1737,-5.2045,-5.1793,-5.099,-5.0885,-5.0514,-4.9856,-5.0041,-4.9912,-4.959,-4.959,-4.959,-4.959,-4.959,-4.959,-4.9715,-5.082,-5.1272,-5.1348,-5.1925,-5.2477,-5.2929,-5.2929,-5.2578,-5.2126,-5.2126,-5.1724,-5.1272,-5.1272,-5.1272,-5.1147,-5.0569,-5.0419,-5.0293,-4.9741,-4.959,-4.959,-4.959,-4.959,-4.959,-4.959,-4.959,-4.959,-4.959,-4.959,-4.959,-4.959,-4.959,-4.959,-4.959,-4.959,-4.959,-4.959,-4.959,-4.959,-4.959,-4.959,-4.959,-4.959,-4.959,-4.959,-4.959,-4.959,-4.959,-4.959,-4.959,-4.959,-4.959,-4.959,-4.959,-4.959,-4.959,-4.959,-4.959,-4.9038,-4.8761,0.0,0.0,-5.4107,-5.2575,0.0,0.0,0.0,0.0,0.0,0.0,0.0,0.0,0.0,0.0,-3.8707,-3.8013,-3.7545,0.0,0.0,0.0,0.0,0.0,0.0,0.0,0.0,0.0,0.0,0.0,0.0,0.0,0.0,-4.6679,-4.8072,-4.9349,-5.1033,-5.1677,-5.1138,-5.1658,-5.1599,-5.0905,-5.0386,-5.0028,-4.9794,-4.9786,-4.9719,-4.959,-4.959,-4.959,-4.959,-4.959,-4.959,-4.9665,-5.0419,-5.0946,-5.1398,-5.2302,-5.2779,-5.2929,-5.2929,-5.2578,-5.2051,-5.1674,-5.1172,-5.0645,-5.0268,-5.0167,-5.0117,-4.9916,-4.9866,-4.9841,-4.964,-4.959,-4.959,-4.959,-4.959,-4.959,-4.959,-4.959,-4.959,-4.959,-4.959,-4.9715,-5.0067,-4.9841,-4.959,-4.959,-4.959,-4.959,-4.959,-4.959,-4.959,-4.959,-4.959,-4.959,-4.959,-4.959,-4.959,-4.959,-4.959,-4.959,-4.959,-4.959,-4.959,-4.959,-4.959,-4.959,-4.959,-4.959,-4.959,-4.959,-4.9414,-4.9113,-5.973,-5.8334,0.0,-5.515,-5.241,0.0,-4.8281,0.0,0.0,0.0,0.0,0.0,0.0,0.0,0.0,-3.952,-3.8785,-3.7903,0.0,-3.6781,0.0,0.0,0.0,0.0,0.0,0.0,0.0,0.0,0.0,0.0,0.0,0.0,-4.6645,-4.7967,-5.0064,-5.0976,-5.0823,-5.133,-5.1211,-5.0408,-4.9983,-4.9619,-4.9325,-4.9519,-4.959,-4.959,-4.959,-4.959,-4.959,-4.959,-4.959,-4.9665,-5.0419,-5.0946,-5.1398,-5.2302,-5.2754,-5.2929,-5.2929,-5.2578,-5.2026,-5.1448,-5.0896,-5.0318,-4.9766,-4.959,-4.959,-4.959,-4.959,-4.959,-4.959,-4.959,-4.959,-4.959,-4.959,-4.959,-4.959,-4.959,-4.9665,-4.9841,-4.9891,-5.0067,-5.0619,-5.0419,-5.0117,-4.9916,-4.9715,-4.959,-4.959,-4.959,-4.959,-4.959,-4.959,-4.959,-4.959,-4.959,-4.959,-4.959,-4.959,-4.959,-4.959,-4.959,-4.959,-4.959,-4.959,-4.959,-4.959,-4.959,-4.959,-4.959,-4.959,-4.9414]},{"header":{"parameterUnit":"m.s-1","parameterCategory":1,"la1":30.6,"la2":29.2853,"lo1":-89.7004,"lo2":-87.6739,"dy":0.0162,"dx":0.0183,"nx":112,"ny":82,"refTime":"2024-04-25T06:00:00:Z","depth":0,"parameterNumber":3,"parameterNumberName":"V-component_of_WINDS"},"data":[0.0,0.0,0.0,0.0,0.0,0.0,0.0,0.0,0.0,0.0,0.0,0.0,0.0,0.0,0.0,0.0,0.0,0.0,0.0,0.0,0.0,0.0,0.0,0.0,0.0,0.0,0.0,0.0,0.0,0.0,0.0,0.0,0.0,0.0,0.0,0.0,0.0,0.0,0.0,0.0,0.0,0.0,0.0,0.0,0.0,0.0,0.0,0.0,0.0,0.0,0.0,0.0,0.0,0.0,0.0,0.0,0.0,0.0,0.0,0.0,0.0,0.0,0.0,0.0,0.0,0.0,0.0,0.0,0.0,0.0,0.0,0.0,0.0,0.0,0.0,0.0,0.0,0.0,0.0,0.0,0.0,0.0,0.0,0.0,0.0,0.0,0.0,0.0,0.0,0.0,0.0,3.2943,3.7071,3.9829,4.0338,3.7738,3.4716,3.1633,0.0,0.0,0.0,0.0,0.0,0.0,0.0,0.0,0.0,0.0,0.0,0.0,0.0,0.0,0.0,0.0,0.0,0.0,0.0,0.0,0.0,0.0,0.0,0.0,0.0,0.0,0.0,0.0,0.0,0.0,0.0,0.0,0.0,0.0,0.0,0.0,0.0,0.0,0.0,0.0,0.0,0.0,0.0,0.0,0.0,0.0,0.0,0.0,0.0,0.0,0.0,0.0,0.0,0.0,0.0,0.0,0.0,0.0,0.0,0.0,0.0,0.0,0.0,0.0,0.0,0.0,0.0,0.0,0.0,0.0,0.0,0.0,0.0,0.0,0.0,0.0,0.0,0.0,0.0,0.0,0.0,0.0,0.0,0.0,0.0,0.0,0.0,0.0,0.0,0.0,0.0,0.0,0.0,0.0,0.0,0.0,0.0,0.0,0.0,0.0,0.0,0.0,0.0,0.0,3.229,3.7312,3.9753,4.0824,4.044,3.7878,3.4993,3.1846,0.0,0.0,0.0,0.0,0.0,0.0,0.0,0.0,0.0,0.0,0.0,0.0,0.0,0.0,0.0,0.0,0.0,0.0,0.0,0.0,0.0,0.0,0.0,0.0,0.0,0.0,0.0,0.0,0.0,0.0,0.0,0.0,0.0,0.0,0.0,0.0,0.0,0.0,0.0,0.0,0.0,0.0,0.0,0.0,0.0,0.0,0.0,0.0,0.0,0.0,0.0,0.0,0.0,0.0,0.0,0.0,0.0,0.0,0.0,0.0,0.0,0.0,0.0,0.0,0.0,0.0,0.0,0.0,0.0,0.0,0.0,0.0,0.0,0.0,0.0,0.0,0.0,0.0,0.0,0.0,0.0,0.0,0.0,0.0,0.0,0.0,0.0,0.0,0.0,0.0,0.0,0.0,0.0,0.0,0.0,0.0,0.0,0.0,0.0,0.0,0.0,0.0,0.0,3.2139,3.5244,3.9146,4.0593,4.1158,4.0871,3.8293,3.5367,3.2152,2.9183,0.0,0.0,0.0,0.0,0.0,0.0,0.0,0.0,0.0,0.0,0.0,0.0,0.0,0.0,0.0,0.0,0.0,0.0,0.0,0.0,0.0,0.0,0.0,0.0,0.0,0.0,0.0,0.0,0.0,0.0,0.0,0.0,0.0,0.0,0.0,0.0,0.0,0.0,0.0,0.0,0.0,0.0,0.0,0.0,0.0,0.0,0.0,0.0,0.0,0.0,0.0,0.0,0.0,0.0,0.0,0.0,0.0,0.0,0.0,0.0,0.0,0.0,0.0,0.0,0.0,0.0,0.0,0.0,0.0,0.0,0.0,0.0,0.0,0.0,0.0,0.0,0.0,0.0,0.0,0.0,0.0,0.0,0.0,0.0,0.0,0.0,0.0,0.0,0.0,0.0,0.0,0.0,0.0,0.0,0.0,0.0,0.0,0.0,0.0,0.0,0.0,0.0,3.4299,3.7306,3.9677,4.0645,4.1106,4.0833,3.8281,3.54,3.2309,2.9435,0.0,0.0,0.0,0.0,0.0,0.0,0.0,0.0,0.0,0.0,0.0,0.0,0.0,0.0,0.0,0.0,0.0,0.0,0.0,0.0,0.0,0.0,0.0,0.0,0.0,0.0,0.0,0.0,0.0,0.0,0.0,0.0,0.0,0.0,0.0,0.0,0.0,0.0,0.0,0.0,0.0,0.0,0.0,0.0,0.0,0.0,0.0,0.0,0.0,0.0,0.0,0.0,0.0,0.0,0.0,0.0,0.0,0.0,0.0,0.0,0.0,0.0,0.0,0.0,0.0,0.0,0.0,0.0,0.0,0.0,0.0,0.0,0.0,0.0,0.0,0.0,0.0,0.0,0.0,0.0,0.0,0.0,0.0,0.0,0.0,0.0,0.0,0.0,0.0,0.0,0.0,0.0,0.0,0.0,0.0,0.0,0.0,0.0,0.0,0.0,0.0,0.0,3.4324,3.7157,3.917,4.0235,4.0508,3.9685,3.7347,3.4737,3.1998,2.9036,0.0,0.0,0.0,0.0,0.0,0.0,0.0,0.0,0.0,0.0,0.0,0.0,0.0,0.0,0.0,0.0,0.0,0.0,0.0,0.0,0.0,0.0,0.0,0.0,0.0,0.0,0.0,0.0,0.0,0.0,0.0,0.0,0.0,0.0,0.0,0.0,0.0,0.0,0.0,0.0,0.0,0.0,0.0,0.0,0.0,0.0,0.0,0.0,0.0,0.0,0.0,0.0,0.0,0.0,0.0,0.0,0.0,0.0,0.0,0.0,0.0,0.0,0.0,0.0,0.0,0.0,0.0,0.0,0.0,0.0,0.0,0.0,0.0,0.0,0.0,0.0,0.0,0.0,0.0,0.0,0.0,0.0,0.0,0.0,0.0,0.0,0.0,0.0,0.0,0.0,0.0,0.0,0.0,0.0,0.0,0.0,0.0,0.0,0.0,0.0,0.0,0.0,3.476,3.7752,0.0,4.0459,4.0671,3.972,3.7512,3.4924,3.1943,0.0,0.0,0.0,0.0,0.0,0.0,0.0,0.0,0.0,0.0,0.0,0.0,0.0,0.0,0.0,0.0,0.0,0.0,0.0,0.0,0.0,0.0,0.0,0.0,0.0,0.0,0.0,0.0,0.0,0.0,0.0,0.0,0.0,0.0,0.0,0.0,0.0,0.0,0.0,0.0,0.0,0.0,0.0,0.0,0.0,0.0,0.0,0.0,0.0,0.0,0.0,0.0,0.0,0.0,0.0,0.0,0.0,0.0,0.0,0.0,0.0,0.0,0.0,0.0,0.0,0.0,0.0,0.0,0.0,0.0,0.0,0.0,0.0,0.0,0.0,0.0,0.0,0.0,0.0,0.0,0.0,0.0,0.0,0.0,0.0,0.0,0.0,0.0,0.0,0.0,0.0,0.0,0.0,0.0,0.0,0.0,0.0,0.0,0.0,0.0,0.0,0.0,3.1377,3.4527,3.7326,0.0,3.9972,3.9976,3.9168,3.7071,3.4638,3.1756,0.0,0.0,0.0,0.0,0.0,0.0,0.0,0.0,0.0,0.0,0.0,0.0,0.0,0.0,0.0,0.0,0.0,0.0,0.0,0.0,0.0,0.0,0.0,0.0,0.0,0.0,0.0,0.0,0.0,0.0,0.0,0.0,0.0,0.0,0.0,0.0,0.0,0.0,0.0,0.0,0.0,0.0,0.0,0.0,0.0,0.0,0.0,0.0,0.0,0.0,0.0,0.0,0.0,0.0,0.0,0.0,0.0,0.0,0.0,0.0,0.0,0.0,0.0,0.0,0.0,0.0,0.0,0.0,0.0,0.0,0.0,0.0,0.0,0.0,0.0,0.0,0.0,0.0,0.0,0.0,0.0,0.0,0.0,0.0,0.0,0.0,0.0,0.0,0.0,0.0,0.0,0.0,0.0,0.0,0.0,0.0,0.0,0.0,0.0,0.0,0.0,0.0,3.1727,3.3572,3.5646,3.8402,3.8602,3.8291,3.7724,3.5815,3.3648,0.0,0.0,0.0,0.0,0.0,0.0,0.0,0.0,0.0,0.0,0.0,0.0,0.0,0.0,0.0,0.0,0.0,0.0,0.0,0.0,0.0,0.0,0.0,0.0,0.0,0.0,0.0,0.0,0.0,0.0,0.0,0.0,0.0,0.0,0.0,0.0,0.0,0.0,0.0,0.0,0.0,0.0,0.0,0.0,0.0,0.0,0.0,0.0,0.0,0.0,0.0,0.0,0.0,0.0,0.0,0.0,0.0,0.0,0.0,0.0,0.0,0.0,0.0,0.0,0.0,0.0,0.0,0.0,0.0,0.0,0.0,0.0,0.0,0.0,0.0,0.0,0.0,0.0,0.0,0.0,0.0,0.0,0.0,0.0,0.0,0.0,0.0,0.0,0.0,0.0,0.0,0.0,0.0,0.0,0.0,0.0,0.0,0.0,0.0,0.0,0.0,0.0,0.0,3.1265,3.3791,3.5971,3.7332,3.8397,3.8407,3.6987,3.5684,3.3821,3.1243,0.0,0.0,0.0,0.0,0.0,0.0,0.0,0.0,0.0,0.0,0.0,0.0,0.0,0.0,0.0,0.0,0.0,0.0,0.0,0.0,0.0,0.0,0.0,0.0,0.0,0.0,0.0,0.0,0.0,0.0,0.0,0.0,0.0,0.0,0.0,0.0,0.0,0.0,0.0,0.0,0.0,0.0,0.0,0.0,0.0,0.0,0.0,0.0,0.0,0.0,0.0,0.0,0.0,0.0,0.0,0.0,0.0,0.0,0.0,0.0,0.0,0.0,0.0,0.0,0.0,0.0,0.0,0.0,0.0,0.0,0.0,0.0,0.0,0.0,0.0,0.0,0.0,0.0,0.0,0.0,0.0,0.0,0.0,0.0,0.0,0.0,0.0,0.0,0.0,0.0,0.0,0.0,0.0,0.0,0.0,0.0,0.0,0.0,0.0,0.0,0.0,0.0,3.1268,3.3539,3.5538,3.6937,3.7849,3.7909,3.6626,3.5518,3.3802,3.1279,0.0,0.0,0.0,0.0,0.0,0.0,0.0,0.0,0.0,0.0,0.0,0.0,0.0,0.0,0.0,0.0,0.0,0.0,0.0,0.0,0.0,0.0,0.0,0.0,0.0,0.0,0.0,0.0,0.0,0.0,0.0,0.0,0.0,0.0,0.0,0.0,0.0,0.0,0.0,0.0,0.0,0.0,0.0,0.0,0.0,0.0,0.0,0.0,0.0,0.0,0.0,0.0,0.0,0.0,0.0,0.0,0.0,0.0,0.0,0.0,0.0,0.0,0.0,0.0,0.0,0.0,0.0,0.0,0.0,0.0,0.0,0.0,0.0,0.0,0.0,0.0,0.0,0.0,0.0,0.0,0.0,0.0,0.0,0.0,0.0,0.0,0.0,0.0,0.0,0.0,0.0,0.0,0.0,0.0,0.0,0.0,0.0,0.0,0.0,0.0,0.0,0.0,3.1588,3.3014,3.4682,3.6822,3.7153,3.7056,3.6504,3.5369,3.3712,3.1545,0.0,0.0,0.0,0.0,0.0,0.0,0.0,0.0,0.0,0.0,0.0,0.0,0.0,0.0,0.0,0.0,0.0,0.0,0.0,0.0,0.0,0.0,0.0,0.0,0.0,0.0,0.0,0.0,0.0,0.0,0.0,0.0,0.0,0.0,0.0,0.0,0.0,0.0,0.0,0.0,0.0,0.0,0.0,0.0,0.0,0.0,0.0,0.0,0.0,0.0,0.0,0.0,0.0,0.0,0.0,0.0,0.0,0.0,0.0,0.0,4.0439,0.0,0.0,0.0,0.0,0.0,0.0,0.0,0.0,0.0,0.0,0.0,0.0,0.0,0.0,0.0,0.0,0.0,0.0,0.0,0.0,0.0,0.0,0.0,0.0,0.0,0.0,0.0,0.0,0.0,0.0,0.0,0.0,0.0,0.0,0.0,0.0,0.0,0.0,0.0,0.0,0.0,3.1588,3.3014,3.4364,3.564,3.6891,3.7253,3.6127,3.5453,3.4243,3.2348,0.0,0.0,0.0,0.0,0.0,0.0,0.0,0.0,0.0,0.0,0.0,0.0,0.0,0.0,0.0,0.0,0.0,0.0,0.0,0.0,0.0,0.0,0.0,0.0,0.0,0.0,0.0,0.0,0.0,0.0,0.0,0.0,0.0,0.0,0.0,0.0,0.0,0.0,0.0,0.0,0.0,0.0,0.0,0.0,0.0,0.0,0.0,0.0,0.0,0.0,0.0,0.0,0.0,0.0,0.0,0.0,0.0,0.0,0.0,0.0,0.0,4.1976,0.0,0.0,0.0,0.0,0.0,0.0,0.0,0.0,0.0,0.0,0.0,0.0,0.0,0.0,0.0,0.0,0.0,0.0,0.0,0.0,0.0,0.0,0.0,0.0,0.0,0.0,0.0,0.0,0.0,0.0,0.0,0.0,0.0,0.0,0.0,0.0,0.0,0.0,0.0,0.0,3.1832,3.313,3.4418,3.5682,3.6956,3.731,3.6259,3.557,3.4431,3.2617,3.0941,0.0,0.0,0.0,0.0,0.0,0.0,0.0,0.0,0.0,0.0,0.0,0.0,0.0,0.0,0.0,0.0,0.0,0.0,0.0,0.0,0.0,0.0,0.0,0.0,0.0,0.0,0.0,0.0,0.0,0.0,0.0,0.0,0.0,0.0,0.0,0.0,0.0,0.0,0.0,0.0,0.0,0.0,0.0,0.0,0.0,0.0,0.0,0.0,0.0,0.0,0.0,0.0,0.0,5.387,5.4825,5.5735,5.5804,5.5891,5.5735,5.023,4.6914,4.5154,0.0,0.0,0.0,0.0,0.0,0.0,0.0,0.0,0.0,0.0,0.0,0.0,0.0,0.0,0.0,0.0,0.0,0.0,0.0,0.0,0.0,0.0,0.0,0.0,0.0,3.6305,3.5626,0.0,0.0,0.0,0.0,0.0,0.0,0.0,0.0,0.0,0.0,0.0,0.0,3.2143,3.3342,3.4612,3.6144,3.7021,3.723,3.6551,3.5739,3.4522,3.2766,3.142,3.0163,0.0,0.0,0.0,0.0,0.0,0.0,0.0,0.0,0.0,0.0,0.0,0.0,0.0,0.0,0.0,0.0,0.0,0.0,0.0,0.0,0.0,0.0,0.0,0.0,0.0,0.0,0.0,0.0,0.0,0.0,0.0,0.0,4.1861,4.2359,0.0,0.0,0.0,0.0,0.0,0.0,0.0,0.0,0.0,0.0,0.0,0.0,0.0,5.2422,5.4697,5.6322,5.7734,5.8936,6.0366,6.137,6.1913,6.2294,6.2185,6.1663,6.0331,0.0,5.0402,4.7983,0.0,0.0,0.0,0.0,0.0,0.0,0.0,0.0,0.0,0.0,0.0,0.0,0.0,0.0,0.0,0.0,0.0,0.0,0.0,0.0,0.0,0.0,3.8266,3.8344,3.871,3.8841,0.0,3.5574,3.3456,3.3378,0.0,0.0,0.0,0.0,0.0,0.0,0.0,0.0,3.2671,3.37,3.4766,3.6144,3.6855,3.7034,3.6558,3.587,3.4859,3.3455,3.2108,3.1032,3.0283,2.9744,0.0,0.0,0.0,0.0,0.0,0.0,0.0,0.0,0.0,0.0,0.0,0.0,0.0,0.0,0.0,0.0,0.0,0.0,0.0,0.0,0.0,0.0,0.0,0.0,0.0,0.0,0.0,0.0,0.0,4.2534,4.3991,4.5171,4.4543,4.3828,0.0,0.0,0.0,0.0,0.0,0.0,0.0,0.0,0.0,5.4831,5.6405,5.8259,6.0392,6.1968,6.3385,6.4758,6.5641,6.6585,6.7294,6.7119,6.6913,6.6652,6.5737,6.3071,5.8967,5.3948,5.0341,4.7762,0.0,0.0,0.0,0.0,4.432,4.4559,4.5445,4.5604,0.0,0.0,0.0,0.0,0.0,0.0,0.0,0.0,0.0,0.0,0.0,0.0,0.0,4.0723,4.1115,4.1272,4.0383,3.8475,3.6488,0.0,3.3849,3.2908,3.1679,0.0,0.0,0.0,0.0,0.0,3.3233,3.441,3.5575,3.6749,3.7146,3.72,3.6734,3.5614,3.4532,3.3544,3.2228,3.1182,3.0522,3.0253,2.9953,0.0,0.0,0.0,0.0,0.0,0.0,0.0,0.0,0.0,0.0,0.0,0.0,0.0,0.0,0.0,0.0,0.0,0.0,0.0,0.0,0.0,0.0,0.0,0.0,0.0,0.0,0.0,0.0,4.4819,4.6351,4.8309,4.768,4.7031,0.0,0.0,0.0,0.0,0.0,0.0,5.3292,5.5607,5.8057,6.0713,6.2483,6.4346,6.6325,6.7576,6.8902,6.9988,7.0403,7.0992,7.167,7.1069,7.0651,7.0311,6.9474,6.7932,6.558,5.9411,5.5151,5.2328,5.0159,4.8538,4.7466,4.8041,4.8146,4.8172,4.9165,4.9139,4.8538,4.7806,0.0,4.399,4.2265,0.0,0.0,0.0,0.0,4.0801,4.1193,4.2474,4.3546,4.2971,4.3258,4.3337,4.203,4.0958,3.9416,0.0,3.5234,3.4162,3.2711,0.0,0.0,0.0,0.0,3.3016,3.385,3.4986,3.6089,3.7092,3.7179,3.7011,3.6679,3.5472,3.4382,3.3544,3.2587,3.163,3.0791,3.0761,3.0552,3.0073,0.0,0.0,0.0,0.0,0.0,0.0,0.0,0.0,0.0,0.0,0.0,0.0,0.0,0.0,0.0,0.0,0.0,0.0,0.0,0.0,0.0,0.0,0.0,0.0,0.0,0.0,0.0,0.0,0.0,5.2083,5.1829,0.0,0.0,0.0,0.0,5.2349,5.4671,5.7354,6.041,6.2733,6.5292,6.8163,6.9442,7.0964,7.2663,7.3802,7.4455,7.4597,7.4624,7.465,7.4676,7.4075,7.3186,7.2167,7.2114,7.0468,6.754,6.3358,5.9908,5.7207,5.5386,5.3661,5.2223,5.2825,5.2694,5.2276,5.2929,5.2746,5.2067,5.0943,4.8277,4.5218,4.3467,4.284,0.0,0.0,4.2839,4.3676,4.3755,4.4591,4.5349,4.4774,4.5088,4.5036,4.331,4.2474,4.1193,0.0,3.641,3.5051,3.4371,0.0,3.2646,3.262,3.2974,3.3617,3.4612,3.5151,3.5813,3.681,3.6553,3.6268,3.6238,3.575,3.4891,3.3574,3.3425,3.2826,3.1511,3.1451,3.1451,3.1421,3.1391,0.0,0.0,0.0,0.0,0.0,0.0,0.0,0.0,0.0,0.0,0.0,0.0,0.0,0.0,0.0,0.0,0.0,0.0,0.0,0.0,0.0,0.0,0.0,0.0,0.0,0.0,0.0,0.0,5.7077,5.6696,0.0,5.781,5.6925,5.7162,5.9091,6.1431,6.3751,6.5972,6.8272,7.0337,7.2114,7.3291,7.4362,7.5355,7.6166,7.6558,7.6558,7.6192,7.6009,7.5957,7.4624,7.3787,7.3369,7.2611,7.1304,6.9527,6.7697,6.4587,6.0823,5.9072,5.7556,5.6405,5.6615,5.6327,5.5857,5.6066,5.5752,5.4889,5.2616,5.0289,4.812,4.6761,4.6081,4.5689,4.5114,4.5245,4.5558,4.5558,4.6133,4.6443,4.5558,4.5767,4.5611,4.3467,4.2866,4.2082,3.9939,3.8135,3.6671,3.5652,3.468,3.3936,3.3527,3.3966,3.4531,3.5178,3.5789,3.6433,3.7032,3.657,3.6179,3.6179,3.5362,3.4472,3.3544,3.3095,3.2437,3.154,3.1511,3.1511,3.1511,3.1511,3.1391,0.0,0.0,0.0,0.0,0.0,0.0,0.0,0.0,0.0,0.0,0.0,0.0,0.0,0.0,0.0,0.0,0.0,0.0,0.0,0.0,0.0,0.0,0.0,0.0,0.0,0.0,5.7086,6.1811,6.1886,6.2249,6.4012,6.3571,6.3753,6.5345,6.741,6.9265,7.0807,7.2716,7.4284,7.5434,7.6192,7.6871,7.7473,7.7839,7.7943,7.7734,7.7159,7.6688,7.627,7.4911,7.4075,7.3656,7.2716,7.1644,7.052,6.9527,6.72,6.4116,6.2574,6.1032,5.9673,5.9673,5.9202,5.847,5.8078,5.732,5.6118,5.3818,5.2014,5.0551,4.9401,4.8799,4.8329,4.7571,4.7362,4.731,4.71,4.7205,4.7043,4.6133,4.6055,4.5611,4.3572,4.3127,4.2707,4.1258,3.9528,3.8011,3.6988,3.6102,3.5319,3.4817,3.5197,3.5715,3.6042,3.6505,3.6987,3.7427,3.6778,3.6309,3.6309,3.5394,3.4532,3.3873,3.3425,3.2766,3.1869,3.1839,3.172,3.1511,3.1511,3.1511,3.1511,0.0,0.0,0.0,0.0,0.0,0.0,0.0,0.0,0.0,0.0,0.0,0.0,0.0,0.0,0.0,0.0,0.0,0.0,0.0,0.0,0.0,0.0,0.0,5.4158,5.7754,6.1859,6.6314,6.7325,6.8201,6.9756,6.9893,7.0154,7.0755,7.2376,7.3839,7.5016,7.614,7.7237,7.8335,7.8361,7.8623,7.9172,7.9172,7.8884,7.8309,7.7734,7.6845,7.5695,7.5146,7.4232,7.3055,7.2506,7.1618,7.0442,6.8716,6.7645,6.6965,6.5841,6.4012,6.2025,6.2025,6.1267,6.0065,5.8915,5.7373,5.5752,5.4628,5.3504,5.2354,5.123,5.0864,5.0629,4.9453,4.9113,4.8956,4.8355,4.7754,4.7179,4.6604,4.6029,4.5169,4.3677,4.3412,4.3094,4.2256,4.0489,3.8952,3.8371,3.7537,3.6813,3.6449,3.6688,0.0,3.7296,3.7279,3.7427,3.8032,3.7152,3.6477,3.6477,3.5878,3.522,3.4563,3.4503,3.3903,3.2587,3.2527,3.2228,3.157,3.157,3.157,3.157,0.0,0.0,0.0,0.0,0.0,0.0,0.0,0.0,0.0,0.0,0.0,0.0,0.0,0.0,0.0,0.0,0.0,0.0,0.0,0.0,0.0,0.0,5.8304,5.8712,6.1704,6.5575,7.0369,7.1077,7.209,7.4481,7.431,7.4493,7.5486,7.6767,7.7839,7.857,7.9302,7.9668,7.9564,7.9564,7.9433,7.9172,7.9172,7.8884,7.8309,7.7734,7.6845,7.5669,7.4702,7.363,7.248,7.1905,7.099,6.9866,6.8978,6.8011,6.6965,6.5841,6.4482,6.3201,6.3201,6.1947,6.0065,5.8915,5.766,5.6432,5.5674,5.4968,5.4158,5.3034,5.2668,5.225,5.0237,4.9662,4.9453,4.8433,4.7754,4.7179,4.6604,4.5715,4.4752,4.365,4.3095,4.2695,4.2176,4.1266,4.0441,4.0067,3.8988,3.8063,3.7674,3.7904,0.0,3.7797,3.7688,3.7752,3.8068,3.7152,3.6477,3.6477,3.5878,3.522,3.4563,3.4503,3.4144,3.3275,3.3215,3.3155,3.2946,3.2946,3.2946,0.0,0.0,0.0,0.0,0.0,0.0,0.0,0.0,0.0,0.0,0.0,0.0,0.0,0.0,0.0,0.0,0.0,0.0,0.0,0.0,0.0,0.0,6.0117,6.37,6.5342,6.7041,6.9794,7.4168,7.4862,7.5926,7.8162,7.8074,7.8152,7.8832,7.9511,8.0034,8.0374,8.0688,8.0714,8.04,8.0139,7.9851,7.9537,7.9276,7.8753,7.7943,7.7368,7.6375,7.4963,7.3813,7.2794,0.0,7.1043,7.018,6.9265,6.8455,6.7592,0.0,0.0,0.0,0.0,0.0,6.1581,6.0065,5.8915,5.7765,5.6719,5.6118,5.5543,5.4889,5.3739,5.34,5.2903,5.0551,4.9897,4.9584,4.8198,4.7414,4.6839,4.6264,4.5245,4.4254,4.3675,4.3143,4.2711,4.2445,0.0,0.0,4.1268,4.0316,3.931,3.8712,3.8979,3.8986,3.8356,3.8326,3.8417,3.8627,3.7575,3.6866,3.6866,3.6028,0.0,0.0,0.0,3.4592,3.3933,3.3634,0.0,0.0,0.0,3.3484,3.3484,0.0,0.0,0.0,3.175,3.1511,0.0,0.0,0.0,0.0,0.0,0.0,0.0,0.0,0.0,0.0,0.0,0.0,0.0,0.0,0.0,0.0,6.4743,6.8889,7.2356,7.3004,7.4183,7.7326,7.8171,7.9139,8.0871,8.0975,8.0975,8.0975,8.1027,8.108,8.108,0.0,0.0,0.0,0.0,8.0086,8.0034,7.9459,7.8597,7.7446,7.6898,7.5695,7.397,7.282,7.1931,7.1252,7.0154,6.9344,6.8664,6.7592,6.6704,6.6076,6.6024,6.5005,6.3384,6.1659,6.0588,5.9856,5.8706,0.0,0.0,5.6013,5.5438,5.4811,5.3713,5.3347,5.2825,5.0524,4.9897,4.9505,4.7722,4.6917,4.6316,4.5689,4.4643,4.3835,4.3723,4.3317,4.2931,4.2933,4.2132,4.1608,4.2109,4.1371,4.0478,3.9584,3.9892,3.9886,3.8944,3.9017,3.9199,3.9284,0.0,0.0,3.7315,3.6207,3.5519,3.5519,3.5519,3.522,3.4653,3.4023,3.3724,3.3724,3.3724,3.3724,3.3724,3.3634,3.3604,3.3574,3.2288,3.172,0.0,0.0,0.0,0.0,0.0,0.0,0.0,0.0,0.0,0.0,0.0,0.0,0.0,0.0,0.0,6.5005,6.8873,7.2376,7.5329,7.6555,7.7581,7.8776,7.9068,7.9762,8.1498,8.1602,8.1602,8.1602,8.2021,8.2282,8.2282,8.2282,0.0,8.1602,8.1027,8.0478,8.0034,7.9459,7.8597,7.7446,0.0,0.0,7.397,7.282,7.1722,7.0703,6.9997,6.9108,6.8089,6.7383,6.6207,6.4822,6.4351,6.3698,6.2783,6.1032,5.9725,5.8679,5.7529,5.6667,5.5987,5.5438,5.4863,5.4262,5.3583,5.306,0.0,5.042,4.9897,4.9505,4.7722,4.6917,4.6212,4.5166,4.4176,4.3438,4.3189,4.2854,4.2744,4.3142,4.2554,4.2109,4.2587,4.1879,4.0967,4.0083,4.05,4.0453,3.9194,3.9228,3.9164,3.8661,3.7883,3.7195,3.6716,3.5938,3.5519,3.5519,3.5519,3.5459,3.531,3.519,3.51,3.51,3.51,3.51,3.51,3.4562,3.4324,3.4294,3.3484,3.3125,0.0,0.0,0.0,0.0,0.0,0.0,0.0,0.0,0.0,0.0,0.0,5.4481,5.7346,0.0,6.4922,6.8663,7.1998,7.4781,7.681,7.8015,7.8971,7.9639,7.9906,8.0524,8.1681,8.2021,8.2204,8.2204,8.2465,8.2622,8.2622,8.2622,8.236,8.1785,8.1184,8.0609,8.0034,7.9172,7.8309,7.7446,7.6296,7.499,7.35,7.2088,7.0964,7.0102,6.9213,6.835,6.7462,6.6599,6.5554,6.4456,6.3593,6.2914,6.2182,6.0431,5.9255,5.8314,5.685,5.617,5.583,5.5282,5.4707,5.4105,5.3556,5.2772,5.1753,5.0289,4.9688,4.9087,4.7362,4.6682,4.6107,4.4643,4.3835,4.3331,4.3054,4.2816,4.2852,4.3211,4.3036,4.2817,4.2822,4.2539,4.1935,4.0616,4.0888,4.0755,3.9444,3.9337,3.914,3.8452,3.7793,3.7165,3.6537,3.5878,3.5519,3.5519,3.5519,3.5519,3.5519,3.5519,3.5519,3.5519,3.5519,3.5519,3.5519,3.516,3.4981,3.4981,3.4651,3.4143,0.0,0.0,0.0,0.0,0.0,0.0,0.0,0.0,5.2907,5.4686,5.7181,5.9882,6.2681,6.5932,6.9042,7.1779,7.4427,7.6512,7.7573,7.8597,7.9302,7.9642,8.0295,8.0949,8.155,8.2125,8.2465,8.2465,8.2569,8.2622,8.2622,8.2522,8.2161,8.1686,8.0987,8.0264,7.9684,7.8641,7.7823,7.7107,7.5617,7.4232,7.2898,7.1304,7.0259,6.9631,6.8377,6.7488,6.6861,6.5815,6.4979,6.4273,6.3227,6.2339,6.1424,5.9803,5.8758,5.7974,5.6432,5.583,5.5674,5.5255,5.4628,5.3949,5.353,5.2485,5.123,5.0185,4.9505,4.8669,4.6917,4.6473,4.6003,4.4147,4.3625,4.3356,4.2921,4.2883,4.3067,4.3307,4.3473,4.3409,4.3012,4.3185,4.2808,4.1136,4.1177,4.0935,3.9768,3.9499,3.911,3.8272,3.7734,3.7105,3.6357,3.5818,3.5519,3.5519,3.5519,3.5519,3.5519,3.5519,3.5519,3.5519,3.5519,3.5519,3.5519,3.5519,3.5519,3.5519,3.5519,3.4921,4.9191,4.8407,4.8088,4.8859,5.0266,5.1922,0.0,0.0,5.7102,5.9059,6.1715,6.4482,6.6965,6.9834,7.245,7.431,7.6108,7.7573,7.822,7.8831,7.9015,7.857,7.9459,8.0348,8.0923,8.1524,8.1864,8.1864,8.2334,8.2622,8.2622,8.212,8.166,8.1089,7.9997,7.9173,7.8602,7.7954,7.7028,7.5904,7.5225,7.4022,7.235,7.1147,7.0259,6.9605,6.7906,6.6887,6.6312,6.5658,6.4743,6.3698,6.3071,6.1842,6.0274,5.9072,5.7921,5.6902,5.617,5.5595,5.5177,5.5125,5.4367,5.3478,5.3426,5.2223,5.0734,5.008,4.9505,4.8669,4.6917,4.6473,4.5898,4.365,4.3439,4.3455,4.2412,4.2782,4.3307,4.3519,4.3678,4.3726,4.3543,4.3555,4.3178,4.1794,4.1475,4.1115,4.0397,3.9768,3.8931,3.7644,3.7464,3.6926,3.5729,3.5549,3.5519,3.5519,3.5519,3.5519,3.5519,3.5519,3.5519,3.5519,3.5519,3.5519,3.5519,3.5519,3.5519,3.5519,3.5519,3.5429,4.9479,4.9401,5.0072,5.152,5.3616,5.5917,5.8031,6.036,6.2508,6.3986,6.6555,6.9013,7.0354,7.2474,7.432,0.0,7.6632,7.7634,7.7865,7.8119,7.81,7.7839,7.7629,7.8126,7.972,8.04,8.1027,8.1733,8.1994,8.2282,8.2622,8.1808,8.1067,8.0472,7.9383,7.856,7.7909,7.734,7.6545,7.5695,7.4807,7.3474,7.1748,7.0964,6.971,6.8115,6.707,6.6286,6.5711,6.5136,6.4404,6.3541,6.2313,6.098,5.9594,5.8444,5.7503,5.6667,5.5752,5.5282,5.5046,5.468,5.4053,5.3269,5.2563,5.1361,5.0159,4.9584,4.8773,4.7832,4.6761,4.6238,4.548,4.3493,4.3387,4.348,4.2332,4.2728,4.3355,4.3566,4.4032,4.4197,4.3717,4.3961,4.382,4.2643,4.2216,4.1602,4.0546,4.0157,3.932,3.7584,3.7075,3.6507,3.5579,3.5519,3.5519,3.5519,3.5519,3.5519,3.5519,3.5519,3.5519,3.5519,3.5519,3.5519,3.5519,3.5519,3.5519,3.5519,3.5519,3.5519,5.0193,5.0851,5.2362,5.4335,5.7074,5.9882,6.2174,6.4727,6.6867,6.7918,7.0013,7.1769,7.2599,7.3809,7.492,7.5685,7.6627,7.7446,7.7599,7.7513,7.7342,7.7028,7.58,7.5643,7.7342,7.8753,7.9982,8.0975,8.1341,8.1707,8.2125,8.1163,8.0373,7.9877,7.8719,7.7774,7.7314,7.6589,7.5937,7.5225,7.4075,7.2716,7.1147,7.0285,6.8873,6.707,6.6521,6.5841,6.5109,6.4691,6.4012,6.3071,6.1659,6.03,5.8993,5.7843,5.7059,5.6432,5.5438,5.5099,5.4994,5.4393,5.3844,5.3164,5.1962,5.0786,4.9766,4.9244,4.8355,4.7414,4.6656,4.6186,4.5428,4.3676,4.344,4.3431,4.2545,4.2787,4.3307,4.3662,4.4303,4.4641,4.4108,4.4368,4.4305,4.3467,4.2951,4.2162,4.0846,4.0187,3.929,3.7823,3.6956,3.6297,3.5818,3.5609,3.5519,3.5519,3.5519,3.5519,3.5519,3.5519,3.5519,3.5519,3.5519,3.5519,3.5519,3.5519,3.5519,3.5519,3.5519,3.5519,5.1677,0.0,5.5157,5.7363,6.0456,6.3524,6.5773,6.7725,6.9311,7.0438,7.1244,7.2036,7.3258,7.3519,7.3913,7.5072,7.6128,7.6984,7.7548,7.7513,7.7054,7.5904,7.4232,7.3212,0.0,7.6375,7.8623,7.9198,8.0269,8.0897,8.0923,7.9912,7.9357,7.9333,7.7762,7.6822,7.6745,7.5632,7.4768,7.4049,7.2898,7.1748,7.0572,6.8847,6.7723,6.7096,6.6521,6.5632,6.456,6.4534,6.3541,6.1973,6.1346,6.0065,5.8392,5.7268,5.6458,5.5857,5.5308,5.5099,5.4994,5.4393,5.3844,5.3164,5.1962,5.0786,4.9766,4.9244,4.8643,4.7885,4.6761,4.6473,4.6003,4.4278,4.3625,4.3305,4.3054,4.2964,4.3115,4.3832,4.4425,4.4847,4.5127,4.4832,4.4524,4.4295,4.3678,4.2821,4.1504,3.9649,3.8422,3.8362,3.7225,3.6477,3.6447,3.5878,3.5519,3.5519,3.5519,3.5519,3.5519,3.5519,3.5519,3.5519,3.5519,3.5519,3.5519,3.5519,3.5519,3.5519,3.5519,3.5519,5.3295,0.0,5.8159,6.0914,6.3808,6.6526,6.8493,6.9943,7.0884,7.0884,7.1127,7.1149,7.0805,7.1133,7.1595,7.2339,7.3943,7.5318,7.5882,7.5829,7.5486,7.4676,7.3029,0.0,0.0,0.0,0.0,7.7368,7.8884,7.9903,8.0295,7.9318,7.8946,7.9281,7.7379,7.6234,7.6123,7.5373,7.4508,7.3395,7.1879,7.0546,6.9396,6.8011,6.7096,6.6547,6.5946,6.524,6.4508,6.4116,6.3175,6.1868,6.0901,5.9464,5.7843,5.7085,5.6196,5.5334,5.5177,5.5099,5.4942,5.3975,5.3556,5.3034,5.1073,5.0185,4.9688,4.8747,4.8068,4.744,4.6682,4.6186,4.5558,4.4199,4.3808,4.3537,4.3131,4.3111,4.3307,4.3879,4.4537,4.5029,4.52,4.5004,4.4614,4.3758,4.309,4.2372,4.1504,4.0427,3.9379,3.8482,3.7614,3.6926,3.6507,3.5878,3.5519,3.5519,3.5519,3.5519,3.5519,3.5519,3.5519,3.5519,3.5519,3.5519,3.5519,3.5519,3.5519,3.5519,3.5519,3.5519,0.0,5.8801,6.1571,6.4266,6.6859,6.9054,7.023,7.0887,7.0988,7.0028,6.9194,6.8373,6.7493,6.7668,6.8346,6.9702,7.2105,7.4156,7.5242,7.544,7.5303,7.4702,7.2716,7.1409,0.0,0.0,0.0,7.5852,7.7603,7.8806,7.9381,7.8815,7.8647,7.8951,7.7152,7.6124,7.5807,7.5054,7.3793,7.2193,7.0703,6.9474,6.8507,6.7331,6.6625,6.6233,6.5423,6.4743,6.4168,6.3384,6.2391,6.1241,6.03,5.8862,5.732,5.6928,5.6092,5.5099,5.5099,5.5099,5.4916,5.3766,5.34,5.3008,5.0864,5.0054,4.9688,4.8773,4.8094,4.7492,4.6944,4.6425,4.5855,4.4884,4.4362,4.401,4.3677,4.3557,4.3746,4.4284,4.4862,4.536,4.5757,4.5437,4.478,4.3798,4.312,4.2372,4.1504,4.0816,3.9978,3.8871,3.8153,3.7614,3.7195,3.6567,3.6088,3.5878,3.5848,3.5759,3.5519,3.5519,3.5519,3.5519,3.5519,3.5519,3.5519,3.5519,3.5519,3.5519,3.5519,3.5519,5.997,6.2784,6.5258,6.7467,6.9551,7.1058,7.1008,7.048,6.9526,6.7819,6.566,6.3927,0.0,0.0,6.4254,6.7041,7.035,7.3309,7.5593,7.6243,7.6401,0.0,0.0,0.0,0.0,0.0,0.0,7.4702,0.0,7.7682,7.8231,7.8327,7.8309,7.8335,7.7236,7.6353,7.5695,7.4467,7.2768,7.0572,6.9396,6.8533,6.7906,6.6782,6.6259,6.6129,6.5005,6.4195,6.3541,6.2443,6.1267,6.0169,5.9594,5.8314,5.6798,5.6798,5.6092,5.5099,5.5099,5.5099,5.4916,5.3766,5.34,5.306,5.1309,5.0368,4.9766,4.9244,4.8643,4.8041,4.7492,4.7118,4.6763,4.6128,4.5342,4.4724,4.4621,4.4397,4.4381,4.5022,4.5367,4.5837,4.6697,4.6003,4.5095,4.4436,4.3738,4.2871,4.1594,4.0846,4.0187,3.9493,3.8811,3.8392,3.8392,3.7793,3.7165,3.6567,3.6537,3.6237,3.5579,3.5549,3.5549,3.5519,3.5519,3.5519,3.5519,3.5519,3.5519,3.5519,3.5519,3.5519,6.361,6.6363,6.8597,7.0405,7.0983,7.0857,7.0054,6.8145,6.586,6.3375,6.0763,5.8629,0.0,0.0,0.0,6.2973,6.7247,0.0,7.3653,7.5492,0.0,7.5774,0.0,7.3656,7.2768,7.3081,0.0,0.0,7.5852,7.7081,7.7656,7.7756,7.7894,7.8335,7.6457,7.5299,7.512,7.3081,7.1565,7.0572,6.9396,6.8298,6.7305,6.6599,6.5815,6.4953,6.4665,6.3959,6.2992,6.226,6.1267,6.0169,5.9594,5.8314,5.6798,5.6798,5.6092,5.5099,5.5099,5.5099,5.4916,5.3766,5.34,5.306,5.1309,5.0368,4.9766,4.9244,4.8643,4.8041,4.7492,4.7118,4.6763,4.6128,4.5635,4.5216,4.4975,4.5114,4.5317,4.539,4.6046,4.6491,4.648,4.6249,4.5663,4.4496,4.4167,4.3599,4.2321,4.1572,4.0876,4.0217,3.911,3.8392,3.8392,3.7793,3.7345,3.7195,3.7165,3.6896,3.6267,3.6237,3.5998,3.5519,3.5519,3.5519,3.5519,3.5519,3.5519,3.5519,3.5519,3.5519,6.7485,6.9598,7.1108,7.2037,7.1485,7.0255,6.8396,6.5459,6.227,5.9257,5.6244,0.0,5.3005,5.3959,0.0,0.0,0.0,0.0,7.3386,7.5803,7.7237,0.0,7.614,0.0,7.4702,7.4702,7.4859,0.0,7.6061,7.6871,7.7446,7.7711,7.792,7.7943,7.6227,7.4821,7.3787,7.1958,7.0755,7.018,6.8743,6.7723,6.707,6.6259,6.5397,6.4508,0.0,6.3646,6.2731,6.1659,6.0823,6.0143,5.9307,5.8104,5.6798,5.6798,5.6092,5.5099,5.5099,5.5099,5.4916,5.3766,5.34,5.3112,5.1596,5.0551,4.9819,4.9531,4.8944,4.8353,4.798,4.7725,4.7397,4.6886,4.6596,4.6342,4.5889,4.6118,4.6365,4.6175,4.6624,4.6986,4.6787,4.6459,4.5963,4.4915,4.4496,4.3958,4.291,4.1953,4.1115,4.0457,3.9469,3.8841,3.8841,3.8512,3.8153,3.7853,3.7853,3.7554,3.6926,3.6896,3.6716,3.6357,3.6058,3.5938,3.5938,3.5639,3.5519,3.5519,3.5519,3.5519,7.1244,7.2463,7.2916,7.2765,7.1309,6.915,6.6137,6.2345,5.8453,5.5013,0.0,4.9289,4.8812,5.0142,5.298,5.8027,0.0,6.9239,7.3283,7.6311,7.8152,7.8309,7.7525,7.6924,7.6845,7.6375,7.6244,7.6688,7.6715,7.695,7.7446,7.7943,7.7839,7.7028,7.6009,7.4414,7.2193,7.1121,7.0285,6.9684,6.7932,6.7096,6.7044,6.5894,6.5083,6.4508,0.0,0.0,6.2679,6.0953,6.0222,6.0117,5.8967,5.7817,5.6798,5.6798,5.6092,5.5099,5.5099,5.5099,5.4916,5.3844,5.3452,5.3191,5.2067,5.0864,4.9897,4.9897,4.9324,4.8663,4.8663,4.8471,4.8137,4.7918,4.7802,4.7582,4.7019,4.7105,4.7288,4.7126,4.7209,4.7309,4.7309,4.683,4.6232,4.5544,4.4855,4.4197,4.3499,4.2312,4.1265,4.0606,3.9948,3.9529,3.9403,3.9373,3.917,3.8571,3.8512,3.8212,3.7554,3.7524,3.7494,3.7404,3.6896,3.6596,3.6596,3.5968,3.5639,3.5639,3.5549,3.5519,7.3325,7.3925,7.3895,7.2991,7.048,6.7141,6.2973,5.8303,0.0,0.0,4.6276,4.4242,4.4141,4.5874,4.9088,5.4536,6.0456,6.6027,7.0934,7.465,7.7263,0.0,7.857,0.0,0.0,0.0,0.0,0.0,0.0,7.7368,7.7446,7.7551,7.6688,7.4676,7.4414,7.3421,7.1565,7.0912,7.0285,6.9684,6.7932,6.7096,6.7044,6.5894,6.5083,6.4508,0.0,0.0,6.2679,6.0953,6.0222,6.0117,5.8967,5.7817,5.6798,5.6798,5.6092,5.5099,5.5099,5.5099,5.4994,5.4288,5.3766,5.3269,5.2563,5.1204,4.9897,4.9897,4.9324,4.8663,4.8663,4.8471,4.8192,4.8137,4.8091,4.7909,4.744,4.7433,4.755,4.797,4.7625,4.7309,4.7309,4.7219,4.692,4.6262,4.5574,4.4885,4.4227,4.3,4.1991,4.1294,4.0636,4.0008,3.9433,3.9373,3.9343,3.926,3.923,3.8931,3.8242,3.8212,3.7973,3.7434,3.7315,3.7255,3.7255,3.6626,3.6327,3.6297,3.5759,3.5519,7.4686,7.5011,7.4448,7.274,6.9376,6.5343,6.0773,0.0,0.0,4.644,4.3437,4.1616,4.2007,4.394,4.7054,5.2051,5.8088,6.3689,6.8237,7.2782,0.0,7.729,7.8466,0.0,0.0,0.0,0.0,0.0,0.0,7.7786,7.7473,7.6871,7.5774,7.4049,7.3421,7.2428,7.099,7.0415,6.984,6.9239,6.7775,6.7096,6.707,6.592,6.5083,6.4508,6.3933,0.0,6.2679,6.0953,6.0222,6.0117,5.8967,5.7817,5.6798,5.6798,5.6092,5.5099,5.5099,5.5099,5.4994,5.4393,5.3948,5.3448,5.2555,5.1417,5.0439,5.0439,4.9887,4.9412,4.9412,4.9252,4.9057,4.8896,4.8822,4.8759,4.876,4.8453,4.8237,4.8312,4.7758,4.7309,4.7309,4.7309,4.707,4.6369,4.5753,4.5065,4.4407,4.3479,4.2611,4.1991,4.1294,4.0636,3.9978,3.9918,3.9798,3.9403,3.9373,3.926,3.8931,3.8931,3.8781,3.8452,3.8093,3.7913,3.7913,3.7285,3.6806,3.6477,3.6178,3.5818,7.5179,7.5343,7.4498,7.2138,6.812,6.3507,5.8706,5.2835,0.0,4.43,4.148,3.9778,4.0555,4.2333,4.5121,4.9364,5.5064,6.0428,6.4559,6.9902,7.388,0.0,0.0,0.0,0.0,0.0,0.0,0.0,0.0,0.0,7.7316,7.6166,7.5068,7.4049,7.2898,7.1748,7.0598,6.9997,6.9422,6.8821,6.7645,6.7096,6.7096,6.592,6.5136,6.4691,6.3985,0.0,0.0,6.1006,6.0222,6.0117,5.8967,5.7817,5.6798,5.6798,5.6092,5.5099,5.5099,5.5099,5.4994,5.4328,5.3973,5.3587,5.2622,5.1713,5.0976,5.0916,5.0586,5.0179,5.0123,5.0187,5.0231,4.9896,4.9658,4.9572,5.0011,4.9575,4.9012,4.8581,4.7967,4.7459,4.7339,4.7309,4.713,4.6621,4.5963,4.5274,4.4616,4.3958,4.3299,4.2641,4.2021,4.1324,4.0666,4.0487,4.0187,3.9679,3.9499,3.9373,3.9373,3.9373,3.9373,3.9373,3.8871,3.8601,3.8601,3.7943,3.7375,3.6896,3.6746,3.6417,7.4238,7.4498,7.3845,7.1108,6.6714,6.1697,5.6457,0.0,4.5226,4.2202,3.9574,3.8003,3.8562,3.9877,4.2032,4.5472,4.9837,5.4431,5.9196,6.4655,6.9293,7.2376,0.0,0.0,0.0,0.0,0.0,0.0,0.0,0.0,7.6688,7.5591,7.4676,7.4022,7.2898,7.1748,7.0598,6.9997,6.9422,6.8821,6.7645,6.7096,6.7044,6.5894,6.5345,6.524,0.0,0.0,0.0,6.1163,6.0222,6.0117,5.8967,5.7817,5.6798,5.6798,5.6092,5.5099,5.5099,5.5099,5.4982,5.409,5.3825,5.3666,5.3097,5.2154,5.1213,5.0976,5.0875,5.0739,5.0405,5.0982,5.1442,5.1054,5.0486,5.0154,5.0591,5.0228,4.9697,4.9314,4.87,4.7997,4.7399,4.7309,4.7279,4.7219,4.6651,4.5992,4.5274,4.4616,4.3917,4.329,4.2671,4.2051,4.1392,4.0756,4.0367,4.0307,3.9738,3.9373,3.9373,3.9373,3.9373,3.9373,3.9313,3.932,3.932,3.8631,3.8272,3.8212,3.7614,3.7285,7.269,7.3644,7.3343,7.0882,6.6434,6.1157,5.5527,0.0,4.4468,4.1235,3.8946,3.7646,3.7873,3.9196,4.0961,4.3168,4.7091,5.1354,5.5527,6.0906,6.5675,6.9318,0.0,0.0,0.0,0.0,0.0,0.0,0.0,0.0,7.5591,7.4807,7.3944,7.3003,7.1879,7.0886,7.0076,6.9474,6.8899,6.8324,6.7488,6.6913,6.6573,6.5763,6.5371,6.5318,0.0,0.0,0.0,6.1189,6.0222,6.0117,5.8967,5.7817,5.6798,5.6798,5.6092,5.5099,5.5365,5.5432,5.534,5.4849,5.4704,5.4566,5.3627,5.3185,5.288,5.2435,5.2377,5.2401,5.1843,5.2084,5.2413,5.219,5.163,5.1254,5.156,5.0849,5.0044,4.9867,4.9015,4.8207,4.7938,4.7578,4.7309,4.7309,4.6741,4.619,4.5963,4.5334,4.4646,4.3947,4.3329,4.2671,4.2081,4.1782,4.1414,4.1025,4.0367,4.0008,4.0008,3.9619,3.9373,3.9373,3.9373,3.9373,3.9373,3.914,3.8781,3.8392,3.8123,3.7793,6.9928,7.1435,7.1585,6.9351,6.4983,5.9794,0.0,0.0,4.3795,4.0813,3.8744,3.7542,3.7552,3.8685,4.0006,4.1339,4.4763,4.8451,5.1958,5.7152,6.2042,0.0,0.0,0.0,0.0,0.0,0.0,0.0,0.0,0.0,0.0,7.3918,7.3134,7.2323,7.12,7.0311,6.971,6.8952,6.8377,6.7985,6.7227,6.6652,6.6259,6.5658,6.5292,6.5083,0.0,0.0,0.0,6.111,6.0222,6.0091,5.8784,5.766,5.6798,5.6615,5.5935,5.5165,5.5472,5.5604,5.5657,5.5698,5.5654,5.5476,5.4864,5.4516,5.4284,5.3864,5.3807,5.3777,5.3559,5.336,5.3242,5.3199,5.2702,5.2215,5.2199,5.1468,5.0644,5.0255,4.9494,4.8805,4.8626,4.8027,4.7608,4.7608,4.704,4.6488,4.6309,4.5903,4.5334,4.4676,4.4018,4.3359,4.2701,4.25,4.2201,4.1752,4.1055,4.0696,4.0696,4.0247,4.0008,4.0008,3.9798,3.9709,3.9709,3.9529,3.917,3.8691,3.8691,3.8332,6.5434,6.7392,6.8145,6.5886,6.1832,5.7109,5.2425,4.7247,4.2837,4.0807,3.886,3.7505,3.7505,3.8009,3.8815,3.9956,4.2221,4.4936,4.8136,5.3289,0.0,0.0,0.0,0.0,0.0,0.0,0.0,0.0,0.0,0.0,0.0,7.2925,7.2323,7.2297,7.12,7.0311,6.971,6.856,6.8011,6.7985,6.6834,6.6286,6.6259,6.5658,6.5083,0.0,0.0,0.0,0.0,6.0953,6.0222,6.0039,5.834,5.732,5.6745,5.6144,5.5569,5.5165,5.5472,5.5604,5.5696,5.6505,5.6534,5.6421,5.7069,5.6193,5.4998,5.4941,5.4759,5.4672,5.5433,5.4743,5.3893,5.4142,5.3683,5.2995,5.2336,5.2187,5.1798,5.0435,5.0196,5.0002,4.9419,4.8716,4.8267,4.8267,4.7728,4.707,4.6369,4.6279,4.6052,4.5364,4.4706,4.4047,4.3349,4.2731,4.241,4.2381,4.1782,4.1422,4.1422,4.1354,4.1392,4.1392,4.0726,4.0397,4.0397,3.9738,3.9373,3.9373,3.9373,3.905,6.0638,6.2546,6.3256,6.2038,5.8755,5.4668,5.0292,4.6124,4.2476,4.0282,3.8721,3.7716,3.7551,3.8152,3.9013,3.9931,4.1868,4.4457,0.0,0.0,0.0,0.0,0.0,0.0,0.0,0.0,0.0,0.0,0.0,0.0,0.0,7.2114,7.1513,7.1147,7.0389,6.971,6.9108,6.8377,6.7775,6.7357,6.6625,6.6076,6.5658,6.5475,0.0,0.0,0.0,0.0,0.0,6.0953,6.0222,6.0039,5.834,5.7433,5.7062,5.6551,5.6106,5.5868,5.6459,5.685,5.7211,5.8111,5.8385,5.8285,5.8549,5.7657,5.6617,5.6793,5.6148,5.5411,5.5931,5.5406,5.4779,5.488,5.4371,5.3832,5.3623,5.2845,5.2067,5.1648,5.0794,5.0136,4.9972,4.9404,4.885,4.8356,4.8117,4.7728,4.707,4.698,4.6741,4.6082,4.5813,4.5203,4.4067,4.3419,4.303,4.303,4.2402,4.2081,4.2081,4.1662,4.1422,4.1422,4.1175,4.0846,4.0397,4.0187,3.9858,3.9373,3.9373,3.932,5.5001,5.682,5.7348,5.6937,5.4479,5.1216,4.7596,4.4528,4.1794,3.9703,3.8527,3.7854,3.769,3.8273,3.9111,4.0058,4.1746,0.0,0.0,0.0,0.0,0.0,0.0,0.0,0.0,0.0,0.0,0.0,0.0,0.0,0.0,7.1539,7.0834,7.0285,6.9893,6.9318,6.8533,6.7932,6.7357,6.6782,6.6207,6.5737,6.5371,6.5371,0.0,0.0,0.0,0.0,0.0,6.0771,6.0091,5.9725,5.8,5.7318,5.724,5.6449,5.6226,5.6367,5.6979,5.756,5.8234,5.9239,5.9626,5.9684,5.9449,5.8656,5.7915,5.8134,5.7457,5.6616,5.6534,5.6047,5.5508,5.5239,5.488,5.4521,5.4251,5.3533,5.2815,5.2306,5.1528,5.0853,5.0614,5.0062,4.9494,4.9075,4.8596,4.8147,4.7728,4.7459,4.716,4.6741,4.6429,4.595,4.5155,4.4186,4.3559,4.3319,4.294,4.2731,4.2731,4.2342,4.2132,4.2132,4.1863,4.1602,4.1145,4.0636,4.0187,3.9798,3.9529,3.9373,0.0,5.0453,5.0927,5.1256,4.9481,4.7077,4.4613,4.258,0.0,3.905,3.8318,3.7952,3.7952,3.8467,3.9186,4.0287,4.1878,0.0,0.0,0.0,0.0,0.0,0.0,0.0,0.0,0.0,0.0,0.0,0.0,0.0,0.0,7.1121,7.0232,6.9605,6.9579,6.9056,6.8011,6.7357,6.6782,6.6286,6.5684,6.5371,6.5371,6.5345,0.0,0.0,0.0,0.0,0.0,6.0483,5.9882,5.9202,5.7477,5.7004,5.7188,5.6093,5.6132,5.6758,5.7174,5.798,5.8933,6.0043,6.05,6.0506,5.9967,5.9284,5.8803,5.9045,5.862,5.7992,5.7334,5.6675,5.6068,5.5418,5.5209,5.5029,5.4401,5.4251,5.3832,5.2576,5.2276,5.2007,5.1379,5.0704,5.0255,5.0196,4.9194,4.8386,4.8297,4.7758,4.7369,4.7309,4.6741,4.6339,4.6279,4.5125,4.4107,4.3409,4.3349,4.3349,4.329,4.329,4.329,4.329,4.2701,4.241,4.241,4.1025,4.0397,4.0397,3.9738,3.9373,4.2624,0.0,4.6917,4.7213,4.6148,4.4668,0.0,4.1613,4.0252,3.8972,3.8606,3.8527,3.8527,3.901,3.9749,4.0901,0.0,0.0,0.0,0.0,0.0,0.0,0.0,0.0,0.0,0.0,0.0,0.0,0.0,0.0,0.0,7.0311,6.9448,6.8429,6.8403,6.8272,6.7985,6.6991,6.6416,6.6286,6.5684,6.5371,6.5371,6.4926,0.0,0.0,0.0,0.0,6.1084,6.0483,5.9882,5.9202,5.7477,5.7141,5.7595,5.6663,5.6952,5.7944,5.8515,5.9363,6.032,6.1642,6.1551,6.0962,6.0813,5.9946,5.8991,5.9099,5.862,5.8082,5.7932,5.7034,5.6188,5.5987,5.5568,5.5149,5.4999,5.4551,5.4132,5.3803,5.2905,5.2157,5.2007,5.1439,5.0764,5.0255,4.9927,4.9434,4.8416,4.8147,4.7848,4.7369,4.716,4.686,4.6309,4.5544,4.4796,4.4137,4.4077,4.3828,4.3319,4.329,4.329,4.329,4.2701,4.241,4.241,4.1025,4.0397,4.0397,3.9738,3.9373,4.0424,4.1724,4.2977,4.3762,4.3327,4.2398,4.1274,4.0488,3.973,3.8579,3.8527,3.871,3.871,3.9424,4.044,4.1822,4.3194,0.0,0.0,0.0,0.0,0.0,0.0,0.0,0.0,0.0,0.0,0.0,0.0,0.0,0.0,7.0023,6.9161,6.8037,6.7723,6.7462,6.72,6.6599,6.6155,6.5867,6.5528,6.524,6.4979,6.4665,0.0,0.0,0.0,0.0,6.0666,6.0065,5.9333,5.847,5.7268,5.7051,5.7357,5.6846,5.7468,5.8739,5.9267,6.0226,6.1376,6.2142,6.1771,6.1044,6.0745,5.9907,5.9099,5.9099,5.886,5.8501,5.8201,5.7363,5.6526,5.6308,5.5658,5.5179,5.5179,5.491,5.4581,5.4281,5.3354,5.2546,5.2247,5.1648,5.1109,5.0704,5.0375,4.9927,4.9284,4.8925,4.8476,4.7818,4.7758,4.7489,4.683,4.6441,4.5813,4.4825,4.4766,4.4466,4.3768,4.3738,4.3589,4.329,4.3,4.2791,4.2791,4.1803,4.1332,4.1294,4.0636,4.0157,4.0252,4.0143,4.018,4.1595,4.1491,4.0891,4.0073,3.9808,3.9442,3.837,3.8658,3.9128,3.9233,4.0199,4.1541,0.0,0.0,0.0,0.0,0.0,0.0,0.0,0.0,0.0,0.0,0.0,0.0,0.0,0.0,0.0,0.0,6.9814,0.0,6.788,6.7279,6.6704,6.6155,6.6155,6.5894,6.5371,6.5292,6.5005,6.4534,6.4351,6.3698,0.0,0.0,0.0,6.0039,5.9464,5.8627,5.7651,5.6928,5.6829,5.6971,5.6778,5.7761,5.9363,5.992,6.1015,6.2204,6.2249,6.1792,6.1134,6.0446,5.9787,5.9249,5.9129,5.9099,5.8979,5.8411,5.7752,5.7094,5.6466,5.5807,5.5299,5.5209,5.5179,5.5029,5.4461,5.3803,5.3114,5.2456,5.1798,5.1319,5.1229,5.0704,5.0315,5.0196,4.9763,4.9164,4.8506,4.8356,4.8057,4.7489,4.7369,4.683,4.5663,4.5514,4.5155,4.4496,4.4377,4.4007,4.3439,4.3349,4.329,4.329,4.2671,4.241,4.2381,4.1722,4.1085,4.0122,4.0676,4.1304,4.2501,4.2396,4.1796,4.1219,4.0644,4.0122,3.9468,4.0174,4.1063,4.1533,4.2578,4.3998,0.0,0.0,0.0,0.0,0.0,0.0,0.0,0.0,0.0,0.0,0.0,0.0,0.0,0.0,0.0,0.0,0.0,0.0,6.7253,6.6704,6.6129,6.5528,6.5528,6.5475,6.5371,6.49,6.4613,6.4508,6.3515,6.2731,0.0,0.0,6.0588,5.9464,5.8889,5.8261,5.7625,5.6458,5.646,5.6971,5.7039,5.8079,5.983,6.1554,6.2322,6.2585,6.2844,6.248,6.1822,6.1164,6.0475,5.9817,5.9249,5.9099,5.9069,5.8979,5.8471,5.7782,5.7124,5.6466,5.5867,5.5299,5.5179,5.5149,5.5059,5.4521,5.3832,5.3144,5.2486,5.1858,5.1319,5.1139,5.0823,5.0255,5.0106,4.9853,4.9239,4.8626,4.8237,4.8147,4.7638,4.7219,4.701,4.6471,4.5873,4.5155,4.4616,4.4257,4.4167,4.3589,4.329,4.329,4.2671,4.241,4.2381,4.1722,4.1324,4.02,4.1298,4.2448,4.3284,4.3049,4.2474,4.1899,4.1794,4.1664,4.1115,4.1899,4.2866,4.3467,4.4723,4.6849,5.0572,0.0,0.0,0.0,0.0,0.0,0.0,0.0,0.0,0.0,0.0,0.0,0.0,0.0,0.0,0.0,0.0,0.0,0.0,6.6416,6.5998,6.5397,6.5083,6.4926,6.4926,6.4665,6.4221,6.3567,6.2757,6.2051,6.145,0.0,5.9699,5.8862,5.8499,5.7808,5.7009,5.666,5.6731,5.7201,5.838,5.9397,6.0409,6.2057,6.2615,6.2613,6.2545,6.2331,6.1972,6.1313,6.0894,6.0505,5.9817,5.9368,5.9099,5.9099,5.862,5.8052,5.7723,5.6885,5.6128,5.5777,5.5448,5.5179,5.5179,5.467,5.4102,5.3773,5.2875,5.2097,5.1798,5.1439,5.1109,5.0764,5.0734,5.0511,4.9853,4.9523,4.9194,4.888,4.8207,4.7698,4.7339,4.6681,4.613,4.5873,4.5214,4.4676,4.4317,4.4018,4.3648,4.329,4.303,4.288,4.288,4.2581,4.2252,4.0122,4.1402,4.2788,4.3493,4.3546,4.3363,4.3049,4.352,4.3938,4.365,4.4487,4.5506,4.6238,4.8058,0.0,5.4905,0.0,0.0,0.0,0.0,0.0,0.0,0.0,0.0,0.0,0.0,0.0,0.0,0.0,0.0,0.0,0.0,0.0,0.0,6.6155,6.5789,6.5188,6.4743,6.4534,6.4534,6.4273,6.3593,6.26,6.2025,6.1372,6.0666,5.9751,5.8967,5.8261,5.8104,5.7399,5.6516,5.6784,5.7162,5.7752,5.9611,6.0499,6.0984,6.2204,6.2615,6.2584,6.2366,6.2331,6.2211,6.1553,6.1343,6.1194,6.0505,5.9967,5.9518,5.9189,5.874,5.8321,5.8171,5.7363,5.6585,5.6406,5.5897,5.5418,5.5418,5.488,5.4401,5.4251,5.3354,5.2576,5.2247,5.1768,5.1379,5.1229,5.1229,5.102,5.0465,5.0285,4.9972,4.9359,4.87,4.8057,4.7578,4.692,4.6518,4.6518,4.5903,4.5214,4.4556,4.4377,4.3947,4.329,4.329,4.329,4.329,4.329,4.306,3.9651,4.054,4.1716,4.2814,4.3859,4.4774,4.5271,4.6182,4.7153,4.7649,4.8669,4.9793,5.0917,5.3653,5.6305,5.8102,0.0,0.0,0.0,0.0,0.0,0.0,0.0,0.0,0.0,0.0,0.0,0.0,0.0,0.0,0.0,0.0,0.0,0.0,0.0,6.5188,6.4587,6.456,6.4534,6.4534,6.3463,6.2626,6.2025,6.145,6.0561,5.949,5.9483,5.8803,5.7756,5.7499,5.7029,5.6489,5.6596,5.7431,5.8767,6.0104,6.0834,6.1313,6.2263,6.2615,6.2673,6.2903,6.3019,6.2869,6.2241,6.2032,6.1882,6.1224,6.1014,6.0685,5.9428,5.9069,5.889,5.8261,5.8052,5.7812,5.7154,5.6526,5.6158,5.6158,5.5568,5.491,5.4311,5.4132,5.3653,5.2396,5.2157,5.1917,5.1289,5.1229,5.1199,5.1139,5.0554,4.9972,4.9359,4.87,4.8267,4.8207,4.7608,4.7249,4.7249,4.6591,4.5933,4.5244,4.4616,4.3947,4.329,4.329,4.329,4.329,4.329,4.326,3.9155,4.0148,4.1585,4.2735,4.4696,4.6525,4.71,4.8956,5.0812,5.1727,5.2825,5.3739,5.4015,0.0,5.847,0.0,0.0,0.0,0.0,0.0,0.0,0.0,0.0,0.0,0.0,0.0,0.0,0.0,0.0,0.0,0.0,0.0,0.0,0.0,0.0,6.4743,6.4534,6.3829,6.3306,6.294,6.2862,6.2339,6.1424,6.0823,6.0117,5.9333,5.8672,5.7869,5.7154,5.7097,5.6917,5.6688,5.7999,5.9086,5.9981,6.0865,6.1315,6.1583,6.2322,6.2615,6.2673,6.3021,6.3079,6.3019,6.278,6.272,6.257,6.1912,6.1732,6.1403,6.0057,5.9727,5.9548,5.889,5.8411,5.8052,5.7782,5.7214,5.6645,5.6308,5.5987,5.5598,5.494,5.4491,5.4042,5.3533,5.3084,5.2725,5.2486,5.2067,5.1828,5.1828,5.1229,5.0571,4.9912,4.9643,4.9134,4.8327,4.7668,4.7309,4.7309,4.707,4.6621,4.5933,4.5693,4.5214,4.4556,4.4556,4.4347,4.3917,4.3917,4.3678,3.8658,3.9703,4.135,4.2683,4.548,4.8329,4.9976,5.2328,5.4497,5.583,5.7033,5.7737,5.7487,5.8686,0.0,0.0,0.0,0.0,0.0,0.0,0.0,0.0,0.0,0.0,0.0,0.0,0.0,0.0,0.0,0.0,0.0,0.0,0.0,0.0,0.0,6.4168,6.3985,6.3045,6.226,6.1711,6.1894,6.1502,6.0561,6.0143,5.9542,5.8855,5.807,5.7216,5.6552,5.6902,5.7166,5.7569,5.9239,6.0287,6.0986,6.1554,6.1791,6.185,6.2439,6.2615,6.2673,6.3021,6.3079,6.3079,6.3079,6.3079,6.2989,6.254,6.2421,6.2151,6.1014,6.0416,5.9967,5.9518,5.8919,5.8441,5.8441,5.7902,5.7304,5.6885,5.6466,5.6017,5.5568,5.497,5.4461,5.4251,5.3803,5.3443,5.3204,5.2785,5.2426,5.2217,5.1798,5.1259,5.0554,5.0315,4.9807,4.8955,4.8297,4.7728,4.7309,4.7309,4.698,4.6279,4.6279,4.5992,4.5304,4.5304,4.5065,4.4616,4.4407,4.4077,3.8214,3.9128,4.0827,4.2605,4.6107,5.0159,5.421,5.6458,5.8183,5.9934,6.1189,6.1924,6.1521,6.1454,0.0,0.0,0.0,0.0,0.0,0.0,0.0,0.0,0.0,0.0,0.0,0.0,0.0,0.0,0.0,0.0,0.0,0.0,0.0,0.0,0.0,0.0,6.2835,6.226,6.1685,6.1084,6.0483,5.9908,5.9359,5.9359,5.8803,5.773,5.7704,5.6981,5.5977,5.6717,5.7857,5.9301,5.992,6.0774,6.1673,6.1969,6.2116,6.2175,6.2498,6.2615,6.2673,6.3021,6.3079,6.3079,6.3079,6.3079,6.3079,6.3079,6.3079,6.2929,6.2271,6.1104,6.0116,6.0086,5.9578,5.9129,5.9099,5.859,5.8141,5.8112,5.7064,5.6248,5.6218,5.5628,5.497,5.4311,5.4221,5.3982,5.3294,5.3204,5.2935,5.2276,5.2187,5.1947,5.1289,5.0584,5.0196,5.0196,4.9643,4.8686,4.7369,4.7309,4.701,4.6309,4.6279,4.5992,4.5304,4.5304,4.5304,4.5274,4.4646,4.4317,3.8214,3.9128,4.1036,4.3624,4.7283,5.1439,5.5883,5.8549,6.0927,6.3881,6.443,6.4038,6.2844,6.2613,0.0,0.0,0.0,0.0,0.0,0.0,0.0,0.0,0.0,0.0,0.0,0.0,0.0,0.0,0.0,0.0,0.0,0.0,0.0,0.0,0.0,0.0,6.2234,6.1659,6.0875,5.9882,5.9307,5.8941,5.8758,5.8758,5.8271,5.7377,5.7025,5.6792,5.6757,5.7515,5.8626,5.9953,6.0805,6.1791,6.2643,6.2759,6.2759,6.2847,6.2905,6.2963,6.2963,6.3079,6.3079,6.3079,6.3079,6.3079,6.3079,6.3079,6.3079,6.3019,6.2839,6.2151,6.1253,6.0296,5.9937,5.9668,5.9189,5.8949,5.868,5.8201,5.7423,5.6675,5.6256,5.5628,5.5119,5.494,5.491,5.467,5.3982,5.3892,5.3653,5.2965,5.2486,5.2127,5.1917,5.1319,5.0674,5.0226,5.0016,4.9374,4.8057,4.7997,4.7698,4.704,4.701,4.692,4.6711,4.6711,4.6471,4.6022,4.5813,4.5454,3.871,3.9991,4.2213,4.5349,4.9348,5.3949,5.9464,6.1999,6.3959,6.673,6.6652,6.5709,6.4559,6.4038,0.0,0.0,0.0,0.0,0.0,0.0,0.0,0.0,0.0,0.0,0.0,0.0,0.0,0.0,0.0,0.0,0.0,0.0,0.0,0.0,0.0,0.0,6.1267,6.0718,6.0065,5.9359,5.8549,5.8052,5.7843,5.7843,5.7528,5.695,5.6504,5.6532,5.6968,5.7825,5.8927,6.0198,6.1226,6.2204,6.3079,6.3079,6.3079,6.3079,6.3079,6.3079,6.3079,6.3079,6.3079,6.3079,6.3079,6.3079,6.3079,6.3079,6.3079,6.3079,6.3079,6.278,6.2211,6.1134,6.0475,5.9967,5.9578,5.9279,5.8979,5.859,5.7962,5.7304,5.6645,5.6017,5.5508,5.5239,5.5179,5.5029,5.464,5.461,5.4341,5.3653,5.3234,5.2905,5.2606,5.1977,5.1439,5.1003,5.0734,5.0152,4.9105,4.8566,4.8087,4.7698,4.7429,4.7309,4.7309,4.7309,4.71,4.6711,4.6399,4.607,3.952,4.1402,4.4016,4.7545,5.2093,5.7425,6.3907,6.5841,6.6782,6.8481,0.0,6.7044,6.6469,0.0,0.0,0.0,0.0,0.0,0.0,0.0,0.0,0.0,0.0,0.0,0.0,0.0,0.0,0.0,0.0,0.0,0.0,0.0,0.0,0.0,0.0,0.0,6.0143,5.9568,5.9255,0.0,5.8052,5.7216,5.6719,5.6719,5.661,5.6436,5.6305,5.6394,5.6812,5.788,5.8989,6.0198,6.1226,6.2204,6.3079,6.3079,6.3079,6.3079,6.3079,6.3079,6.3079,6.3079,6.3079,6.3079,6.3079,6.3079,6.3079,6.3079,6.3079,6.3079,6.3079,6.3019,6.2839,6.2241,6.1104,6.0146,6.0027,5.9518,5.9099,5.9099,5.859,5.7932,5.7304,5.6675,5.6047,5.5388,5.5239,5.5179,5.5179,5.5179,5.497,5.4371,5.4251,5.3952,5.3324,5.2606,5.2187,5.2187,5.1588,5.096,5.0315,4.9075,4.8356,4.8297,4.7638,4.7309,4.7309,4.7309,4.7309,4.7309,4.6681,4.6369,4.0118,4.2265,4.5297,4.9244,5.5412,6.1346,6.4639,6.5841,6.6782,6.8481,6.8298,6.7619,0.0,0.0,0.0,0.0,0.0,0.0,0.0,0.0,0.0,0.0,0.0,0.0,0.0,0.0,0.0,0.0,0.0,0.0,0.0,0.0,0.0,0.0,0.0,6.0013,5.9542,5.8993,5.847,0.0,5.685,5.6223,5.6092,5.6092,5.6115,5.6252,5.6708,5.6979,5.7174,5.8487,5.9397,6.0259,6.1494,6.2468,6.3079,6.3079,6.3079,6.3079,6.3079,6.3079,6.3079,6.3079,6.3079,6.3079,6.3079,6.3079,6.3079,6.3079,6.3079,6.3079,6.3079,6.269,6.2271,6.2121,6.1493,6.0595,5.9548,5.9189,5.9099,5.9099,5.859,5.8082,5.7932,5.7334,5.6675,5.6047,5.5538,5.5179,5.5179,5.5179,5.5149,5.4999,5.4521,5.4162,5.4012,5.2905,5.2187,5.2187,5.1588,5.1169,5.102,4.9763,4.885,4.8297,4.7638,4.7309,4.7309,4.7309,4.7309,4.7309,4.716,4.71,4.0852,4.3204,4.6878,5.3333,5.8862,6.3306,6.5345,6.6259,6.6913,6.7828,6.7749,0.0,0.0,0.0,0.0,0.0,0.0,0.0,0.0,0.0,0.0,0.0,0.0,0.0,0.0,0.0,0.0,0.0,0.0,0.0,0.0,0.0,0.0,0.0,5.9281,5.8836,5.862,5.7974,5.7556,5.7242,5.6327,5.5778,5.5517,5.5852,5.6001,5.6132,5.685,5.7303,5.756,5.8739,5.9645,6.0442,6.1613,6.2526,6.3079,6.3079,6.3079,6.3079,6.3079,6.3079,6.3079,6.3079,6.3079,6.3079,6.3079,6.3079,6.3079,6.3079,6.3079,6.3079,6.3079,6.26,6.2032,6.1702,6.1104,6.0446,5.9727,5.9338,5.9099,5.9099,5.883,5.8501,5.8171,5.7304,5.6526,5.6278,5.5598,5.5179,5.5179,5.5179,5.5179,5.5179,5.488,5.467,5.467,5.3743,5.3025,5.2695,5.2067,5.1558,5.1229,5.0272,4.9434,4.882,4.7788,4.7309,4.7309,4.7309,4.7309,4.7309,4.7309,4.7309,4.1346,4.4494,4.9127,5.7076,6.1241,6.3803,6.5449,6.6181,6.6495,6.6495,0.0,0.0,0.0,0.0,0.0,0.0,0.0,0.0,0.0,0.0,0.0,0.0,0.0,0.0,0.0,0.0,0.0,0.0,0.0,0.0,0.0,0.0,5.9176,5.9072,5.8052,5.7503,5.7503,5.6928,5.6641,5.6641,5.604,5.5543,5.5099,5.5802,5.6132,5.6263,5.6979,5.7496,5.788,5.8864,5.9797,6.0684,6.1673,6.2526,6.3079,6.3079,6.3079,6.3079,6.3079,6.3079,6.3079,6.3079,6.3079,6.3079,6.3079,6.3079,6.3079,6.3079,6.3079,6.3079,6.3079,6.251,6.1792,6.1253,6.0505,5.9907,5.9907,5.9488,5.9099,5.9099,5.9099,5.8919,5.8381,5.7304,5.6466,5.6346,5.5777,5.5329,5.5209,5.5179,5.5179,5.5179,5.5179,5.5179,5.5179,5.4581,5.3952,5.3384,5.2636,5.1947,5.1409,5.0614,5.0002,4.9464,4.8147,4.7489,4.7489,4.7369,4.7309,4.7309,4.7309,4.7309,4.1021,4.6559,5.2971,5.6892,6.0065,6.2522,6.375,0.0,6.4142,0.0,0.0,0.0,0.0,0.0,0.0,0.0,0.0,0.0,0.0,0.0,0.0,0.0,0.0,0.0,0.0,0.0,0.0,0.0,0.0,0.0,0.0,5.9019,5.8392,5.7965,5.7268,5.6928,5.6928,5.6327,5.604,5.6013,5.5465,5.5177,5.5099,5.5802,5.6236,5.6563,5.7303,5.7816,5.8198,5.9239,6.0043,6.0684,6.1673,6.2526,6.3079,6.3079,6.3079,6.3079,6.3079,6.3079,6.3079,6.3079,6.3079,6.3079,6.3079,6.3079,6.3079,6.3079,6.3079,6.3079,6.3079,6.2181,6.1224,6.1134,6.0146,5.9249,5.9249,5.9159,5.9099,5.9099,5.9099,5.9069,5.8979,5.8351,5.7663,5.7064,5.6436,5.5837,5.5269,5.5179,5.5179,5.5179,5.5179,5.5179,5.5179,5.4581,5.4162,5.4072,5.2905,5.2157,5.2067,5.0853,5.0136,5.0076,4.8835,4.8147,4.8147,4.7578,4.7309,4.7309,4.7309,4.7309,4.1955,4.6774,5.1998,5.5415,5.8392,6.0823,6.1973,6.2496,6.2731,0.0,0.0,0.0,0.0,0.0,0.0,0.0,0.0,0.0,0.0,0.0,0.0,0.0,0.0,0.0,0.0,0.0,0.0,0.0,0.0,0.0,5.8515,5.7869,5.7451,5.719,5.6615,5.6301,5.6301,5.5726,5.5465,5.5465,5.5229,5.5099,5.5099,5.5802,5.6367,5.6952,5.7688,5.8388,5.9052,5.9735,6.047,6.1226,6.185,6.2526,6.3079,6.3079,6.3079,6.3079,6.3079,6.3079,6.3079,6.3079,6.3079,6.3079,6.3079,6.3079,6.3079,6.3079,6.3079,6.3079,6.3079,6.2091,6.1104,6.1104,6.0086,5.9099,5.9099,5.9099,5.9099,5.9099,5.9099,5.9099,5.9099,5.856,5.8022,5.7723,5.7124,5.6585,5.6286,5.6256,5.6137,5.5777,5.5748,5.5598,5.5209,5.491,5.461,5.4221,5.3653,5.2995,5.2247,5.1648,5.1122,5.0734,4.9494,4.888,4.888,4.8536,4.8416,4.8416,4.8416,4.8207,4.211,4.5874,4.9775,5.2896,5.5939,5.8463,0.0,0.0,0.0,0.0,0.0,0.0,0.0,0.0,0.0,0.0,0.0,0.0,0.0,0.0,0.0,0.0,0.0,0.0,0.0,0.0,0.0,0.0,0.0,0.0,5.7477,5.6902,5.6588,5.6588,5.6013,5.57,5.57,5.5308,5.5099,5.5099,5.5099,5.5099,5.5099,5.5802,5.6563,5.7377,5.8107,5.8989,5.9981,6.0409,6.1015,6.1791,6.2116,6.2585,6.3079,6.3079,6.3079,6.3079,6.3079,6.3079,6.3079,6.3079,6.3079,6.3079,6.3079,6.3079,6.3079,6.3079,6.3079,6.3079,6.3079,6.2091,6.1104,6.1104,6.0086,5.9099,5.9099,5.9099,5.9099,5.9099,5.9099,5.9099,5.9099,5.871,5.8321,5.8141,5.7693,5.7304,5.7124,5.7094,5.6915,5.6466,5.6308,5.5987,5.5478,5.5299,5.497,5.4491,5.4311,5.3773,5.2755,5.2546,5.2217,5.1738,5.0601,4.9853,4.9523,4.9389,4.9299,4.9299,4.9299,4.906,4.0475,4.3785,4.7371,4.9218,5.2286,5.5247,0.0,0.0,0.0,0.0,0.0,0.0,0.0,0.0,0.0,0.0,0.0,0.0,0.0,0.0,0.0,0.0,0.0,0.0,0.0,0.0,0.0,0.0,0.0,0.0,5.685,5.6275,5.5961,5.5961,5.5412,5.5151,5.5151,5.5125,5.5099,5.5099,5.5099,5.5099,5.5099,5.5802,5.6796,5.8115,5.8836,5.9735,6.0681,6.1255,6.1732,6.2116,6.2439,6.2789,6.3079,6.3079,6.3079,6.3079,6.3079,6.3079,6.3079,6.3079,6.3079,6.3079,6.3079,6.3079,6.3079,6.3079,6.3079,6.3079,6.3079,6.2091,6.1104,6.1104,6.0086,5.9099,5.9099,5.9099,5.9099,5.9099,5.9099,5.9099,5.9099,5.9069,5.883,5.8231,5.8082,5.7842,5.7184,5.7094,5.7094,5.7064,5.6526,5.6218,5.6188,5.5538,5.5179,5.5149,5.4551,5.4192,5.4102,5.3473,5.3114,5.3084,5.2396,5.1439,5.0136,4.9583,4.9299,4.9299,4.9299,4.9299,3.9679,4.1822,4.4381,4.6542,4.9174,5.166,5.3392,0.0,0.0,0.0,0.0,0.0,0.0,0.0,0.0,0.0,0.0,0.0,0.0,0.0,0.0,0.0,0.0,0.0,0.0,0.0,0.0,0.0,0.0,0.0,5.5726,5.5517,5.5386,5.5386,5.5203,5.5099,5.5099,5.4707,5.4524,5.4524,5.4524,5.4656,5.4853,5.5945,5.7184,5.8467,5.9645,6.0563,6.1315,6.1732,6.2116,6.2439,6.2556,6.2789,6.3079,6.3079,6.3079,6.3079,6.3079,6.3079,6.3079,6.3079,6.3079,6.3079,6.3079,6.3079,6.3079,6.3079,6.3079,6.3079,6.3079,6.2091,6.0894,6.0027,5.9458,5.9099,5.9099,5.9099,5.9099,5.9099,5.9099,5.9099,5.9099,5.9099,5.9009,5.88,5.874,5.868,5.8411,5.8381,5.8231,5.7812,5.7154,5.6585,5.6248,5.5568,5.5179,5.5179,5.497,5.464,5.4221,5.3982,5.3623,5.3204,5.2935,5.2396,5.1498,5.084,5.0511,5.0511,5.0511,5.0301,3.9196,4.064,4.246,4.4192,4.6302,4.8393,4.9935,0.0,0.0,0.0,0.0,0.0,0.0,0.0,0.0,0.0,0.0,0.0,0.0,0.0,0.0,0.0,0.0,0.0,0.0,0.0,0.0,0.0,0.0,0.0,5.5125,5.5099,5.502,5.4811,5.4628,5.4524,5.4524,5.4131,5.3922,5.3922,5.3922,5.4118,5.4443,5.574,5.7141,5.8563,5.999,6.1046,6.1791,6.2234,6.2526,6.2789,6.2789,6.2905,6.3079,6.3079,6.3079,6.3079,6.3079,6.3079,6.3079,6.3079,6.3079,6.3079,6.3079,6.3079,6.3079,6.3079,6.3079,6.3079,6.3079,6.2091,6.0775,5.9428,5.9099,5.9099,5.9099,5.9099,5.9099,5.9099,5.9099,5.9099,5.9099,5.9099,5.9099,5.9099,5.9099,5.9099,5.9099,5.9099,5.8949,5.8501,5.7842,5.7274,5.6855,5.6017,5.5538,5.5538,5.5299,5.4999,5.4551,5.4551,5.4311,5.3862,5.3623,5.3324,5.2875,5.2217,5.1887,5.1887,5.1648,5.1199,0.0,0.0,0.0,4.2137,0.0,0.0,4.6384,0.0,0.0,0.0,0.0,0.0,0.0,0.0,0.0,0.0,0.0,0.0,0.0,0.0,0.0,0.0,0.0,0.0,0.0,0.0,0.0,0.0,0.0,5.5072,5.5099,5.5072,5.4811,5.421,5.3661,5.34,5.34,5.3373,5.3373,5.3373,5.3373,5.3541,5.3836,5.5216,5.673,5.8311,5.9912,6.1195,6.2175,6.2847,6.3079,6.3079,6.3079,6.3079,6.3079,6.3079,6.3079,6.3079,6.3079,6.3079,6.3079,6.3079,6.3079,6.3079,6.3079,6.3079,6.3079,6.3079,6.3079,6.3079,6.3019,6.2061,6.0775,5.9428,5.9099,5.9099,5.9099,5.9099,5.9099,5.9099,5.9099,5.9099,5.9099,5.9099,5.9099,5.9099,5.9099,5.9099,5.9099,5.9099,5.9099,5.9099,5.853,5.8112,5.8112,5.6944,5.6248,5.6218,5.5568,5.5209,5.5179,5.5179,5.5179,5.5179,5.4551,5.4251,5.4251,5.3533,5.3174,5.3174,5.2516,5.1887,3.9915,0.0,0.0,0.0,0.0,0.0,4.3944,4.4794,0.0,0.0,0.0,0.0,0.0,0.0,0.0,0.0,0.0,0.0,0.0,0.0,0.0,0.0,0.0,0.0,0.0,0.0,0.0,0.0,5.4524,5.4654,5.5072,5.468,5.4184,5.3635,5.3478,5.34,5.34,5.2955,5.2746,5.2746,5.2975,5.3419,5.4012,5.5978,5.7605,5.9041,6.0636,6.1732,6.2498,6.2905,6.3079,6.3079,6.3079,6.3079,6.3079,6.3079,6.3079,6.3079,6.3079,6.3079,6.3079,6.3079,6.3079,6.3079,6.3079,6.3079,6.3079,6.3079,6.3079,6.2869,6.1912,6.1373,6.0775,5.9428,5.9099,5.9099,5.9099,5.9099,5.9099,5.9099,5.9099,5.9099,5.9099,5.9099,5.9099,5.9099,5.9099,5.9099,5.9099,5.9099,5.9099,5.9099,5.853,5.8112,5.8112,5.7334,5.6645,5.6248,5.6068,5.5688,5.5209,5.5179,5.5179,5.5179,5.4999,5.491,5.491,5.3743,5.3174,5.3174,5.2995,5.2815,4.0895,4.0958,4.1255,4.1794,0.0,0.0,4.1984,4.2419,4.2892,0.0,0.0,0.0,0.0,0.0,0.0,0.0,0.0,0.0,0.0,0.0,0.0,0.0,0.0,0.0,0.0,0.0,0.0,0.0,5.387,5.4027,5.4367,5.3818,5.3347,5.3034,5.2772,5.2642,5.2642,5.2302,5.2119,5.2119,5.2434,5.2997,5.367,5.5737,5.7575,5.9121,6.0734,6.1762,6.2372,6.2603,6.2839,6.3079,6.3079,6.3079,6.3079,6.3079,6.3079,6.3079,6.3079,6.3079,6.3079,6.3079,6.3079,6.3079,6.3079,6.3079,6.3079,6.3079,6.3079,6.278,6.1463,6.1104,6.0775,5.9428,5.9099,5.9099,5.9099,5.9099,5.9099,5.9099,5.9099,5.9099,5.9099,5.9099,5.9099,5.9099,5.9099,5.9099,5.9099,5.9099,5.9099,5.9099,5.877,5.853,5.853,5.7902,5.7363,5.7004,5.6705,5.6376,5.5987,5.5748,5.5598,5.5598,5.5329,5.5179,5.5179,5.4401,5.3862,5.3623,5.3623,5.3443,4.1983,4.2076,4.2251,0.0,0.0,0.0,4.0584,4.0608,4.0873,0.0,0.0,0.0,0.0,0.0,0.0,0.0,0.0,0.0,0.0,0.0,0.0,0.0,0.0,0.0,0.0,0.0,5.306,5.3191,5.3321,5.3373,5.3295,5.2772,5.2433,5.2302,5.1779,5.1465,5.1413,5.1465,5.1518,5.1518,5.197,5.2492,5.3254,5.5132,5.7005,5.887,6.0412,6.1428,6.2002,6.2002,6.2361,6.2959,6.2959,6.3019,6.3079,6.3079,6.3079,6.3079,6.3079,6.3079,6.3079,6.3079,6.3079,6.3079,6.3079,6.3079,6.3079,6.3079,6.3019,6.269,6.1433,6.1044,6.0685,5.9398,5.9099,5.9099,5.9099,5.9099,5.9099,5.9099,5.9099,5.9099,5.9099,5.9099,5.9099,5.9099,5.9099,5.9099,5.9099,5.9099,5.9099,5.9099,5.9099,5.9099,5.9099,5.856,5.8201,5.8112,5.7543,5.7184,5.7094,5.6555,5.6286,5.6286,5.5688,5.5388,5.5388,5.5269,5.488,5.4311,5.4311,5.3982,0.0,0.0,0.0,0.0,0.0,0.0,4.1213,4.0292,3.9637,0.0,0.0,0.0,0.0,0.0,0.0,0.0,0.0,0.0,0.0,0.0,0.0,0.0,0.0,0.0,0.0,0.0,5.0969,5.1884,5.2851,5.3191,5.2694,5.2563,5.2067,5.1152,5.1021,5.0707,5.0237,5.0707,5.0943,5.0943,5.2006,5.2956,5.3866,5.5849,5.7452,5.8894,6.0166,6.0946,6.1313,6.1313,6.1702,6.2301,6.2301,6.26,6.3079,6.3079,6.3079,6.3079,6.3079,6.3079,6.3079,6.3079,6.3079,6.3079,6.3079,6.3079,6.3079,6.3079,6.269,6.2121,6.1313,6.0715,6.0086,5.9308,5.9099,5.9099,5.9099,5.9099,5.9099,5.9099,5.9099,5.9099,5.9099,5.9099,5.9099,5.9099,5.9099,5.9099,5.9099,5.9099,5.9099,5.9099,5.9099,5.9099,5.9099,5.8979,5.868,5.8141,5.7992,5.7663,5.7124,5.6974,5.6915,5.6915,5.6795,5.6735,5.6735,5.5688,5.5119,5.4999,5.4999,5.491,0.0,0.0,0.0,4.5372,0.0,0.0,0.0,4.117,4.0055,0.0,0.0,0.0,0.0,0.0,0.0,0.0,0.0,0.0,0.0,0.0,0.0,0.0,0.0,0.0,0.0,0.0,4.9401,5.0289,5.0917,5.123,5.1204,5.1204,5.0943,5.0368,5.0342,5.0211,4.9897,5.0498,5.0909,5.1093,5.2261,5.3322,5.4318,5.6042,5.7542,5.8859,5.9859,6.0428,6.0595,6.0595,6.0805,6.1164,6.1822,6.2301,6.263,6.2959,6.3079,6.3079,6.3079,6.3079,6.3079,6.3079,6.3079,6.3079,6.3079,6.3079,6.3019,6.269,6.2361,6.1882,6.0864,6.0356,5.9907,5.9249,5.9099,5.9099,5.9099,5.9099,5.9099,5.9099,5.9099,5.9099,5.9099,5.9099,5.9099,5.9099,5.9099,5.9099,5.9099,5.9099,5.9099,5.9099,5.9099,5.9099,5.9099,5.9099,5.8979,5.865,5.862,5.8471,5.8112,5.7782,5.7453,5.7094,5.7094,5.7094,5.7094,5.6466,5.5987,5.5688,5.5688,5.5508,0.0,0.0,0.0,0.0,0.0,4.5288,0.0,0.0,0.0,0.0,0.0,0.0,0.0,0.0,0.0,0.0,0.0,0.0,0.0,0.0,0.0,0.0,0.0,0.0,0.0,0.0,4.7937,4.8538,4.8695,4.9035,4.9688,4.974,4.974,4.974,4.974,4.9748,4.9677,5.028,5.0803,5.1334,5.2554,5.3697,5.4852,5.6251,5.7594,5.8823,5.9577,5.9907,5.9907,5.9907,5.9907,6.0027,6.1373,6.2002,6.2181,6.2839,6.3079,6.3079,6.3079,6.3079,6.3079,6.3079,6.3079,6.3079,6.3079,6.3079,6.2929,6.2271,6.2002,6.1642,6.0386,5.9997,5.9757,5.9219,5.9099,5.9099,5.9099,5.9099,5.9099,5.9099,5.9099,5.9099,5.9099,5.9099,5.9099,5.9099,5.9099,5.9099,5.9099,5.9099,5.9099,5.9099,5.9099,5.9099,5.9099,5.9099,5.9099,5.9099,5.9099,5.9099,5.9099,5.859,5.8052,5.7483,5.7483,5.7483,5.7483,5.7483,5.7094,5.6346,5.6226,5.5897,0.0,0.0,0.0,0.0,4.85,0.0,0.0,0.0,0.0,0.0,0.0,0.0,0.0,0.0,0.0,0.0,0.0,0.0,0.0,0.0,0.0,0.0,0.0,0.0,0.0,0.0,0.0,4.6734,4.7257,4.8015,4.9113,4.9165,4.9165,4.9165,4.9165,4.9108,4.8816,4.9396,5.0221,5.132,5.2566,5.4059,5.5761,5.6765,5.781,5.8728,5.9056,5.9219,5.9219,5.9219,5.9219,5.9338,6.0715,6.1583,6.2181,6.2839,6.3079,6.3079,6.3079,6.3079,6.3079,6.3079,6.3079,6.3079,6.3079,6.3079,6.2929,6.2271,6.1672,6.1044,6.0266,5.9668,5.9189,5.9129,5.9099,5.9099,5.9099,5.9099,5.9099,5.9099,5.9099,5.9099,5.9099,5.9099,5.9099,5.9099,5.9099,5.9099,5.9099,5.9099,5.9099,5.9099,5.9099,5.9099,5.9099,5.9099,5.9099,5.9099,5.9099,5.9099,5.9099,5.9039,5.8949,5.889,5.889,5.889,5.889,5.889,5.8231,5.6974,5.6436,5.6188,0.0,0.0,0.0,0.0,0.0,0.0,0.0,0.0,4.4116,0.0,0.0,0.0,0.0,0.0,0.0,0.0,0.0,0.0,0.0,0.0,0.0,0.0,0.0,0.0,0.0,0.0,0.0,0.0,0.0,4.5349,4.6525,4.6891,4.7231,4.7571,4.7885,4.8111,4.8162,4.9234,5.0505,5.1918,5.3309,5.485,5.6509,5.7416,5.814,5.8719,5.8991,5.9099,5.9099,5.9099,5.9099,5.9189,6.0146,6.0924,6.1642,6.269,6.3079,6.3079,6.3079,6.3079,6.3019,6.263,6.2241,6.1942,6.1942,6.1942,6.1792,6.1134,6.0745,6.0356,5.9697,5.9308,5.9099,5.9099,5.9099,5.9099,5.9099,5.9099,5.9099,5.9099,5.9099,5.9099,5.9099,5.9099,5.9099,5.9099,5.9099,5.9099,5.9099,5.9099,5.9099,5.9099,5.9099,5.9099,5.9099,5.9099,5.9099,5.9099,5.9099,5.9099,5.9099,5.9099,5.9099,5.9099,5.9099,5.9099,5.9099,5.9099,5.88,5.8231,5.7603,5.6885,5.3116,0.0,0.0,0.0,0.0,0.0,0.0,0.0,0.0,0.0,0.0,0.0,0.0,0.0,0.0,0.0,0.0,0.0,0.0,0.0,0.0,0.0,0.0,0.0,0.0,0.0,0.0,0.0,0.0,0.0,4.4225,4.4826,4.548,4.6212,4.6944,4.7507,4.7937,4.9232,5.0729,5.2396,5.3837,5.5395,5.7015,5.7915,5.85,5.8828,5.8991,5.9099,5.9099,5.9099,5.9099,5.9189,6.0027,6.0685,6.1253,6.2391,6.2929,6.3079,6.3079,6.2959,6.272,6.2241,6.1642,6.1104,6.1104,6.1104,6.0954,6.0266,6.0086,5.9937,5.9279,5.9099,5.9099,5.9099,5.9099,5.9099,5.9099,5.9099,5.9099,5.9099,5.9099,5.9099,5.9099,5.9099,5.9099,5.9099,5.9099,5.9099,5.9099,5.9099,5.9099,5.9099,5.9099,5.9099,5.9099,5.9099,5.9099,5.9099,5.9099,5.9099,5.9099,5.9099,5.9099,5.9099,5.9099,5.9099,5.9099,5.9099,5.9099,5.9099,5.8441,5.7603,0.0,0.0,0.0,5.3548,0.0,0.0,0.0,0.0,4.7249,0.0,0.0,0.0,0.0,0.0,0.0,4.1804,0.0,0.0,0.0,0.0,0.0,0.0,0.0,0.0,0.0,0.0,0.0,0.0,0.0,0.0,4.2971,4.3624,4.446,4.5555,4.6704,4.7622,4.8246,4.9174,5.0676,5.2687,5.3975,5.549,5.7227,5.8204,5.8828,5.9099,5.9099,5.9099,5.9099,5.9099,5.9099,5.9249,6.0565,6.1104,6.1194,6.1882,6.254,6.3079,6.3079,6.266,6.2121,6.2121,6.1642,6.1104,6.1104,6.1104,6.0954,6.0266,6.0086,5.9937,5.9279,5.9099,5.9099,5.9099,5.9099,5.9099,5.9099,5.9099,5.9099,5.9099,5.9099,5.9099,5.9099,5.9099,5.9099,5.9099,5.9099,5.9099,5.9099,5.9099,5.9099,5.9099,5.9099,5.9099,5.9099,5.9099,5.9099,5.9099,5.9099,5.9099,5.9099,5.9099,5.9099,5.9099,5.9099,5.9099,5.9099,5.9099,5.9099,5.9099,5.8441,5.8112,0.0,0.0,5.4939,5.4088,0.0,0.0,0.0,0.0,0.0,0.0,0.0,0.0,0.0,0.0,4.404,4.2777,4.0884,0.0,0.0,0.0,0.0,0.0,0.0,0.0,0.0,0.0,0.0,0.0,0.0,0.0,0.0,4.203,4.3284,4.4434,4.595,4.7043,4.7686,4.9128,5.0817,5.2714,5.4388,5.5929,5.7281,5.8421,5.8991,5.9099,5.9099,5.9099,5.9099,5.9099,5.9099,5.9189,6.0086,6.0715,6.1253,6.2331,6.2899,6.3079,6.3079,6.266,6.2032,6.1583,6.0984,6.0356,5.9907,5.9787,5.9727,5.9488,5.9428,5.9398,5.9159,5.9099,5.9099,5.9099,5.9099,5.9099,5.9099,5.9099,5.9099,5.9099,5.9099,5.9249,5.9668,5.9398,5.9099,5.9099,5.9099,5.9099,5.9099,5.9099,5.9099,5.9099,5.9099,5.9099,5.9099,5.9099,5.9099,5.9099,5.9099,5.9099,5.9099,5.9099,5.9099,5.9099,5.9099,5.9099,5.9099,5.9099,5.9099,5.9099,5.889,5.853,5.6682,5.6332,0.0,5.4671,5.3101,0.0,5.1437,0.0,0.0,0.0,0.0,0.0,0.0,0.0,0.0,4.3892,4.1866,3.9854,0.0,3.7023,0.0,0.0,0.0,0.0,0.0,0.0,0.0,0.0,0.0,0.0,0.0,0.0,4.2184,4.3284,4.5276,4.6711,4.7393,4.9245,5.0988,5.2542,5.4547,5.6084,5.7119,5.8494,5.9099,5.9099,5.9099,5.9099,5.9099,5.9099,5.9099,5.9189,6.0086,6.0715,6.1253,6.2331,6.2869,6.3079,6.3079,6.266,6.2002,6.1313,6.0655,5.9967,5.9308,5.9099,5.9099,5.9099,5.9099,5.9099,5.9099,5.9099,5.9099,5.9099,5.9099,5.9099,5.9099,5.9099,5.9189,5.9398,5.9458,5.9668,6.0326,6.0086,5.9727,5.9488,5.9249,5.9099,5.9099,5.9099,5.9099,5.9099,5.9099,5.9099,5.9099,5.9099,5.9099,5.9099,5.9099,5.9099,5.9099,5.9099,5.9099,5.9099,5.9099,5.9099,5.9099,5.9099,5.9099,5.9099,5.9099,5.889]}]]